<?xml version="1.0" encoding="UTF-8" standalone="no" ?>
<gpx xmlns="http://www.topografix.com/GPX/1/1" xmlns:xsi="http://www.w3.org/2001/XMLSchema-instance" xsi:schemaLocation="http://www.topografix.com/GPX/1/1 http://www.topografix.com/GPX/1/1/gpx.xsd" version="1.1" creator="VisuGPX - https://www.visugpx.com">
  <metadata>
    <name>Edirne-Mostar</name>
  </metadata>
  <trk>
    <name><![CDATA[Tour d'Europe: étape 665]]></name>
    <extensions>
      <line xmlns="http://www.topografix.com/GPX/gpx_style/0/2">
        <color>FF00FF</color>
        <width>4</width>
      </line>
    </extensions>
    <trkseg>
      <trkpt lat="41.97965" lon="20.96911">
        <ele>487.194285</ele>
        <time>2022-04-24T09:28:05.712Z</time>
      </trkpt>
      <trkpt lat="41.97954" lon="20.96884">
        <ele>487.194285</ele>
        <time>2022-04-24T09:29:45.703Z</time>
      </trkpt>
      <trkpt lat="41.97945" lon="20.96884">
        <ele>487.194285</ele>
        <time>2022-04-24T09:29:48.709Z</time>
      </trkpt>
      <trkpt lat="41.97935" lon="20.96887">
        <ele>487.194285</ele>
        <time>2022-04-24T09:29:51.687Z</time>
      </trkpt>
      <trkpt lat="41.97925" lon="20.96891">
        <ele>487.194285</ele>
        <time>2022-04-24T09:29:54.768Z</time>
      </trkpt>
      <trkpt lat="41.97914" lon="20.96897">
        <ele>487.194285</ele>
        <time>2022-04-24T09:29:57.718Z</time>
      </trkpt>
      <trkpt lat="41.97903" lon="20.96902">
        <ele>487.194285</ele>
        <time>2022-04-24T09:30:00.718Z</time>
      </trkpt>
      <trkpt lat="41.97891" lon="20.96908">
        <ele>487.194285</ele>
        <time>2022-04-24T09:30:03.716Z</time>
      </trkpt>
      <trkpt lat="41.9788" lon="20.96914">
        <ele>486.995014</ele>
        <time>2022-04-24T09:30:06.709Z</time>
      </trkpt>
      <trkpt lat="41.97868" lon="20.96921">
        <ele>486.758369</ele>
        <time>2022-04-24T09:30:09.712Z</time>
      </trkpt>
      <trkpt lat="41.97859" lon="20.96925">
        <ele>486.592092</ele>
        <time>2022-04-24T09:30:11.706Z</time>
      </trkpt>
      <trkpt lat="41.9785" lon="20.9693">
        <ele>486.415183</ele>
        <time>2022-04-24T09:30:13.719Z</time>
      </trkpt>
      <trkpt lat="41.97841" lon="20.96934">
        <ele>486.241901</ele>
        <time>2022-04-24T09:30:15.690Z</time>
      </trkpt>
      <trkpt lat="41.97832" lon="20.96939">
        <ele>486.064056</ele>
        <time>2022-04-24T09:30:17.785Z</time>
      </trkpt>
      <trkpt lat="41.97822" lon="20.96944">
        <ele>485.867928</ele>
        <time>2022-04-24T09:30:19.722Z</time>
      </trkpt>
      <trkpt lat="41.97812" lon="20.96949">
        <ele>485.67269</ele>
        <time>2022-04-24T09:30:21.733Z</time>
      </trkpt>
      <trkpt lat="41.97802" lon="20.96954">
        <ele>485.483988</ele>
        <time>2022-04-24T09:30:23.698Z</time>
      </trkpt>
      <trkpt lat="41.97793" lon="20.9696">
        <ele>485.297083</ele>
        <time>2022-04-24T09:30:25.704Z</time>
      </trkpt>
      <trkpt lat="41.97783" lon="20.96965">
        <ele>485.111045</ele>
        <time>2022-04-24T09:30:27.705Z</time>
      </trkpt>
      <trkpt lat="41.97773" lon="20.9697">
        <ele>484.918488</ele>
        <time>2022-04-24T09:30:29.719Z</time>
      </trkpt>
      <trkpt lat="41.97763" lon="20.96975">
        <ele>484.726424</ele>
        <time>2022-04-24T09:30:31.729Z</time>
      </trkpt>
      <trkpt lat="41.97753" lon="20.96981">
        <ele>484.525658</ele>
        <time>2022-04-24T09:30:33.720Z</time>
      </trkpt>
      <trkpt lat="41.97742" lon="20.96987">
        <ele>484.323215</ele>
        <time>2022-04-24T09:30:35.721Z</time>
      </trkpt>
      <trkpt lat="41.97733" lon="20.96992">
        <ele>484.128607</ele>
        <time>2022-04-24T09:30:37.716Z</time>
      </trkpt>
      <trkpt lat="41.97722" lon="20.96998">
        <ele>483.927308</ele>
        <time>2022-04-24T09:30:39.721Z</time>
      </trkpt>
      <trkpt lat="41.97712" lon="20.97004">
        <ele>483.695172</ele>
        <time>2022-04-24T09:30:41.725Z</time>
      </trkpt>
      <trkpt lat="41.97702" lon="20.97009">
        <ele>483.470478</ele>
        <time>2022-04-24T09:30:43.736Z</time>
      </trkpt>
      <trkpt lat="41.97692" lon="20.97015">
        <ele>483.238823</ele>
        <time>2022-04-24T09:30:45.702Z</time>
      </trkpt>
      <trkpt lat="41.97681" lon="20.97021">
        <ele>483.002859</ele>
        <time>2022-04-24T09:30:47.712Z</time>
      </trkpt>
      <trkpt lat="41.97671" lon="20.97027">
        <ele>482.764978</ele>
        <time>2022-04-24T09:30:49.732Z</time>
      </trkpt>
      <trkpt lat="41.97661" lon="20.97032">
        <ele>482.53777</ele>
        <time>2022-04-24T09:30:51.710Z</time>
      </trkpt>
      <trkpt lat="41.97651" lon="20.97038">
        <ele>482.313076</ele>
        <time>2022-04-24T09:30:53.716Z</time>
      </trkpt>
      <trkpt lat="41.97641" lon="20.97043">
        <ele>482.087573</ele>
        <time>2022-04-24T09:30:55.731Z</time>
      </trkpt>
      <trkpt lat="41.97631" lon="20.97049">
        <ele>481.862296</ele>
        <time>2022-04-24T09:30:57.718Z</time>
      </trkpt>
      <trkpt lat="41.97621" lon="20.97054">
        <ele>481.631983</ele>
        <time>2022-04-24T09:30:59.739Z</time>
      </trkpt>
      <trkpt lat="41.9761" lon="20.9706">
        <ele>481.40107</ele>
        <time>2022-04-24T09:31:01.738Z</time>
      </trkpt>
      <trkpt lat="41.976" lon="20.97065">
        <ele>481.168615</ele>
        <time>2022-04-24T09:31:03.697Z</time>
      </trkpt>
      <trkpt lat="41.9759" lon="20.97072">
        <ele>480.935852</ele>
        <time>2022-04-24T09:31:05.717Z</time>
      </trkpt>
      <trkpt lat="41.97579" lon="20.97078">
        <ele>480.699916</ele>
        <time>2022-04-24T09:31:07.717Z</time>
      </trkpt>
      <trkpt lat="41.9757" lon="20.97084">
        <ele>480.473496</ele>
        <time>2022-04-24T09:31:09.726Z</time>
      </trkpt>
      <trkpt lat="41.9756" lon="20.9709">
        <ele>480.250242</ele>
        <time>2022-04-24T09:31:11.691Z</time>
      </trkpt>
      <trkpt lat="41.9755" lon="20.97096">
        <ele>480.19016</ele>
        <time>2022-04-24T09:31:13.718Z</time>
      </trkpt>
      <trkpt lat="41.9754" lon="20.97102">
        <ele>480.185953</ele>
        <time>2022-04-24T09:31:15.714Z</time>
      </trkpt>
      <trkpt lat="41.97531" lon="20.97109">
        <ele>480.181818</ele>
        <time>2022-04-24T09:31:17.709Z</time>
      </trkpt>
      <trkpt lat="41.97523" lon="20.97116">
        <ele>480.177648</ele>
        <time>2022-04-24T09:31:19.706Z</time>
      </trkpt>
      <trkpt lat="41.97515" lon="20.97123">
        <ele>480.173907</ele>
        <time>2022-04-24T09:31:21.693Z</time>
      </trkpt>
      <trkpt lat="41.97506" lon="20.9713">
        <ele>480.169914</ele>
        <time>2022-04-24T09:31:23.709Z</time>
      </trkpt>
      <trkpt lat="41.97497" lon="20.97138">
        <ele>480.16576</ele>
        <time>2022-04-24T09:31:25.709Z</time>
      </trkpt>
      <trkpt lat="41.97489" lon="20.97145">
        <ele>480.161767</ele>
        <time>2022-04-24T09:31:27.714Z</time>
      </trkpt>
      <trkpt lat="41.97481" lon="20.97152">
        <ele>480.158191</ele>
        <time>2022-04-24T09:31:29.694Z</time>
      </trkpt>
      <trkpt lat="41.97473" lon="20.97159">
        <ele>480.154318</ele>
        <time>2022-04-24T09:31:31.712Z</time>
      </trkpt>
      <trkpt lat="41.97464" lon="20.97167">
        <ele>480.149908</ele>
        <time>2022-04-24T09:31:33.693Z</time>
      </trkpt>
      <trkpt lat="41.97453" lon="20.97175">
        <ele>480.145066</ele>
        <time>2022-04-24T09:31:35.751Z</time>
      </trkpt>
      <trkpt lat="41.97443" lon="20.97184">
        <ele>480.140203</ele>
        <time>2022-04-24T09:31:37.742Z</time>
      </trkpt>
      <trkpt lat="41.97433" lon="20.97192">
        <ele>480.135539</ele>
        <time>2022-04-24T09:31:39.719Z</time>
      </trkpt>
      <trkpt lat="41.97424" lon="20.97201">
        <ele>480.13127</ele>
        <time>2022-04-24T09:31:41.698Z</time>
      </trkpt>
      <trkpt lat="41.97414" lon="20.97209">
        <ele>480.126785</ele>
        <time>2022-04-24T09:31:43.736Z</time>
      </trkpt>
      <trkpt lat="41.97405" lon="20.97217">
        <ele>480.122284</ele>
        <time>2022-04-24T09:31:45.721Z</time>
      </trkpt>
      <trkpt lat="41.97395" lon="20.97224">
        <ele>480.142765</ele>
        <time>2022-04-24T09:31:47.728Z</time>
      </trkpt>
      <trkpt lat="41.97386" lon="20.97231">
        <ele>480.165278</ele>
        <time>2022-04-24T09:31:49.708Z</time>
      </trkpt>
      <trkpt lat="41.97377" lon="20.97238">
        <ele>480.186612</ele>
        <time>2022-04-24T09:31:51.714Z</time>
      </trkpt>
      <trkpt lat="41.97369" lon="20.97245">
        <ele>480.206082</ele>
        <time>2022-04-24T09:31:53.709Z</time>
      </trkpt>
      <trkpt lat="41.9736" lon="20.97251">
        <ele>480.225628</ele>
        <time>2022-04-24T09:31:55.730Z</time>
      </trkpt>
      <trkpt lat="41.97352" lon="20.97258">
        <ele>480.245139</ele>
        <time>2022-04-24T09:31:57.718Z</time>
      </trkpt>
      <trkpt lat="41.97344" lon="20.97265">
        <ele>480.264664</ele>
        <time>2022-04-24T09:31:59.718Z</time>
      </trkpt>
      <trkpt lat="41.97336" lon="20.97271">
        <ele>480.285003</ele>
        <time>2022-04-24T09:32:01.701Z</time>
      </trkpt>
      <trkpt lat="41.97327" lon="20.97277">
        <ele>480.305992</ele>
        <time>2022-04-24T09:32:03.739Z</time>
      </trkpt>
      <trkpt lat="41.97318" lon="20.97284">
        <ele>480.327307</ele>
        <time>2022-04-24T09:32:05.708Z</time>
      </trkpt>
      <trkpt lat="41.97308" lon="20.9729">
        <ele>480.349213</ele>
        <time>2022-04-24T09:32:07.755Z</time>
      </trkpt>
      <trkpt lat="41.97299" lon="20.97297">
        <ele>480.370856</ele>
        <time>2022-04-24T09:32:09.737Z</time>
      </trkpt>
      <trkpt lat="41.9729" lon="20.97304">
        <ele>480.392828</ele>
        <time>2022-04-24T09:32:11.710Z</time>
      </trkpt>
      <trkpt lat="41.97281" lon="20.97312">
        <ele>480.414129</ele>
        <time>2022-04-24T09:32:13.691Z</time>
      </trkpt>
      <trkpt lat="41.97273" lon="20.97321">
        <ele>480.435567</ele>
        <time>2022-04-24T09:32:15.721Z</time>
      </trkpt>
      <trkpt lat="41.97265" lon="20.97331">
        <ele>480.457783</ele>
        <time>2022-04-24T09:32:17.722Z</time>
      </trkpt>
      <trkpt lat="41.97258" lon="20.97342">
        <ele>480.480316</ele>
        <time>2022-04-24T09:32:19.702Z</time>
      </trkpt>
      <trkpt lat="41.97252" lon="20.97354">
        <ele>480.469317</ele>
        <time>2022-04-24T09:32:21.693Z</time>
      </trkpt>
      <trkpt lat="41.97245" lon="20.97364">
        <ele>480.417183</ele>
        <time>2022-04-24T09:32:23.710Z</time>
      </trkpt>
      <trkpt lat="41.97238" lon="20.97375">
        <ele>480.36445</ele>
        <time>2022-04-24T09:32:25.712Z</time>
      </trkpt>
      <trkpt lat="41.97232" lon="20.97387">
        <ele>480.312977</ele>
        <time>2022-04-24T09:32:27.709Z</time>
      </trkpt>
      <trkpt lat="41.97225" lon="20.97398">
        <ele>480.256674</ele>
        <time>2022-04-24T09:32:29.727Z</time>
      </trkpt>
      <trkpt lat="41.97219" lon="20.97409">
        <ele>480.20727</ele>
        <time>2022-04-24T09:32:31.717Z</time>
      </trkpt>
      <trkpt lat="41.97213" lon="20.9742">
        <ele>480.158458</ele>
        <time>2022-04-24T09:32:33.725Z</time>
      </trkpt>
      <trkpt lat="41.97207" lon="20.97431">
        <ele>480.106982</ele>
        <time>2022-04-24T09:32:35.709Z</time>
      </trkpt>
      <trkpt lat="41.97201" lon="20.97442">
        <ele>480.05695</ele>
        <time>2022-04-24T09:32:37.720Z</time>
      </trkpt>
      <trkpt lat="41.97195" lon="20.97452">
        <ele>480.010179</ele>
        <time>2022-04-24T09:32:39.704Z</time>
      </trkpt>
      <trkpt lat="41.97188" lon="20.97463">
        <ele>479.959173</ele>
        <time>2022-04-24T09:32:41.724Z</time>
      </trkpt>
      <trkpt lat="41.97182" lon="20.97475">
        <ele>479.903555</ele>
        <time>2022-04-24T09:32:43.768Z</time>
      </trkpt>
      <trkpt lat="41.97175" lon="20.97486">
        <ele>479.850304</ele>
        <time>2022-04-24T09:32:45.707Z</time>
      </trkpt>
      <trkpt lat="41.97169" lon="20.97498">
        <ele>479.796464</ele>
        <time>2022-04-24T09:32:47.715Z</time>
      </trkpt>
      <trkpt lat="41.97162" lon="20.97509">
        <ele>479.743216</ele>
        <time>2022-04-24T09:32:49.714Z</time>
      </trkpt>
      <trkpt lat="41.97156" lon="20.97521">
        <ele>479.690253</ele>
        <time>2022-04-24T09:32:51.708Z</time>
      </trkpt>
      <trkpt lat="41.9715" lon="20.97532">
        <ele>479.638765</ele>
        <time>2022-04-24T09:32:53.728Z</time>
      </trkpt>
      <trkpt lat="41.97143" lon="20.97544">
        <ele>479.584998</ele>
        <time>2022-04-24T09:32:55.706Z</time>
      </trkpt>
      <trkpt lat="41.97137" lon="20.97555">
        <ele>479.53169</ele>
        <time>2022-04-24T09:32:57.709Z</time>
      </trkpt>
      <trkpt lat="41.97132" lon="20.97564">
        <ele>479.48429</ele>
        <time>2022-04-24T09:32:59.711Z</time>
      </trkpt>
      <trkpt lat="41.97124" lon="20.97579">
        <ele>479.415583</ele>
        <time>2022-04-24T09:33:02.718Z</time>
      </trkpt>
      <trkpt lat="41.97117" lon="20.97593">
        <ele>479.348815</ele>
        <time>2022-04-24T09:33:05.708Z</time>
      </trkpt>
      <trkpt lat="41.97108" lon="20.97607">
        <ele>479.277935</ele>
        <time>2022-04-24T09:33:08.716Z</time>
      </trkpt>
      <trkpt lat="41.97101" lon="20.97622">
        <ele>479.208411</ele>
        <time>2022-04-24T09:33:11.711Z</time>
      </trkpt>
      <trkpt lat="41.97093" lon="20.97636">
        <ele>479.141963</ele>
        <time>2022-04-24T09:33:14.706Z</time>
      </trkpt>
      <trkpt lat="41.97086" lon="20.97651">
        <ele>479.07241</ele>
        <time>2022-04-24T09:33:17.726Z</time>
      </trkpt>
      <trkpt lat="41.9708" lon="20.97661">
        <ele>479.020018</ele>
        <time>2022-04-24T09:33:19.730Z</time>
      </trkpt>
      <trkpt lat="41.97074" lon="20.97672">
        <ele>478.966398</ele>
        <time>2022-04-24T09:33:21.707Z</time>
      </trkpt>
      <trkpt lat="41.97068" lon="20.97683">
        <ele>478.91463</ele>
        <time>2022-04-24T09:33:23.730Z</time>
      </trkpt>
      <trkpt lat="41.97062" lon="20.97693">
        <ele>478.864409</ele>
        <time>2022-04-24T09:33:25.692Z</time>
      </trkpt>
      <trkpt lat="41.97055" lon="20.97704">
        <ele>478.809432</ele>
        <time>2022-04-24T09:33:27.707Z</time>
      </trkpt>
      <trkpt lat="41.97049" lon="20.97716">
        <ele>478.752999</ele>
        <time>2022-04-24T09:33:29.748Z</time>
      </trkpt>
      <trkpt lat="41.97042" lon="20.97728">
        <ele>478.694378</ele>
        <time>2022-04-24T09:33:31.727Z</time>
      </trkpt>
      <trkpt lat="41.97035" lon="20.9774">
        <ele>478.68648</ele>
        <time>2022-04-24T09:33:33.708Z</time>
      </trkpt>
      <trkpt lat="41.97028" lon="20.97752">
        <ele>478.742426</ele>
        <time>2022-04-24T09:33:35.716Z</time>
      </trkpt>
      <trkpt lat="41.97022" lon="20.97764">
        <ele>478.796302</ele>
        <time>2022-04-24T09:33:37.710Z</time>
      </trkpt>
      <trkpt lat="41.97016" lon="20.97776">
        <ele>478.850801</ele>
        <time>2022-04-24T09:33:39.719Z</time>
      </trkpt>
      <trkpt lat="41.9701" lon="20.97788">
        <ele>478.901412</ele>
        <time>2022-04-24T09:33:41.695Z</time>
      </trkpt>
      <trkpt lat="41.97002" lon="20.97798">
        <ele>478.955576</ele>
        <time>2022-04-24T09:33:43.717Z</time>
      </trkpt>
      <trkpt lat="41.96994" lon="20.97808">
        <ele>479.012247</ele>
        <time>2022-04-24T09:33:45.702Z</time>
      </trkpt>
      <trkpt lat="41.96984" lon="20.97817">
        <ele>479.069675</ele>
        <time>2022-04-24T09:33:47.708Z</time>
      </trkpt>
      <trkpt lat="41.96974" lon="20.97825">
        <ele>479.127769</ele>
        <time>2022-04-24T09:33:49.712Z</time>
      </trkpt>
      <trkpt lat="41.96964" lon="20.97834">
        <ele>479.185195</ele>
        <time>2022-04-24T09:33:51.726Z</time>
      </trkpt>
      <trkpt lat="41.96954" lon="20.97842">
        <ele>479.243289</ele>
        <time>2022-04-24T09:33:53.715Z</time>
      </trkpt>
      <trkpt lat="41.96945" lon="20.9785">
        <ele>479.300769</ele>
        <time>2022-04-24T09:33:55.712Z</time>
      </trkpt>
      <trkpt lat="41.96935" lon="20.97858">
        <ele>479.357825</ele>
        <time>2022-04-24T09:33:57.733Z</time>
      </trkpt>
      <trkpt lat="41.96925" lon="20.97866">
        <ele>479.415075</ele>
        <time>2022-04-24T09:33:59.710Z</time>
      </trkpt>
      <trkpt lat="41.96916" lon="20.97874">
        <ele>479.468799</ele>
        <time>2022-04-24T09:34:01.699Z</time>
      </trkpt>
      <trkpt lat="41.96907" lon="20.97881">
        <ele>479.517622</ele>
        <time>2022-04-24T09:34:03.744Z</time>
      </trkpt>
      <trkpt lat="41.96899" lon="20.97888">
        <ele>479.553691</ele>
        <time>2022-04-24T09:34:05.705Z</time>
      </trkpt>
      <trkpt lat="41.96891" lon="20.97895">
        <ele>479.554831</ele>
        <time>2022-04-24T09:34:07.736Z</time>
      </trkpt>
      <trkpt lat="41.96882" lon="20.97902">
        <ele>479.556066</ele>
        <time>2022-04-24T09:34:09.739Z</time>
      </trkpt>
      <trkpt lat="41.96871" lon="20.97909">
        <ele>479.557463</ele>
        <time>2022-04-24T09:34:11.699Z</time>
      </trkpt>
      <trkpt lat="41.96861" lon="20.97916">
        <ele>479.558862</ele>
        <time>2022-04-24T09:34:13.711Z</time>
      </trkpt>
      <trkpt lat="41.96851" lon="20.97924">
        <ele>479.560252</ele>
        <time>2022-04-24T09:34:15.722Z</time>
      </trkpt>
      <trkpt lat="41.96841" lon="20.97933">
        <ele>479.561666</ele>
        <time>2022-04-24T09:34:17.715Z</time>
      </trkpt>
      <trkpt lat="41.96832" lon="20.97944">
        <ele>479.563189</ele>
        <time>2022-04-24T09:34:19.738Z</time>
      </trkpt>
      <trkpt lat="41.96822" lon="20.97954">
        <ele>479.564669</ele>
        <time>2022-04-24T09:34:21.726Z</time>
      </trkpt>
      <trkpt lat="41.96813" lon="20.97965">
        <ele>479.56614</ele>
        <time>2022-04-24T09:34:23.717Z</time>
      </trkpt>
      <trkpt lat="41.96804" lon="20.97975">
        <ele>479.567557</ele>
        <time>2022-04-24T09:34:25.718Z</time>
      </trkpt>
      <trkpt lat="41.96795" lon="20.97985">
        <ele>479.568941</ele>
        <time>2022-04-24T09:34:27.703Z</time>
      </trkpt>
      <trkpt lat="41.96786" lon="20.97995">
        <ele>479.570304</ele>
        <time>2022-04-24T09:34:29.703Z</time>
      </trkpt>
      <trkpt lat="41.96778" lon="20.98005">
        <ele>479.571682</ele>
        <time>2022-04-24T09:34:31.721Z</time>
      </trkpt>
      <trkpt lat="41.96769" lon="20.98016">
        <ele>479.573042</ele>
        <time>2022-04-24T09:34:33.698Z</time>
      </trkpt>
      <trkpt lat="41.96761" lon="20.98026">
        <ele>479.574364</ele>
        <time>2022-04-24T09:34:35.707Z</time>
      </trkpt>
      <trkpt lat="41.96753" lon="20.98036">
        <ele>479.573249</ele>
        <time>2022-04-24T09:34:37.719Z</time>
      </trkpt>
      <trkpt lat="41.96745" lon="20.98045">
        <ele>479.570248</ele>
        <time>2022-04-24T09:34:39.707Z</time>
      </trkpt>
      <trkpt lat="41.96736" lon="20.98055">
        <ele>479.567259</ele>
        <time>2022-04-24T09:34:41.718Z</time>
      </trkpt>
      <trkpt lat="41.96728" lon="20.98065">
        <ele>479.564263</ele>
        <time>2022-04-24T09:34:43.746Z</time>
      </trkpt>
      <trkpt lat="41.96719" lon="20.98076">
        <ele>479.561144</ele>
        <time>2022-04-24T09:34:45.719Z</time>
      </trkpt>
      <trkpt lat="41.9671" lon="20.98086">
        <ele>479.558064</ele>
        <time>2022-04-24T09:34:47.718Z</time>
      </trkpt>
      <trkpt lat="41.96701" lon="20.98095">
        <ele>479.555009</ele>
        <time>2022-04-24T09:34:49.727Z</time>
      </trkpt>
      <trkpt lat="41.96692" lon="20.98104">
        <ele>479.552026</ele>
        <time>2022-04-24T09:34:51.710Z</time>
      </trkpt>
      <trkpt lat="41.96682" lon="20.9811">
        <ele>479.549244</ele>
        <time>2022-04-24T09:34:53.721Z</time>
      </trkpt>
      <trkpt lat="41.96674" lon="20.98113">
        <ele>479.546842</ele>
        <time>2022-04-24T09:34:55.711Z</time>
      </trkpt>
      <trkpt lat="41.96664" lon="20.98115">
        <ele>479.54434</ele>
        <time>2022-04-24T09:34:57.706Z</time>
      </trkpt>
      <trkpt lat="41.96653" lon="20.98116">
        <ele>479.541245</ele>
        <time>2022-04-24T09:35:00.689Z</time>
      </trkpt>
      <trkpt lat="41.96643" lon="20.98112">
        <ele>479.538668</ele>
        <time>2022-04-24T09:35:03.712Z</time>
      </trkpt>
      <trkpt lat="41.96633" lon="20.98113">
        <ele>479.535949</ele>
        <time>2022-04-24T09:35:06.740Z</time>
      </trkpt>
      <trkpt lat="41.96623" lon="20.98114">
        <ele>479.533124</ele>
        <time>2022-04-24T09:35:09.706Z</time>
      </trkpt>
      <trkpt lat="41.96599" lon="20.98111">
        <ele>479.537555</ele>
        <time>2022-04-24T09:36:23.713Z</time>
      </trkpt>
      <trkpt lat="41.96588" lon="20.98109">
        <ele>479.717168</ele>
        <time>2022-04-24T09:36:26.721Z</time>
      </trkpt>
      <trkpt lat="41.96575" lon="20.98109">
        <ele>479.919813</ele>
        <time>2022-04-24T09:36:29.714Z</time>
      </trkpt>
      <trkpt lat="41.96562" lon="20.98107">
        <ele>480.133958</ele>
        <time>2022-04-24T09:36:32.719Z</time>
      </trkpt>
      <trkpt lat="41.96549" lon="20.98106">
        <ele>480.338876</ele>
        <time>2022-04-24T09:36:35.728Z</time>
      </trkpt>
      <trkpt lat="41.96537" lon="20.98105">
        <ele>480.541647</ele>
        <time>2022-04-24T09:36:38.707Z</time>
      </trkpt>
      <trkpt lat="41.96524" lon="20.98103">
        <ele>480.753076</ele>
        <time>2022-04-24T09:36:41.703Z</time>
      </trkpt>
      <trkpt lat="41.96514" lon="20.98102">
        <ele>480.902786</ele>
        <time>2022-04-24T09:36:43.755Z</time>
      </trkpt>
      <trkpt lat="41.96505" lon="20.98103">
        <ele>481.052234</ele>
        <time>2022-04-24T09:36:45.745Z</time>
      </trkpt>
      <trkpt lat="41.96492" lon="20.98103">
        <ele>481.267587</ele>
        <time>2022-04-24T09:36:48.718Z</time>
      </trkpt>
      <trkpt lat="41.96483" lon="20.98103">
        <ele>481.413784</ele>
        <time>2022-04-24T09:36:50.721Z</time>
      </trkpt>
      <trkpt lat="41.96473" lon="20.98103">
        <ele>481.572899</ele>
        <time>2022-04-24T09:36:52.711Z</time>
      </trkpt>
      <trkpt lat="41.96463" lon="20.98104">
        <ele>481.733709</ele>
        <time>2022-04-24T09:36:54.726Z</time>
      </trkpt>
      <trkpt lat="41.96453" lon="20.98105">
        <ele>481.893629</ele>
        <time>2022-04-24T09:36:56.702Z</time>
      </trkpt>
      <trkpt lat="41.96443" lon="20.98107">
        <ele>482.058746</ele>
        <time>2022-04-24T09:36:58.709Z</time>
      </trkpt>
      <trkpt lat="41.96433" lon="20.98109">
        <ele>482.2194</ele>
        <time>2022-04-24T09:37:00.702Z</time>
      </trkpt>
      <trkpt lat="41.96423" lon="20.9811">
        <ele>482.375601</ele>
        <time>2022-04-24T09:37:02.713Z</time>
      </trkpt>
      <trkpt lat="41.96413" lon="20.98111">
        <ele>482.298564</ele>
        <time>2022-04-24T09:37:04.714Z</time>
      </trkpt>
      <trkpt lat="41.96404" lon="20.98112">
        <ele>482.149373</ele>
        <time>2022-04-24T09:37:06.715Z</time>
      </trkpt>
      <trkpt lat="41.96395" lon="20.98114">
        <ele>481.992137</ele>
        <time>2022-04-24T09:37:08.704Z</time>
      </trkpt>
      <trkpt lat="41.96385" lon="20.98115">
        <ele>481.839017</ele>
        <time>2022-04-24T09:37:10.699Z</time>
      </trkpt>
      <trkpt lat="41.96376" lon="20.98114">
        <ele>481.689446</ele>
        <time>2022-04-24T09:37:12.712Z</time>
      </trkpt>
      <trkpt lat="41.96366" lon="20.98113">
        <ele>481.527378</ele>
        <time>2022-04-24T09:37:14.718Z</time>
      </trkpt>
      <trkpt lat="41.96356" lon="20.98112">
        <ele>481.364544</ele>
        <time>2022-04-24T09:37:16.725Z</time>
      </trkpt>
      <trkpt lat="41.96346" lon="20.98109">
        <ele>481.195961</ele>
        <time>2022-04-24T09:37:18.702Z</time>
      </trkpt>
      <trkpt lat="41.96336" lon="20.98107">
        <ele>481.027378</ele>
        <time>2022-04-24T09:37:20.711Z</time>
      </trkpt>
      <trkpt lat="41.96326" lon="20.98104">
        <ele>480.861</ele>
        <time>2022-04-24T09:37:22.712Z</time>
      </trkpt>
      <trkpt lat="41.96315" lon="20.981">
        <ele>480.690354</ele>
        <time>2022-04-24T09:37:24.707Z</time>
      </trkpt>
      <trkpt lat="41.96306" lon="20.98095">
        <ele>480.517914</ele>
        <time>2022-04-24T09:37:26.713Z</time>
      </trkpt>
      <trkpt lat="41.96295" lon="20.98089">
        <ele>480.33469</ele>
        <time>2022-04-24T09:37:28.714Z</time>
      </trkpt>
      <trkpt lat="41.96284" lon="20.98084">
        <ele>480.15228</ele>
        <time>2022-04-24T09:37:30.711Z</time>
      </trkpt>
      <trkpt lat="41.96274" lon="20.98079">
        <ele>479.96753</ele>
        <time>2022-04-24T09:37:32.709Z</time>
      </trkpt>
      <trkpt lat="41.96263" lon="20.98074">
        <ele>479.788584</ele>
        <time>2022-04-24T09:37:34.722Z</time>
      </trkpt>
      <trkpt lat="41.96253" lon="20.98069">
        <ele>479.613394</ele>
        <time>2022-04-24T09:37:36.750Z</time>
      </trkpt>
      <trkpt lat="41.96243" lon="20.98065">
        <ele>479.485177</ele>
        <time>2022-04-24T09:37:38.706Z</time>
      </trkpt>
      <trkpt lat="41.96234" lon="20.98061">
        <ele>479.453498</ele>
        <time>2022-04-24T09:37:40.712Z</time>
      </trkpt>
      <trkpt lat="41.96225" lon="20.98057">
        <ele>479.421577</ele>
        <time>2022-04-24T09:37:42.692Z</time>
      </trkpt>
      <trkpt lat="41.96215" lon="20.98053">
        <ele>479.388713</ele>
        <time>2022-04-24T09:37:44.707Z</time>
      </trkpt>
      <trkpt lat="41.96205" lon="20.9805">
        <ele>479.355538</ele>
        <time>2022-04-24T09:37:46.717Z</time>
      </trkpt>
      <trkpt lat="41.96195" lon="20.98048">
        <ele>479.322263</ele>
        <time>2022-04-24T09:37:48.721Z</time>
      </trkpt>
      <trkpt lat="41.96186" lon="20.98044">
        <ele>479.289915</ele>
        <time>2022-04-24T09:37:50.714Z</time>
      </trkpt>
      <trkpt lat="41.96176" lon="20.98041">
        <ele>479.256319</ele>
        <time>2022-04-24T09:37:52.729Z</time>
      </trkpt>
      <trkpt lat="41.96165" lon="20.98039">
        <ele>479.220254</ele>
        <time>2022-04-24T09:37:54.757Z</time>
      </trkpt>
      <trkpt lat="41.96155" lon="20.98038">
        <ele>479.185952</ele>
        <time>2022-04-24T09:37:56.700Z</time>
      </trkpt>
      <trkpt lat="41.96145" lon="20.98037">
        <ele>479.153938</ele>
        <time>2022-04-24T09:37:58.704Z</time>
      </trkpt>
      <trkpt lat="41.96135" lon="20.98035">
        <ele>479.120291</ele>
        <time>2022-04-24T09:38:00.710Z</time>
      </trkpt>
      <trkpt lat="41.96124" lon="20.98034">
        <ele>479.086148</ele>
        <time>2022-04-24T09:38:02.714Z</time>
      </trkpt>
      <trkpt lat="41.96115" lon="20.98032">
        <ele>479.053756</ele>
        <time>2022-04-24T09:38:04.705Z</time>
      </trkpt>
      <trkpt lat="41.96105" lon="20.98031">
        <ele>479.02237</ele>
        <time>2022-04-24T09:38:06.723Z</time>
      </trkpt>
      <trkpt lat="41.96095" lon="20.98029">
        <ele>478.989853</ele>
        <time>2022-04-24T09:38:08.702Z</time>
      </trkpt>
      <trkpt lat="41.96086" lon="20.98027">
        <ele>478.95882</ele>
        <time>2022-04-24T09:38:10.735Z</time>
      </trkpt>
      <trkpt lat="41.96077" lon="20.98027">
        <ele>478.927888</ele>
        <time>2022-04-24T09:38:12.715Z</time>
      </trkpt>
      <trkpt lat="41.96068" lon="20.98026">
        <ele>478.888987</ele>
        <time>2022-04-24T09:38:14.706Z</time>
      </trkpt>
      <trkpt lat="41.96055" lon="20.98024">
        <ele>478.787179</ele>
        <time>2022-04-24T09:38:17.740Z</time>
      </trkpt>
      <trkpt lat="41.96045" lon="20.98023">
        <ele>478.713978</ele>
        <time>2022-04-24T09:38:19.717Z</time>
      </trkpt>
      <trkpt lat="41.96035" lon="20.98023">
        <ele>478.636966</ele>
        <time>2022-04-24T09:38:21.721Z</time>
      </trkpt>
      <trkpt lat="41.96025" lon="20.98024">
        <ele>478.558997</ele>
        <time>2022-04-24T09:38:23.724Z</time>
      </trkpt>
      <trkpt lat="41.96015" lon="20.98026">
        <ele>478.480976</ele>
        <time>2022-04-24T09:38:25.711Z</time>
      </trkpt>
      <trkpt lat="41.96006" lon="20.98029">
        <ele>478.404538</ele>
        <time>2022-04-24T09:38:27.719Z</time>
      </trkpt>
      <trkpt lat="41.95996" lon="20.98033">
        <ele>478.326141</ele>
        <time>2022-04-24T09:38:29.711Z</time>
      </trkpt>
      <trkpt lat="41.95987" lon="20.98038">
        <ele>478.248477</ele>
        <time>2022-04-24T09:38:31.709Z</time>
      </trkpt>
      <trkpt lat="41.95978" lon="20.98043">
        <ele>478.175627</ele>
        <time>2022-04-24T09:38:33.710Z</time>
      </trkpt>
      <trkpt lat="41.95966" lon="20.98051">
        <ele>478.07235</ele>
        <time>2022-04-24T09:38:36.699Z</time>
      </trkpt>
      <trkpt lat="41.95954" lon="20.98058">
        <ele>477.966617</ele>
        <time>2022-04-24T09:38:39.735Z</time>
      </trkpt>
      <trkpt lat="41.95943" lon="20.98062">
        <ele>477.881609</ele>
        <time>2022-04-24T09:38:41.717Z</time>
      </trkpt>
      <trkpt lat="41.95932" lon="20.98066">
        <ele>477.788912</ele>
        <time>2022-04-24T09:38:43.696Z</time>
      </trkpt>
      <trkpt lat="41.95921" lon="20.98069">
        <ele>477.699992</ele>
        <time>2022-04-24T09:38:45.699Z</time>
      </trkpt>
      <trkpt lat="41.95909" lon="20.98073">
        <ele>477.610587</ele>
        <time>2022-04-24T09:38:47.712Z</time>
      </trkpt>
      <trkpt lat="41.95898" lon="20.98076">
        <ele>477.523078</ele>
        <time>2022-04-24T09:38:49.715Z</time>
      </trkpt>
      <trkpt lat="41.95888" lon="20.9808">
        <ele>477.342517</ele>
        <time>2022-04-24T09:38:51.700Z</time>
      </trkpt>
      <trkpt lat="41.95877" lon="20.98083">
        <ele>477.146778</ele>
        <time>2022-04-24T09:38:53.736Z</time>
      </trkpt>
      <trkpt lat="41.95867" lon="20.98087">
        <ele>476.959807</ele>
        <time>2022-04-24T09:38:55.718Z</time>
      </trkpt>
      <trkpt lat="41.95857" lon="20.9809">
        <ele>476.775258</ele>
        <time>2022-04-24T09:38:57.730Z</time>
      </trkpt>
      <trkpt lat="41.95848" lon="20.98094">
        <ele>476.594214</ele>
        <time>2022-04-24T09:38:59.741Z</time>
      </trkpt>
      <trkpt lat="41.95838" lon="20.98097">
        <ele>476.417642</ele>
        <time>2022-04-24T09:39:01.693Z</time>
      </trkpt>
      <trkpt lat="41.95828" lon="20.981">
        <ele>476.234843</ele>
        <time>2022-04-24T09:39:03.715Z</time>
      </trkpt>
      <trkpt lat="41.95819" lon="20.98103">
        <ele>476.059717</ele>
        <time>2022-04-24T09:39:05.731Z</time>
      </trkpt>
      <trkpt lat="41.95809" lon="20.98106">
        <ele>475.884265</ele>
        <time>2022-04-24T09:39:07.724Z</time>
      </trkpt>
      <trkpt lat="41.958" lon="20.9811">
        <ele>475.699382</ele>
        <time>2022-04-24T09:39:09.723Z</time>
      </trkpt>
      <trkpt lat="41.95789" lon="20.98113">
        <ele>475.5084</ele>
        <time>2022-04-24T09:39:11.709Z</time>
      </trkpt>
      <trkpt lat="41.95779" lon="20.98116">
        <ele>475.318882</ele>
        <time>2022-04-24T09:39:13.750Z</time>
      </trkpt>
      <trkpt lat="41.95769" lon="20.98119">
        <ele>475.135411</ele>
        <time>2022-04-24T09:39:15.701Z</time>
      </trkpt>
      <trkpt lat="41.9576" lon="20.98123">
        <ele>474.955783</ele>
        <time>2022-04-24T09:39:17.743Z</time>
      </trkpt>
      <trkpt lat="41.9575" lon="20.98126">
        <ele>474.778038</ele>
        <time>2022-04-24T09:39:19.703Z</time>
      </trkpt>
      <trkpt lat="41.9574" lon="20.98128">
        <ele>474.600294</ele>
        <time>2022-04-24T09:39:21.714Z</time>
      </trkpt>
      <trkpt lat="41.95726" lon="20.98134">
        <ele>474.330851</ele>
        <time>2022-04-24T09:39:24.734Z</time>
      </trkpt>
      <trkpt lat="41.95716" lon="20.98137">
        <ele>474.234362</ele>
        <time>2022-04-24T09:39:26.715Z</time>
      </trkpt>
      <trkpt lat="41.95707" lon="20.9814">
        <ele>474.202833</ele>
        <time>2022-04-24T09:39:28.721Z</time>
      </trkpt>
      <trkpt lat="41.95697" lon="20.98143">
        <ele>474.172028</ele>
        <time>2022-04-24T09:39:30.698Z</time>
      </trkpt>
      <trkpt lat="41.95688" lon="20.98146">
        <ele>474.141278</ele>
        <time>2022-04-24T09:39:32.711Z</time>
      </trkpt>
      <trkpt lat="41.95678" lon="20.98149">
        <ele>474.10986</ele>
        <time>2022-04-24T09:39:34.717Z</time>
      </trkpt>
      <trkpt lat="41.95668" lon="20.98153">
        <ele>474.078273</ele>
        <time>2022-04-24T09:39:36.726Z</time>
      </trkpt>
      <trkpt lat="41.95658" lon="20.98156">
        <ele>474.046438</ele>
        <time>2022-04-24T09:39:38.710Z</time>
      </trkpt>
      <trkpt lat="41.95649" lon="20.98159">
        <ele>474.015633</ele>
        <time>2022-04-24T09:39:40.715Z</time>
      </trkpt>
      <trkpt lat="41.95639" lon="20.98162">
        <ele>473.983397</ele>
        <time>2022-04-24T09:39:42.706Z</time>
      </trkpt>
      <trkpt lat="41.95629" lon="20.98165">
        <ele>473.951006</ele>
        <time>2022-04-24T09:39:44.714Z</time>
      </trkpt>
      <trkpt lat="41.95619" lon="20.98168">
        <ele>473.917947</ele>
        <time>2022-04-24T09:39:46.721Z</time>
      </trkpt>
      <trkpt lat="41.95609" lon="20.98171">
        <ele>473.887658</ele>
        <time>2022-04-24T09:39:48.711Z</time>
      </trkpt>
      <trkpt lat="41.95601" lon="20.98174">
        <ele>473.859107</ele>
        <time>2022-04-24T09:39:50.723Z</time>
      </trkpt>
      <trkpt lat="41.95587" lon="20.98178">
        <ele>473.81652</ele>
        <time>2022-04-24T09:39:53.721Z</time>
      </trkpt>
      <trkpt lat="41.95575" lon="20.98182">
        <ele>473.775557</ele>
        <time>2022-04-24T09:39:56.710Z</time>
      </trkpt>
      <trkpt lat="41.95562" lon="20.98186">
        <ele>473.733426</ele>
        <time>2022-04-24T09:39:59.694Z</time>
      </trkpt>
      <trkpt lat="41.95553" lon="20.9819">
        <ele>473.70403</ele>
        <time>2022-04-24T09:40:01.719Z</time>
      </trkpt>
      <trkpt lat="41.95543" lon="20.98193">
        <ele>473.687644</ele>
        <time>2022-04-24T09:40:03.718Z</time>
      </trkpt>
      <trkpt lat="41.95534" lon="20.98196">
        <ele>473.693749</ele>
        <time>2022-04-24T09:40:05.711Z</time>
      </trkpt>
      <trkpt lat="41.95524" lon="20.982">
        <ele>473.699865</ele>
        <time>2022-04-24T09:40:07.706Z</time>
      </trkpt>
      <trkpt lat="41.95515" lon="20.98203">
        <ele>473.705998</ele>
        <time>2022-04-24T09:40:09.704Z</time>
      </trkpt>
      <trkpt lat="41.95505" lon="20.98206">
        <ele>473.712355</ele>
        <time>2022-04-24T09:40:11.690Z</time>
      </trkpt>
      <trkpt lat="41.95495" lon="20.9821">
        <ele>473.718808</ele>
        <time>2022-04-24T09:40:13.741Z</time>
      </trkpt>
      <trkpt lat="41.95485" lon="20.98214">
        <ele>473.725227</ele>
        <time>2022-04-24T09:40:15.734Z</time>
      </trkpt>
      <trkpt lat="41.95475" lon="20.98217">
        <ele>473.731633</ele>
        <time>2022-04-24T09:40:17.707Z</time>
      </trkpt>
      <trkpt lat="41.95466" lon="20.9822">
        <ele>473.737678</ele>
        <time>2022-04-24T09:40:19.699Z</time>
      </trkpt>
      <trkpt lat="41.95455" lon="20.98224">
        <ele>473.744145</ele>
        <time>2022-04-24T09:40:21.718Z</time>
      </trkpt>
      <trkpt lat="41.95446" lon="20.98227">
        <ele>473.750491</ele>
        <time>2022-04-24T09:40:23.707Z</time>
      </trkpt>
      <trkpt lat="41.95436" lon="20.98231">
        <ele>473.756513</ele>
        <time>2022-04-24T09:40:25.709Z</time>
      </trkpt>
      <trkpt lat="41.95427" lon="20.98234">
        <ele>473.762738</ele>
        <time>2022-04-24T09:40:27.685Z</time>
      </trkpt>
      <trkpt lat="41.95417" lon="20.98237">
        <ele>473.769156</ele>
        <time>2022-04-24T09:40:29.707Z</time>
      </trkpt>
      <trkpt lat="41.95407" lon="20.98241">
        <ele>473.775321</ele>
        <time>2022-04-24T09:40:31.712Z</time>
      </trkpt>
      <trkpt lat="41.95397" lon="20.98244">
        <ele>473.781727</ele>
        <time>2022-04-24T09:40:33.704Z</time>
      </trkpt>
      <trkpt lat="41.95387" lon="20.98247">
        <ele>473.787849</ele>
        <time>2022-04-24T09:40:35.730Z</time>
      </trkpt>
      <trkpt lat="41.95377" lon="20.9825">
        <ele>473.794224</ele>
        <time>2022-04-24T09:40:37.702Z</time>
      </trkpt>
      <trkpt lat="41.95367" lon="20.98253">
        <ele>473.824167</ele>
        <time>2022-04-24T09:40:39.728Z</time>
      </trkpt>
      <trkpt lat="41.95357" lon="20.98256">
        <ele>473.869599</ele>
        <time>2022-04-24T09:40:41.712Z</time>
      </trkpt>
      <trkpt lat="41.95348" lon="20.98259">
        <ele>473.912673</ele>
        <time>2022-04-24T09:40:43.727Z</time>
      </trkpt>
      <trkpt lat="41.95339" lon="20.98262">
        <ele>473.956728</ele>
        <time>2022-04-24T09:40:45.708Z</time>
      </trkpt>
      <trkpt lat="41.9533" lon="20.98266">
        <ele>474.002121</ele>
        <time>2022-04-24T09:40:47.714Z</time>
      </trkpt>
      <trkpt lat="41.9532" lon="20.98269">
        <ele>474.048407</ele>
        <time>2022-04-24T09:40:49.757Z</time>
      </trkpt>
      <trkpt lat="41.9531" lon="20.98273">
        <ele>474.095673</ele>
        <time>2022-04-24T09:40:51.736Z</time>
      </trkpt>
      <trkpt lat="41.953" lon="20.98276">
        <ele>474.143508</ele>
        <time>2022-04-24T09:40:53.721Z</time>
      </trkpt>
      <trkpt lat="41.9529" lon="20.98279">
        <ele>474.191195</ele>
        <time>2022-04-24T09:40:55.713Z</time>
      </trkpt>
      <trkpt lat="41.9528" lon="20.98282">
        <ele>474.237232</ele>
        <time>2022-04-24T09:40:57.695Z</time>
      </trkpt>
      <trkpt lat="41.95271" lon="20.98285">
        <ele>474.282005</ele>
        <time>2022-04-24T09:40:59.711Z</time>
      </trkpt>
      <trkpt lat="41.95261" lon="20.98288">
        <ele>474.327674</ele>
        <time>2022-04-24T09:41:01.717Z</time>
      </trkpt>
      <trkpt lat="41.95252" lon="20.98292">
        <ele>474.373248</ele>
        <time>2022-04-24T09:41:03.714Z</time>
      </trkpt>
      <trkpt lat="41.95242" lon="20.98295">
        <ele>474.417938</ele>
        <time>2022-04-24T09:41:05.726Z</time>
      </trkpt>
      <trkpt lat="41.95233" lon="20.98299">
        <ele>474.463361</ele>
        <time>2022-04-24T09:41:07.717Z</time>
      </trkpt>
      <trkpt lat="41.95223" lon="20.98302">
        <ele>474.509569</ele>
        <time>2022-04-24T09:41:09.726Z</time>
      </trkpt>
      <trkpt lat="41.95213" lon="20.98306">
        <ele>474.556217</ele>
        <time>2022-04-24T09:41:11.734Z</time>
      </trkpt>
      <trkpt lat="41.95204" lon="20.98309">
        <ele>474.602865</ele>
        <time>2022-04-24T09:41:13.716Z</time>
      </trkpt>
      <trkpt lat="41.95193" lon="20.98312">
        <ele>474.61397</ele>
        <time>2022-04-24T09:41:15.699Z</time>
      </trkpt>
      <trkpt lat="41.95184" lon="20.98315">
        <ele>474.588862</ele>
        <time>2022-04-24T09:41:17.708Z</time>
      </trkpt>
      <trkpt lat="41.95175" lon="20.98318">
        <ele>474.564021</ele>
        <time>2022-04-24T09:41:19.707Z</time>
      </trkpt>
      <trkpt lat="41.95166" lon="20.98321">
        <ele>474.538263</ele>
        <time>2022-04-24T09:41:21.706Z</time>
      </trkpt>
      <trkpt lat="41.95157" lon="20.98324">
        <ele>474.51358</ele>
        <time>2022-04-24T09:41:23.721Z</time>
      </trkpt>
      <trkpt lat="41.95148" lon="20.98327">
        <ele>474.489088</ele>
        <time>2022-04-24T09:41:25.719Z</time>
      </trkpt>
      <trkpt lat="41.95138" lon="20.9833">
        <ele>474.464246</ele>
        <time>2022-04-24T09:41:27.714Z</time>
      </trkpt>
      <trkpt lat="41.95129" lon="20.98333">
        <ele>474.439404</ele>
        <time>2022-04-24T09:41:29.710Z</time>
      </trkpt>
      <trkpt lat="41.9512" lon="20.98336">
        <ele>474.414047</ele>
        <time>2022-04-24T09:41:31.694Z</time>
      </trkpt>
      <trkpt lat="41.95111" lon="20.98339">
        <ele>474.389463</ele>
        <time>2022-04-24T09:41:33.750Z</time>
      </trkpt>
      <trkpt lat="41.95102" lon="20.98342">
        <ele>474.363892</ele>
        <time>2022-04-24T09:41:35.702Z</time>
      </trkpt>
      <trkpt lat="41.95092" lon="20.98344">
        <ele>474.338926</ele>
        <time>2022-04-24T09:41:37.707Z</time>
      </trkpt>
      <trkpt lat="41.95083" lon="20.98347">
        <ele>474.31413</ele>
        <time>2022-04-24T09:41:39.728Z</time>
      </trkpt>
      <trkpt lat="41.95075" lon="20.9835">
        <ele>474.290011</ele>
        <time>2022-04-24T09:41:41.709Z</time>
      </trkpt>
      <trkpt lat="41.95066" lon="20.98354">
        <ele>474.265818</ele>
        <time>2022-04-24T09:41:43.719Z</time>
      </trkpt>
      <trkpt lat="41.95056" lon="20.98358">
        <ele>474.238776</ele>
        <time>2022-04-24T09:41:45.731Z</time>
      </trkpt>
      <trkpt lat="41.95046" lon="20.98361">
        <ele>474.210445</ele>
        <time>2022-04-24T09:41:47.717Z</time>
      </trkpt>
      <trkpt lat="41.95036" lon="20.98365">
        <ele>474.183097</ele>
        <time>2022-04-24T09:41:49.736Z</time>
      </trkpt>
      <trkpt lat="41.95026" lon="20.98368">
        <ele>474.156616</ele>
        <time>2022-04-24T09:41:51.742Z</time>
      </trkpt>
      <trkpt lat="41.95017" lon="20.98371">
        <ele>474.194945</ele>
        <time>2022-04-24T09:41:53.703Z</time>
      </trkpt>
      <trkpt lat="41.95007" lon="20.98374">
        <ele>474.253436</ele>
        <time>2022-04-24T09:41:55.715Z</time>
      </trkpt>
      <trkpt lat="41.94998" lon="20.98377">
        <ele>474.312833</ele>
        <time>2022-04-24T09:41:57.702Z</time>
      </trkpt>
      <trkpt lat="41.94988" lon="20.98381">
        <ele>474.372592</ele>
        <time>2022-04-24T09:41:59.723Z</time>
      </trkpt>
      <trkpt lat="41.94978" lon="20.98384">
        <ele>474.431298</ele>
        <time>2022-04-24T09:42:01.708Z</time>
      </trkpt>
      <trkpt lat="41.94969" lon="20.98387">
        <ele>474.488735</ele>
        <time>2022-04-24T09:42:03.718Z</time>
      </trkpt>
      <trkpt lat="41.9496" lon="20.9839">
        <ele>474.546751</ele>
        <time>2022-04-24T09:42:05.712Z</time>
      </trkpt>
      <trkpt lat="41.9495" lon="20.98393">
        <ele>474.603392</ele>
        <time>2022-04-24T09:42:07.711Z</time>
      </trkpt>
      <trkpt lat="41.94941" lon="20.98396">
        <ele>474.660513</ele>
        <time>2022-04-24T09:42:09.710Z</time>
      </trkpt>
      <trkpt lat="41.94932" lon="20.98399">
        <ele>474.719585</ele>
        <time>2022-04-24T09:42:11.695Z</time>
      </trkpt>
      <trkpt lat="41.94922" lon="20.98402">
        <ele>474.777494</ele>
        <time>2022-04-24T09:42:13.714Z</time>
      </trkpt>
      <trkpt lat="41.94913" lon="20.98406">
        <ele>474.836548</ele>
        <time>2022-04-24T09:42:15.706Z</time>
      </trkpt>
      <trkpt lat="41.94903" lon="20.98409">
        <ele>474.895518</ele>
        <time>2022-04-24T09:42:17.716Z</time>
      </trkpt>
      <trkpt lat="41.94893" lon="20.98412">
        <ele>474.956725</ele>
        <time>2022-04-24T09:42:19.721Z</time>
      </trkpt>
      <trkpt lat="41.94883" lon="20.98415">
        <ele>475.016011</ele>
        <time>2022-04-24T09:42:21.716Z</time>
      </trkpt>
      <trkpt lat="41.94874" lon="20.98418">
        <ele>475.073816</ele>
        <time>2022-04-24T09:42:23.709Z</time>
      </trkpt>
      <trkpt lat="41.94865" lon="20.98422">
        <ele>475.130447</ele>
        <time>2022-04-24T09:42:25.739Z</time>
      </trkpt>
      <trkpt lat="41.94856" lon="20.98425">
        <ele>475.187653</ele>
        <time>2022-04-24T09:42:27.727Z</time>
      </trkpt>
      <trkpt lat="41.94846" lon="20.98429">
        <ele>475.240922</ele>
        <time>2022-04-24T09:42:29.783Z</time>
      </trkpt>
      <trkpt lat="41.94836" lon="20.98432">
        <ele>475.281097</ele>
        <time>2022-04-24T09:42:31.725Z</time>
      </trkpt>
      <trkpt lat="41.94826" lon="20.98435">
        <ele>475.320239</ele>
        <time>2022-04-24T09:42:33.693Z</time>
      </trkpt>
      <trkpt lat="41.94816" lon="20.98439">
        <ele>475.362592</ele>
        <time>2022-04-24T09:42:35.711Z</time>
      </trkpt>
      <trkpt lat="41.94807" lon="20.98442">
        <ele>475.398703</ele>
        <time>2022-04-24T09:42:37.729Z</time>
      </trkpt>
      <trkpt lat="41.94797" lon="20.98445">
        <ele>475.436851</ele>
        <time>2022-04-24T09:42:39.716Z</time>
      </trkpt>
      <trkpt lat="41.94788" lon="20.98448">
        <ele>475.472902</ele>
        <time>2022-04-24T09:42:41.685Z</time>
      </trkpt>
      <trkpt lat="41.94779" lon="20.98451">
        <ele>475.508312</ele>
        <time>2022-04-24T09:42:43.732Z</time>
      </trkpt>
      <trkpt lat="41.94767" lon="20.98454">
        <ele>475.556937</ele>
        <time>2022-04-24T09:42:46.693Z</time>
      </trkpt>
      <trkpt lat="41.94758" lon="20.98457">
        <ele>475.592233</ele>
        <time>2022-04-24T09:42:48.703Z</time>
      </trkpt>
      <trkpt lat="41.94749" lon="20.9846">
        <ele>475.627226</ele>
        <time>2022-04-24T09:42:50.707Z</time>
      </trkpt>
      <trkpt lat="41.94736" lon="20.98465">
        <ele>475.679794</ele>
        <time>2022-04-24T09:42:53.715Z</time>
      </trkpt>
      <trkpt lat="41.94727" lon="20.98468">
        <ele>475.716292</ele>
        <time>2022-04-24T09:42:55.741Z</time>
      </trkpt>
      <trkpt lat="41.94715" lon="20.98473">
        <ele>475.767131</ele>
        <time>2022-04-24T09:42:58.734Z</time>
      </trkpt>
      <trkpt lat="41.94702" lon="20.98477">
        <ele>475.819424</ele>
        <time>2022-04-24T09:43:01.729Z</time>
      </trkpt>
      <trkpt lat="41.94693" lon="20.98478">
        <ele>475.854513</ele>
        <time>2022-04-24T09:43:03.701Z</time>
      </trkpt>
      <trkpt lat="41.94683" lon="20.98476">
        <ele>475.892088</ele>
        <time>2022-04-24T09:43:05.702Z</time>
      </trkpt>
      <trkpt lat="41.94674" lon="20.98473">
        <ele>475.933385</ele>
        <time>2022-04-24T09:43:07.722Z</time>
      </trkpt>
      <trkpt lat="41.94665" lon="20.98469">
        <ele>476.042887</ele>
        <time>2022-04-24T09:43:09.759Z</time>
      </trkpt>
      <trkpt lat="41.94656" lon="20.98466">
        <ele>476.154321</ele>
        <time>2022-04-24T09:43:11.717Z</time>
      </trkpt>
      <trkpt lat="41.94646" lon="20.98463">
        <ele>476.265075</ele>
        <time>2022-04-24T09:43:13.731Z</time>
      </trkpt>
      <trkpt lat="41.94637" lon="20.98459">
        <ele>476.374711</ele>
        <time>2022-04-24T09:43:15.703Z</time>
      </trkpt>
      <trkpt lat="41.94628" lon="20.98455">
        <ele>476.486431</ele>
        <time>2022-04-24T09:43:17.722Z</time>
      </trkpt>
      <trkpt lat="41.94619" lon="20.98452">
        <ele>476.59696</ele>
        <time>2022-04-24T09:43:19.705Z</time>
      </trkpt>
      <trkpt lat="41.94609" lon="20.98449">
        <ele>476.713321</ele>
        <time>2022-04-24T09:43:21.711Z</time>
      </trkpt>
      <trkpt lat="41.946" lon="20.98445">
        <ele>476.823678</ele>
        <time>2022-04-24T09:43:23.745Z</time>
      </trkpt>
      <trkpt lat="41.94591" lon="20.98441">
        <ele>476.934813</ele>
        <time>2022-04-24T09:43:25.727Z</time>
      </trkpt>
      <trkpt lat="41.94582" lon="20.98438">
        <ele>477.0458</ele>
        <time>2022-04-24T09:43:27.699Z</time>
      </trkpt>
      <trkpt lat="41.94573" lon="20.98434">
        <ele>477.155436</ele>
        <time>2022-04-24T09:43:29.706Z</time>
      </trkpt>
      <trkpt lat="41.94564" lon="20.9843">
        <ele>477.266842</ele>
        <time>2022-04-24T09:43:31.696Z</time>
      </trkpt>
      <trkpt lat="41.94554" lon="20.98426">
        <ele>477.378818</ele>
        <time>2022-04-24T09:43:33.725Z</time>
      </trkpt>
      <trkpt lat="41.94544" lon="20.98423">
        <ele>477.497867</ele>
        <time>2022-04-24T09:43:35.703Z</time>
      </trkpt>
      <trkpt lat="41.94534" lon="20.98419">
        <ele>477.61852</ele>
        <time>2022-04-24T09:43:37.719Z</time>
      </trkpt>
      <trkpt lat="41.94525" lon="20.98416">
        <ele>477.734255</ele>
        <time>2022-04-24T09:43:39.705Z</time>
      </trkpt>
      <trkpt lat="41.94515" lon="20.98413">
        <ele>477.854424</ele>
        <time>2022-04-24T09:43:41.710Z</time>
      </trkpt>
      <trkpt lat="41.94505" lon="20.98409">
        <ele>477.973935</ele>
        <time>2022-04-24T09:43:43.719Z</time>
      </trkpt>
      <trkpt lat="41.94495" lon="20.98405">
        <ele>478.035125</ele>
        <time>2022-04-24T09:43:45.739Z</time>
      </trkpt>
      <trkpt lat="41.94486" lon="20.98402">
        <ele>478.067157</ele>
        <time>2022-04-24T09:43:47.690Z</time>
      </trkpt>
      <trkpt lat="41.94476" lon="20.98398">
        <ele>478.098685</ele>
        <time>2022-04-24T09:43:49.699Z</time>
      </trkpt>
      <trkpt lat="41.94467" lon="20.98395">
        <ele>478.129339</ele>
        <time>2022-04-24T09:43:51.713Z</time>
      </trkpt>
      <trkpt lat="41.94458" lon="20.98391">
        <ele>478.16238</ele>
        <time>2022-04-24T09:43:53.721Z</time>
      </trkpt>
      <trkpt lat="41.94448" lon="20.98388">
        <ele>478.19624</ele>
        <time>2022-04-24T09:43:55.720Z</time>
      </trkpt>
      <trkpt lat="41.94438" lon="20.98384">
        <ele>478.229471</ele>
        <time>2022-04-24T09:43:57.727Z</time>
      </trkpt>
      <trkpt lat="41.94428" lon="20.9838">
        <ele>478.261658</ele>
        <time>2022-04-24T09:43:59.704Z</time>
      </trkpt>
      <trkpt lat="41.94419" lon="20.98375">
        <ele>478.294705</ele>
        <time>2022-04-24T09:44:01.712Z</time>
      </trkpt>
      <trkpt lat="41.94409" lon="20.9837">
        <ele>478.329597</ele>
        <time>2022-04-24T09:44:03.724Z</time>
      </trkpt>
      <trkpt lat="41.94398" lon="20.98367">
        <ele>478.365474</ele>
        <time>2022-04-24T09:44:05.696Z</time>
      </trkpt>
      <trkpt lat="41.94388" lon="20.98363">
        <ele>478.40025</ele>
        <time>2022-04-24T09:44:07.734Z</time>
      </trkpt>
      <trkpt lat="41.94378" lon="20.9836">
        <ele>478.433669</ele>
        <time>2022-04-24T09:44:09.719Z</time>
      </trkpt>
      <trkpt lat="41.94368" lon="20.98356">
        <ele>478.466026</ele>
        <time>2022-04-24T09:44:11.714Z</time>
      </trkpt>
      <trkpt lat="41.94359" lon="20.98352">
        <ele>478.498943</ele>
        <time>2022-04-24T09:44:13.722Z</time>
      </trkpt>
      <trkpt lat="41.9435" lon="20.98349">
        <ele>478.529739</ele>
        <time>2022-04-24T09:44:15.723Z</time>
      </trkpt>
      <trkpt lat="41.94341" lon="20.98345">
        <ele>478.561305</ele>
        <time>2022-04-24T09:44:17.734Z</time>
      </trkpt>
      <trkpt lat="41.94331" lon="20.98341">
        <ele>478.593147</ele>
        <time>2022-04-24T09:44:19.728Z</time>
      </trkpt>
      <trkpt lat="41.94322" lon="20.98338">
        <ele>478.66303</ele>
        <time>2022-04-24T09:44:21.713Z</time>
      </trkpt>
      <trkpt lat="41.94313" lon="20.98334">
        <ele>478.74426</ele>
        <time>2022-04-24T09:44:23.710Z</time>
      </trkpt>
      <trkpt lat="41.94303" lon="20.98331">
        <ele>478.825683</ele>
        <time>2022-04-24T09:44:25.700Z</time>
      </trkpt>
      <trkpt lat="41.94294" lon="20.98328">
        <ele>478.905605</ele>
        <time>2022-04-24T09:44:27.711Z</time>
      </trkpt>
      <trkpt lat="41.94284" lon="20.98325">
        <ele>478.991316</ele>
        <time>2022-04-24T09:44:29.709Z</time>
      </trkpt>
      <trkpt lat="41.94274" lon="20.98322">
        <ele>479.078466</ele>
        <time>2022-04-24T09:44:31.735Z</time>
      </trkpt>
      <trkpt lat="41.94265" lon="20.98318">
        <ele>479.160354</ele>
        <time>2022-04-24T09:44:33.721Z</time>
      </trkpt>
      <trkpt lat="41.94256" lon="20.98315">
        <ele>479.240478</ele>
        <time>2022-04-24T09:44:35.724Z</time>
      </trkpt>
      <trkpt lat="41.94247" lon="20.98311">
        <ele>479.318976</ele>
        <time>2022-04-24T09:44:37.742Z</time>
      </trkpt>
      <trkpt lat="41.94238" lon="20.98307">
        <ele>479.400551</ele>
        <time>2022-04-24T09:44:39.730Z</time>
      </trkpt>
      <trkpt lat="41.94229" lon="20.98303">
        <ele>479.485117</ele>
        <time>2022-04-24T09:44:41.730Z</time>
      </trkpt>
      <trkpt lat="41.94219" lon="20.983">
        <ele>479.566347</ele>
        <time>2022-04-24T09:44:43.713Z</time>
      </trkpt>
      <trkpt lat="41.9421" lon="20.98297">
        <ele>479.649574</ele>
        <time>2022-04-24T09:44:45.697Z</time>
      </trkpt>
      <trkpt lat="41.94201" lon="20.98294">
        <ele>479.731682</ele>
        <time>2022-04-24T09:44:47.710Z</time>
      </trkpt>
      <trkpt lat="41.94191" lon="20.98291">
        <ele>479.812585</ele>
        <time>2022-04-24T09:44:49.711Z</time>
      </trkpt>
      <trkpt lat="41.94182" lon="20.98287">
        <ele>479.895715</ele>
        <time>2022-04-24T09:44:51.704Z</time>
      </trkpt>
      <trkpt lat="41.94173" lon="20.98283">
        <ele>479.976839</ele>
        <time>2022-04-24T09:44:53.715Z</time>
      </trkpt>
      <trkpt lat="41.94163" lon="20.98279">
        <ele>480.061522</ele>
        <time>2022-04-24T09:44:55.714Z</time>
      </trkpt>
      <trkpt lat="41.94154" lon="20.98276">
        <ele>480.136041</ele>
        <time>2022-04-24T09:44:57.745Z</time>
      </trkpt>
      <trkpt lat="41.94145" lon="20.98273">
        <ele>480.160856</ele>
        <time>2022-04-24T09:44:59.723Z</time>
      </trkpt>
      <trkpt lat="41.94136" lon="20.98269">
        <ele>480.184576</ele>
        <time>2022-04-24T09:45:01.727Z</time>
      </trkpt>
      <trkpt lat="41.94127" lon="20.98266">
        <ele>480.207846</ele>
        <time>2022-04-24T09:45:03.714Z</time>
      </trkpt>
      <trkpt lat="41.94118" lon="20.98263">
        <ele>480.231965</ele>
        <time>2022-04-24T09:45:05.710Z</time>
      </trkpt>
      <trkpt lat="41.94109" lon="20.9826">
        <ele>480.255296</ele>
        <time>2022-04-24T09:45:07.708Z</time>
      </trkpt>
      <trkpt lat="41.94097" lon="20.98255">
        <ele>480.289739</ele>
        <time>2022-04-24T09:45:10.710Z</time>
      </trkpt>
      <trkpt lat="41.94084" lon="20.9825">
        <ele>480.323744</ele>
        <time>2022-04-24T09:45:13.722Z</time>
      </trkpt>
      <trkpt lat="41.94075" lon="20.98246">
        <ele>480.347286</ele>
        <time>2022-04-24T09:45:15.702Z</time>
      </trkpt>
      <trkpt lat="41.94066" lon="20.98243">
        <ele>480.371706</ele>
        <time>2022-04-24T09:45:17.711Z</time>
      </trkpt>
      <trkpt lat="41.94057" lon="20.98239">
        <ele>480.395248</ele>
        <time>2022-04-24T09:45:19.712Z</time>
      </trkpt>
      <trkpt lat="41.94049" lon="20.98235">
        <ele>480.419282</ele>
        <time>2022-04-24T09:45:21.706Z</time>
      </trkpt>
      <trkpt lat="41.9404" lon="20.98232">
        <ele>480.443454</ele>
        <time>2022-04-24T09:45:23.712Z</time>
      </trkpt>
      <trkpt lat="41.94031" lon="20.98228">
        <ele>480.467324</ele>
        <time>2022-04-24T09:45:25.704Z</time>
      </trkpt>
      <trkpt lat="41.94021" lon="20.98225">
        <ele>480.492293</ele>
        <time>2022-04-24T09:45:27.740Z</time>
      </trkpt>
      <trkpt lat="41.94012" lon="20.98221">
        <ele>480.517068</ele>
        <time>2022-04-24T09:45:29.711Z</time>
      </trkpt>
      <trkpt lat="41.94003" lon="20.98217">
        <ele>480.541984</ele>
        <time>2022-04-24T09:45:31.705Z</time>
      </trkpt>
      <trkpt lat="41.93993" lon="20.98214">
        <ele>480.567397</ele>
        <time>2022-04-24T09:45:33.752Z</time>
      </trkpt>
      <trkpt lat="41.93984" lon="20.98211">
        <ele>480.592164</ele>
        <time>2022-04-24T09:45:35.729Z</time>
      </trkpt>
      <trkpt lat="41.93975" lon="20.98208">
        <ele>480.684544</ele>
        <time>2022-04-24T09:45:37.719Z</time>
      </trkpt>
      <trkpt lat="41.93965" lon="20.98205">
        <ele>480.804126</ele>
        <time>2022-04-24T09:45:39.727Z</time>
      </trkpt>
      <trkpt lat="41.93955" lon="20.98202">
        <ele>480.921242</ele>
        <time>2022-04-24T09:45:41.733Z</time>
      </trkpt>
      <trkpt lat="41.93946" lon="20.98199">
        <ele>481.038021</ele>
        <time>2022-04-24T09:45:43.704Z</time>
      </trkpt>
      <trkpt lat="41.93937" lon="20.98195">
        <ele>481.146495</ele>
        <time>2022-04-24T09:45:45.733Z</time>
      </trkpt>
      <trkpt lat="41.93928" lon="20.98191">
        <ele>481.25353</ele>
        <time>2022-04-24T09:45:47.694Z</time>
      </trkpt>
      <trkpt lat="41.93919" lon="20.98187">
        <ele>481.35974</ele>
        <time>2022-04-24T09:45:49.712Z</time>
      </trkpt>
      <trkpt lat="41.9391" lon="20.98184">
        <ele>481.468849</ele>
        <time>2022-04-24T09:45:51.702Z</time>
      </trkpt>
      <trkpt lat="41.93898" lon="20.98179">
        <ele>481.615476</ele>
        <time>2022-04-24T09:45:54.710Z</time>
      </trkpt>
      <trkpt lat="41.9389" lon="20.98175">
        <ele>481.721219</ele>
        <time>2022-04-24T09:45:56.710Z</time>
      </trkpt>
      <trkpt lat="41.93881" lon="20.98171">
        <ele>481.830471</ele>
        <time>2022-04-24T09:45:58.707Z</time>
      </trkpt>
      <trkpt lat="41.93871" lon="20.98167">
        <ele>481.950259</ele>
        <time>2022-04-24T09:46:00.713Z</time>
      </trkpt>
      <trkpt lat="41.93861" lon="20.98163">
        <ele>482.072904</ele>
        <time>2022-04-24T09:46:02.718Z</time>
      </trkpt>
      <trkpt lat="41.93851" lon="20.98159">
        <ele>482.198033</ele>
        <time>2022-04-24T09:46:04.707Z</time>
      </trkpt>
      <trkpt lat="41.9384" lon="20.98155">
        <ele>482.324047</ele>
        <time>2022-04-24T09:46:06.741Z</time>
      </trkpt>
      <trkpt lat="41.9383" lon="20.98152">
        <ele>482.449387</ele>
        <time>2022-04-24T09:46:08.726Z</time>
      </trkpt>
      <trkpt lat="41.9382" lon="20.98148">
        <ele>482.572919</ele>
        <time>2022-04-24T09:46:10.695Z</time>
      </trkpt>
      <trkpt lat="41.9381" lon="20.98144">
        <ele>482.688116</ele>
        <time>2022-04-24T09:46:12.707Z</time>
      </trkpt>
      <trkpt lat="41.938" lon="20.98141">
        <ele>482.648653</ele>
        <time>2022-04-24T09:46:14.713Z</time>
      </trkpt>
      <trkpt lat="41.93791" lon="20.98137">
        <ele>482.598833</ele>
        <time>2022-04-24T09:46:16.699Z</time>
      </trkpt>
      <trkpt lat="41.93781" lon="20.98133">
        <ele>482.5488</ele>
        <time>2022-04-24T09:46:18.706Z</time>
      </trkpt>
      <trkpt lat="41.93772" lon="20.9813">
        <ele>482.499183</ele>
        <time>2022-04-24T09:46:20.711Z</time>
      </trkpt>
      <trkpt lat="41.93762" lon="20.98126">
        <ele>482.448982</ele>
        <time>2022-04-24T09:46:22.711Z</time>
      </trkpt>
      <trkpt lat="41.93753" lon="20.98123">
        <ele>482.39878</ele>
        <time>2022-04-24T09:46:24.729Z</time>
      </trkpt>
      <trkpt lat="41.93744" lon="20.98119">
        <ele>482.350782</ele>
        <time>2022-04-24T09:46:26.728Z</time>
      </trkpt>
      <trkpt lat="41.93734" lon="20.98115">
        <ele>482.300857</ele>
        <time>2022-04-24T09:46:28.694Z</time>
      </trkpt>
      <trkpt lat="41.93725" lon="20.98111">
        <ele>482.252378</ele>
        <time>2022-04-24T09:46:30.694Z</time>
      </trkpt>
      <trkpt lat="41.93712" lon="20.98106">
        <ele>482.185825</ele>
        <time>2022-04-24T09:46:33.710Z</time>
      </trkpt>
      <trkpt lat="41.93703" lon="20.98103">
        <ele>482.139705</ele>
        <time>2022-04-24T09:46:35.727Z</time>
      </trkpt>
      <trkpt lat="41.93694" lon="20.98099">
        <ele>482.09106</ele>
        <time>2022-04-24T09:46:37.721Z</time>
      </trkpt>
      <trkpt lat="41.93684" lon="20.98096">
        <ele>482.039683</ele>
        <time>2022-04-24T09:46:39.703Z</time>
      </trkpt>
      <trkpt lat="41.93674" lon="20.98093">
        <ele>481.988121</ele>
        <time>2022-04-24T09:46:41.711Z</time>
      </trkpt>
      <trkpt lat="41.93664" lon="20.98089">
        <ele>481.936261</ele>
        <time>2022-04-24T09:46:43.705Z</time>
      </trkpt>
      <trkpt lat="41.93655" lon="20.98085">
        <ele>481.884885</ele>
        <time>2022-04-24T09:46:45.710Z</time>
      </trkpt>
      <trkpt lat="41.93645" lon="20.98081">
        <ele>481.834684</ele>
        <time>2022-04-24T09:46:47.731Z</time>
      </trkpt>
      <trkpt lat="41.93636" lon="20.98078">
        <ele>481.790157</ele>
        <time>2022-04-24T09:46:49.710Z</time>
      </trkpt>
      <trkpt lat="41.93626" lon="20.98074">
        <ele>481.793377</ele>
        <time>2022-04-24T09:46:51.715Z</time>
      </trkpt>
      <trkpt lat="41.93616" lon="20.9807">
        <ele>481.796506</ele>
        <time>2022-04-24T09:46:53.728Z</time>
      </trkpt>
      <trkpt lat="41.93606" lon="20.98067">
        <ele>481.799653</ele>
        <time>2022-04-24T09:46:55.723Z</time>
      </trkpt>
      <trkpt lat="41.93597" lon="20.98063">
        <ele>481.802849</ele>
        <time>2022-04-24T09:46:57.715Z</time>
      </trkpt>
      <trkpt lat="41.93587" lon="20.98059">
        <ele>481.805899</ele>
        <time>2022-04-24T09:46:59.703Z</time>
      </trkpt>
      <trkpt lat="41.93575" lon="20.98054">
        <ele>481.809954</ele>
        <time>2022-04-24T09:47:02.705Z</time>
      </trkpt>
      <trkpt lat="41.93566" lon="20.98051">
        <ele>481.81281</ele>
        <time>2022-04-24T09:47:04.723Z</time>
      </trkpt>
      <trkpt lat="41.93557" lon="20.98047">
        <ele>481.815897</ele>
        <time>2022-04-24T09:47:06.710Z</time>
      </trkpt>
      <trkpt lat="41.93547" lon="20.98044">
        <ele>481.819037</ele>
        <time>2022-04-24T09:47:08.721Z</time>
      </trkpt>
      <trkpt lat="41.93537" lon="20.9804">
        <ele>481.822094</ele>
        <time>2022-04-24T09:47:10.710Z</time>
      </trkpt>
      <trkpt lat="41.93528" lon="20.98036">
        <ele>481.825296</ele>
        <time>2022-04-24T09:47:12.711Z</time>
      </trkpt>
      <trkpt lat="41.93518" lon="20.98032">
        <ele>481.828396</ele>
        <time>2022-04-24T09:47:14.722Z</time>
      </trkpt>
      <trkpt lat="41.93508" lon="20.98028">
        <ele>481.831748</ele>
        <time>2022-04-24T09:47:16.722Z</time>
      </trkpt>
      <trkpt lat="41.93498" lon="20.98025">
        <ele>481.834961</ele>
        <time>2022-04-24T09:47:18.718Z</time>
      </trkpt>
      <trkpt lat="41.93488" lon="20.98021">
        <ele>481.838072</ele>
        <time>2022-04-24T09:47:20.711Z</time>
      </trkpt>
      <trkpt lat="41.93479" lon="20.98017">
        <ele>481.841165</ele>
        <time>2022-04-24T09:47:22.707Z</time>
      </trkpt>
      <trkpt lat="41.93469" lon="20.98014">
        <ele>481.844245</ele>
        <time>2022-04-24T09:47:24.702Z</time>
      </trkpt>
      <trkpt lat="41.9346" lon="20.98011">
        <ele>481.850325</ele>
        <time>2022-04-24T09:47:26.731Z</time>
      </trkpt>
      <trkpt lat="41.9345" lon="20.98007">
        <ele>481.860768</ele>
        <time>2022-04-24T09:47:28.731Z</time>
      </trkpt>
      <trkpt lat="41.93441" lon="20.98004">
        <ele>481.871501</ele>
        <time>2022-04-24T09:47:30.718Z</time>
      </trkpt>
      <trkpt lat="41.93431" lon="20.98">
        <ele>481.88215</ele>
        <time>2022-04-24T09:47:32.718Z</time>
      </trkpt>
      <trkpt lat="41.93422" lon="20.97997">
        <ele>481.892387</ele>
        <time>2022-04-24T09:47:34.704Z</time>
      </trkpt>
      <trkpt lat="41.9341" lon="20.97991">
        <ele>481.906037</ele>
        <time>2022-04-24T09:47:37.733Z</time>
      </trkpt>
      <trkpt lat="41.93397" lon="20.97986">
        <ele>481.920322</ele>
        <time>2022-04-24T09:47:40.711Z</time>
      </trkpt>
      <trkpt lat="41.93386" lon="20.97982">
        <ele>481.932007</ele>
        <time>2022-04-24T09:47:42.698Z</time>
      </trkpt>
      <trkpt lat="41.93376" lon="20.97978">
        <ele>481.943778</ele>
        <time>2022-04-24T09:47:44.722Z</time>
      </trkpt>
      <trkpt lat="41.93365" lon="20.97975">
        <ele>481.955201</ele>
        <time>2022-04-24T09:47:46.700Z</time>
      </trkpt>
      <trkpt lat="41.93356" lon="20.97972">
        <ele>481.965975</ele>
        <time>2022-04-24T09:47:48.694Z</time>
      </trkpt>
      <trkpt lat="41.93346" lon="20.97968">
        <ele>481.977038</ele>
        <time>2022-04-24T09:47:50.720Z</time>
      </trkpt>
      <trkpt lat="41.93336" lon="20.97965">
        <ele>481.987895</ele>
        <time>2022-04-24T09:47:52.713Z</time>
      </trkpt>
      <trkpt lat="41.93326" lon="20.97961">
        <ele>481.998668</ele>
        <time>2022-04-24T09:47:54.710Z</time>
      </trkpt>
      <trkpt lat="41.93316" lon="20.97957">
        <ele>482.009464</ele>
        <time>2022-04-24T09:47:56.705Z</time>
      </trkpt>
      <trkpt lat="41.93307" lon="20.97953">
        <ele>482.020406</ele>
        <time>2022-04-24T09:47:58.705Z</time>
      </trkpt>
      <trkpt lat="41.93297" lon="20.9795">
        <ele>482.031035</ele>
        <time>2022-04-24T09:48:00.714Z</time>
      </trkpt>
      <trkpt lat="41.93288" lon="20.97946">
        <ele>482.0535</ele>
        <time>2022-04-24T09:48:02.698Z</time>
      </trkpt>
      <trkpt lat="41.93279" lon="20.97943">
        <ele>482.104752</ele>
        <time>2022-04-24T09:48:04.699Z</time>
      </trkpt>
      <trkpt lat="41.93266" lon="20.97937">
        <ele>482.178329</ele>
        <time>2022-04-24T09:48:07.706Z</time>
      </trkpt>
      <trkpt lat="41.93253" lon="20.97933">
        <ele>482.250062</ele>
        <time>2022-04-24T09:48:10.713Z</time>
      </trkpt>
      <trkpt lat="41.93241" lon="20.97929">
        <ele>482.315706</ele>
        <time>2022-04-24T09:48:13.715Z</time>
      </trkpt>
      <trkpt lat="41.93229" lon="20.97924">
        <ele>482.387249</ele>
        <time>2022-04-24T09:48:16.723Z</time>
      </trkpt>
      <trkpt lat="41.9322" lon="20.97921">
        <ele>482.436161</ele>
        <time>2022-04-24T09:48:18.697Z</time>
      </trkpt>
      <trkpt lat="41.93211" lon="20.97917">
        <ele>482.488753</ele>
        <time>2022-04-24T09:48:20.695Z</time>
      </trkpt>
      <trkpt lat="41.93201" lon="20.97914">
        <ele>482.54198</ele>
        <time>2022-04-24T09:48:22.701Z</time>
      </trkpt>
      <trkpt lat="41.93189" lon="20.97909">
        <ele>482.612364</ele>
        <time>2022-04-24T09:48:25.706Z</time>
      </trkpt>
      <trkpt lat="41.93177" lon="20.97905">
        <ele>482.678735</ele>
        <time>2022-04-24T09:48:28.710Z</time>
      </trkpt>
      <trkpt lat="41.93168" lon="20.97901">
        <ele>482.729431</ele>
        <time>2022-04-24T09:48:30.714Z</time>
      </trkpt>
      <trkpt lat="41.93159" lon="20.97898">
        <ele>482.781391</ele>
        <time>2022-04-24T09:48:32.706Z</time>
      </trkpt>
      <trkpt lat="41.93149" lon="20.97894">
        <ele>482.835558</ele>
        <time>2022-04-24T09:48:34.712Z</time>
      </trkpt>
      <trkpt lat="41.9314" lon="20.97891">
        <ele>482.88815</ele>
        <time>2022-04-24T09:48:36.703Z</time>
      </trkpt>
      <trkpt lat="41.9313" lon="20.97888">
        <ele>482.941293</ele>
        <time>2022-04-24T09:48:38.710Z</time>
      </trkpt>
      <trkpt lat="41.93121" lon="20.97884">
        <ele>482.992314</ele>
        <time>2022-04-24T09:48:40.730Z</time>
      </trkpt>
      <trkpt lat="41.93112" lon="20.97881">
        <ele>483.040888</ele>
        <time>2022-04-24T09:48:42.702Z</time>
      </trkpt>
      <trkpt lat="41.93103" lon="20.97877">
        <ele>483.086627</ele>
        <time>2022-04-24T09:48:44.702Z</time>
      </trkpt>
      <trkpt lat="41.93094" lon="20.97874">
        <ele>483.131102</ele>
        <time>2022-04-24T09:48:46.715Z</time>
      </trkpt>
      <trkpt lat="41.93085" lon="20.9787">
        <ele>483.175324</ele>
        <time>2022-04-24T09:48:48.730Z</time>
      </trkpt>
      <trkpt lat="41.93075" lon="20.97867">
        <ele>483.221155</ele>
        <time>2022-04-24T09:48:50.701Z</time>
      </trkpt>
      <trkpt lat="41.93066" lon="20.97863">
        <ele>483.265988</ele>
        <time>2022-04-24T09:48:52.718Z</time>
      </trkpt>
      <trkpt lat="41.93057" lon="20.9786">
        <ele>483.309643</ele>
        <time>2022-04-24T09:48:54.707Z</time>
      </trkpt>
      <trkpt lat="41.93048" lon="20.97857">
        <ele>483.353669</ele>
        <time>2022-04-24T09:48:56.704Z</time>
      </trkpt>
      <trkpt lat="41.93039" lon="20.97854">
        <ele>483.395872</ele>
        <time>2022-04-24T09:48:58.709Z</time>
      </trkpt>
      <trkpt lat="41.93031" lon="20.97851">
        <ele>483.438443</ele>
        <time>2022-04-24T09:49:00.730Z</time>
      </trkpt>
      <trkpt lat="41.93022" lon="20.97847">
        <ele>483.483015</ele>
        <time>2022-04-24T09:49:02.698Z</time>
      </trkpt>
      <trkpt lat="41.93012" lon="20.97844">
        <ele>483.527587</ele>
        <time>2022-04-24T09:49:04.720Z</time>
      </trkpt>
      <trkpt lat="41.93003" lon="20.9784">
        <ele>483.573965</ele>
        <time>2022-04-24T09:49:06.708Z</time>
      </trkpt>
      <trkpt lat="41.9299" lon="20.97835">
        <ele>483.635501</ele>
        <time>2022-04-24T09:49:09.733Z</time>
      </trkpt>
      <trkpt lat="41.92979" lon="20.97831">
        <ele>483.692429</ele>
        <time>2022-04-24T09:49:12.709Z</time>
      </trkpt>
      <trkpt lat="41.9297" lon="20.97827">
        <ele>483.735904</ele>
        <time>2022-04-24T09:49:14.706Z</time>
      </trkpt>
      <trkpt lat="41.92957" lon="20.97822">
        <ele>483.801086</ele>
        <time>2022-04-24T09:49:17.697Z</time>
      </trkpt>
      <trkpt lat="41.92947" lon="20.97818">
        <ele>483.84737</ele>
        <time>2022-04-24T09:49:19.716Z</time>
      </trkpt>
      <trkpt lat="41.92937" lon="20.97815">
        <ele>483.939485</ele>
        <time>2022-04-24T09:49:21.709Z</time>
      </trkpt>
      <trkpt lat="41.92927" lon="20.97811">
        <ele>484.056536</ele>
        <time>2022-04-24T09:49:23.735Z</time>
      </trkpt>
      <trkpt lat="41.92918" lon="20.97808">
        <ele>484.170515</ele>
        <time>2022-04-24T09:49:25.716Z</time>
      </trkpt>
      <trkpt lat="41.92908" lon="20.97804">
        <ele>484.281625</ele>
        <time>2022-04-24T09:49:27.713Z</time>
      </trkpt>
      <trkpt lat="41.92899" lon="20.97801">
        <ele>484.390774</ele>
        <time>2022-04-24T09:49:29.720Z</time>
      </trkpt>
      <trkpt lat="41.9289" lon="20.97797">
        <ele>484.498234</ele>
        <time>2022-04-24T09:49:31.713Z</time>
      </trkpt>
      <trkpt lat="41.92881" lon="20.97793">
        <ele>484.606922</ele>
        <time>2022-04-24T09:49:33.710Z</time>
      </trkpt>
      <trkpt lat="41.92872" lon="20.9779">
        <ele>484.714742</ele>
        <time>2022-04-24T09:49:35.697Z</time>
      </trkpt>
      <trkpt lat="41.92863" lon="20.97786">
        <ele>484.820139</ele>
        <time>2022-04-24T09:49:37.706Z</time>
      </trkpt>
      <trkpt lat="41.9285" lon="20.97781">
        <ele>484.973216</ele>
        <time>2022-04-24T09:49:40.710Z</time>
      </trkpt>
      <trkpt lat="41.92841" lon="20.97778">
        <ele>485.076423</ele>
        <time>2022-04-24T09:49:42.694Z</time>
      </trkpt>
      <trkpt lat="41.92832" lon="20.97774">
        <ele>485.18247</ele>
        <time>2022-04-24T09:49:44.716Z</time>
      </trkpt>
      <trkpt lat="41.92823" lon="20.97771">
        <ele>485.288517</ele>
        <time>2022-04-24T09:49:46.709Z</time>
      </trkpt>
      <trkpt lat="41.92815" lon="20.97768">
        <ele>485.391264</ele>
        <time>2022-04-24T09:49:48.716Z</time>
      </trkpt>
      <trkpt lat="41.92802" lon="20.97763">
        <ele>485.542251</ele>
        <time>2022-04-24T09:49:51.727Z</time>
      </trkpt>
      <trkpt lat="41.9279" lon="20.97758">
        <ele>485.688631</ele>
        <time>2022-04-24T09:49:54.696Z</time>
      </trkpt>
      <trkpt lat="41.92777" lon="20.97753">
        <ele>485.84266</ele>
        <time>2022-04-24T09:49:57.755Z</time>
      </trkpt>
      <trkpt lat="41.92768" lon="20.9775">
        <ele>485.928066</ele>
        <time>2022-04-24T09:49:59.718Z</time>
      </trkpt>
      <trkpt lat="41.92755" lon="20.97745">
        <ele>485.999358</ele>
        <time>2022-04-24T09:50:02.694Z</time>
      </trkpt>
      <trkpt lat="41.92747" lon="20.97741">
        <ele>486.048033</ele>
        <time>2022-04-24T09:50:04.723Z</time>
      </trkpt>
      <trkpt lat="41.92737" lon="20.97738">
        <ele>486.101265</ele>
        <time>2022-04-24T09:50:06.720Z</time>
      </trkpt>
      <trkpt lat="41.92727" lon="20.97734">
        <ele>486.156383</ele>
        <time>2022-04-24T09:50:08.706Z</time>
      </trkpt>
      <trkpt lat="41.92718" lon="20.9773">
        <ele>486.211392</ele>
        <time>2022-04-24T09:50:10.719Z</time>
      </trkpt>
      <trkpt lat="41.92708" lon="20.97726">
        <ele>486.266623</ele>
        <time>2022-04-24T09:50:12.699Z</time>
      </trkpt>
      <trkpt lat="41.92698" lon="20.97723">
        <ele>486.320483</ele>
        <time>2022-04-24T09:50:14.709Z</time>
      </trkpt>
      <trkpt lat="41.92689" lon="20.97719">
        <ele>486.373193</ele>
        <time>2022-04-24T09:50:16.712Z</time>
      </trkpt>
      <trkpt lat="41.9268" lon="20.97716">
        <ele>486.423305</ele>
        <time>2022-04-24T09:50:18.712Z</time>
      </trkpt>
      <trkpt lat="41.92671" lon="20.97712">
        <ele>486.474454</ele>
        <time>2022-04-24T09:50:20.732Z</time>
      </trkpt>
      <trkpt lat="41.92662" lon="20.97709">
        <ele>486.523826</ele>
        <time>2022-04-24T09:50:22.730Z</time>
      </trkpt>
      <trkpt lat="41.92649" lon="20.97703">
        <ele>486.596309</ele>
        <time>2022-04-24T09:50:25.706Z</time>
      </trkpt>
      <trkpt lat="41.9264" lon="20.97699">
        <ele>486.648321</ele>
        <time>2022-04-24T09:50:27.714Z</time>
      </trkpt>
      <trkpt lat="41.92631" lon="20.97695">
        <ele>486.701603</ele>
        <time>2022-04-24T09:50:29.700Z</time>
      </trkpt>
      <trkpt lat="41.92621" lon="20.97691">
        <ele>486.758503</ele>
        <time>2022-04-24T09:50:31.707Z</time>
      </trkpt>
      <trkpt lat="41.92611" lon="20.97688">
        <ele>486.814553</ele>
        <time>2022-04-24T09:50:33.721Z</time>
      </trkpt>
      <trkpt lat="41.926" lon="20.97684">
        <ele>486.87301</ele>
        <time>2022-04-24T09:50:35.712Z</time>
      </trkpt>
      <trkpt lat="41.9259" lon="20.97679">
        <ele>486.844805</ele>
        <time>2022-04-24T09:50:37.742Z</time>
      </trkpt>
      <trkpt lat="41.92579" lon="20.97675">
        <ele>486.795894</ele>
        <time>2022-04-24T09:50:39.717Z</time>
      </trkpt>
      <trkpt lat="41.92569" lon="20.97671">
        <ele>486.749773</ele>
        <time>2022-04-24T09:50:41.711Z</time>
      </trkpt>
      <trkpt lat="41.9256" lon="20.97667">
        <ele>486.704698</ele>
        <time>2022-04-24T09:50:43.729Z</time>
      </trkpt>
      <trkpt lat="41.9255" lon="20.97663">
        <ele>486.660058</ele>
        <time>2022-04-24T09:50:45.719Z</time>
      </trkpt>
      <trkpt lat="41.9254" lon="20.97659">
        <ele>486.613208</ele>
        <time>2022-04-24T09:50:47.701Z</time>
      </trkpt>
      <trkpt lat="41.92529" lon="20.97656">
        <ele>486.563422</ele>
        <time>2022-04-24T09:50:49.712Z</time>
      </trkpt>
      <trkpt lat="41.92518" lon="20.97652">
        <ele>486.514169</ele>
        <time>2022-04-24T09:50:51.714Z</time>
      </trkpt>
      <trkpt lat="41.92508" lon="20.97648">
        <ele>486.465346</ele>
        <time>2022-04-24T09:50:53.699Z</time>
      </trkpt>
      <trkpt lat="41.92498" lon="20.97644">
        <ele>486.419865</ele>
        <time>2022-04-24T09:50:55.718Z</time>
      </trkpt>
      <trkpt lat="41.92488" lon="20.9764">
        <ele>486.373514</ele>
        <time>2022-04-24T09:50:57.732Z</time>
      </trkpt>
      <trkpt lat="41.92478" lon="20.97636">
        <ele>486.327007</ele>
        <time>2022-04-24T09:50:59.748Z</time>
      </trkpt>
      <trkpt lat="41.92468" lon="20.97632">
        <ele>486.279468</ele>
        <time>2022-04-24T09:51:01.719Z</time>
      </trkpt>
      <trkpt lat="41.92458" lon="20.97628">
        <ele>486.233021</ele>
        <time>2022-04-24T09:51:03.720Z</time>
      </trkpt>
      <trkpt lat="41.92448" lon="20.97624">
        <ele>486.187616</ele>
        <time>2022-04-24T09:51:05.699Z</time>
      </trkpt>
      <trkpt lat="41.92438" lon="20.9762">
        <ele>486.141358</ele>
        <time>2022-04-24T09:51:07.709Z</time>
      </trkpt>
      <trkpt lat="41.92428" lon="20.97616">
        <ele>486.095708</ele>
        <time>2022-04-24T09:51:09.696Z</time>
      </trkpt>
      <trkpt lat="41.92418" lon="20.97613">
        <ele>486.123354</ele>
        <time>2022-04-24T09:51:11.703Z</time>
      </trkpt>
      <trkpt lat="41.92409" lon="20.97609">
        <ele>486.172907</ele>
        <time>2022-04-24T09:51:13.718Z</time>
      </trkpt>
      <trkpt lat="41.92399" lon="20.97605">
        <ele>486.222262</ele>
        <time>2022-04-24T09:51:15.708Z</time>
      </trkpt>
      <trkpt lat="41.92389" lon="20.97602">
        <ele>486.271918</ele>
        <time>2022-04-24T09:51:17.702Z</time>
      </trkpt>
      <trkpt lat="41.92379" lon="20.97598">
        <ele>486.322711</ele>
        <time>2022-04-24T09:51:19.704Z</time>
      </trkpt>
      <trkpt lat="41.9237" lon="20.97594">
        <ele>486.373219</ele>
        <time>2022-04-24T09:51:21.736Z</time>
      </trkpt>
      <trkpt lat="41.9236" lon="20.97591">
        <ele>486.422875</ele>
        <time>2022-04-24T09:51:23.717Z</time>
      </trkpt>
      <trkpt lat="41.92351" lon="20.97587">
        <ele>486.471214</ele>
        <time>2022-04-24T09:51:25.715Z</time>
      </trkpt>
      <trkpt lat="41.92341" lon="20.97583">
        <ele>486.521084</ele>
        <time>2022-04-24T09:51:27.718Z</time>
      </trkpt>
      <trkpt lat="41.92331" lon="20.97579">
        <ele>486.571797</ele>
        <time>2022-04-24T09:51:29.703Z</time>
      </trkpt>
      <trkpt lat="41.92322" lon="20.97575">
        <ele>486.622034</ele>
        <time>2022-04-24T09:51:31.727Z</time>
      </trkpt>
      <trkpt lat="41.92312" lon="20.97571">
        <ele>486.673222</ele>
        <time>2022-04-24T09:51:33.723Z</time>
      </trkpt>
      <trkpt lat="41.92302" lon="20.97567">
        <ele>486.72373</ele>
        <time>2022-04-24T09:51:35.703Z</time>
      </trkpt>
      <trkpt lat="41.92292" lon="20.97564">
        <ele>486.773761</ele>
        <time>2022-04-24T09:51:37.722Z</time>
      </trkpt>
      <trkpt lat="41.92283" lon="20.9756">
        <ele>486.823692</ele>
        <time>2022-04-24T09:51:39.690Z</time>
      </trkpt>
      <trkpt lat="41.92273" lon="20.97556">
        <ele>486.872768</ele>
        <time>2022-04-24T09:51:41.715Z</time>
      </trkpt>
      <trkpt lat="41.92263" lon="20.97552">
        <ele>486.92253</ele>
        <time>2022-04-24T09:51:43.713Z</time>
      </trkpt>
      <trkpt lat="41.92254" lon="20.97549">
        <ele>486.972083</ele>
        <time>2022-04-24T09:51:45.729Z</time>
      </trkpt>
      <trkpt lat="41.92245" lon="20.97545">
        <ele>487.056113</ele>
        <time>2022-04-24T09:51:47.703Z</time>
      </trkpt>
      <trkpt lat="41.92235" lon="20.97542">
        <ele>487.145283</ele>
        <time>2022-04-24T09:51:49.714Z</time>
      </trkpt>
      <trkpt lat="41.92226" lon="20.97538">
        <ele>487.233758</ele>
        <time>2022-04-24T09:51:51.719Z</time>
      </trkpt>
      <trkpt lat="41.92217" lon="20.97534">
        <ele>487.321168</ele>
        <time>2022-04-24T09:51:53.737Z</time>
      </trkpt>
      <trkpt lat="41.92207" lon="20.97531">
        <ele>487.4091</ele>
        <time>2022-04-24T09:51:55.713Z</time>
      </trkpt>
      <trkpt lat="41.92198" lon="20.97527">
        <ele>487.494678</ele>
        <time>2022-04-24T09:51:57.694Z</time>
      </trkpt>
      <trkpt lat="41.9219" lon="20.97523">
        <ele>487.578307</ele>
        <time>2022-04-24T09:51:59.697Z</time>
      </trkpt>
      <trkpt lat="41.92181" lon="20.97519">
        <ele>487.664966</ele>
        <time>2022-04-24T09:52:01.728Z</time>
      </trkpt>
      <trkpt lat="41.92171" lon="20.97516">
        <ele>487.756265</ele>
        <time>2022-04-24T09:52:03.703Z</time>
      </trkpt>
      <trkpt lat="41.92162" lon="20.97512">
        <ele>487.847379</ele>
        <time>2022-04-24T09:52:05.713Z</time>
      </trkpt>
      <trkpt lat="41.92152" lon="20.97508">
        <ele>487.939746</ele>
        <time>2022-04-24T09:52:07.722Z</time>
      </trkpt>
      <trkpt lat="41.92142" lon="20.97504">
        <ele>488.033181</ele>
        <time>2022-04-24T09:52:09.702Z</time>
      </trkpt>
      <trkpt lat="41.92133" lon="20.97501">
        <ele>488.12399</ele>
        <time>2022-04-24T09:52:11.709Z</time>
      </trkpt>
      <trkpt lat="41.92123" lon="20.97497">
        <ele>488.212465</ele>
        <time>2022-04-24T09:52:13.720Z</time>
      </trkpt>
      <trkpt lat="41.92113" lon="20.97493">
        <ele>488.3059</ele>
        <time>2022-04-24T09:52:15.748Z</time>
      </trkpt>
      <trkpt lat="41.92104" lon="20.9749">
        <ele>488.397543</ele>
        <time>2022-04-24T09:52:17.711Z</time>
      </trkpt>
      <trkpt lat="41.92094" lon="20.97486">
        <ele>488.486018</ele>
        <time>2022-04-24T09:52:19.710Z</time>
      </trkpt>
      <trkpt lat="41.92085" lon="20.97482">
        <ele>488.573808</ele>
        <time>2022-04-24T09:52:21.722Z</time>
      </trkpt>
      <trkpt lat="41.92076" lon="20.97479">
        <ele>488.630378</ele>
        <time>2022-04-24T09:52:23.737Z</time>
      </trkpt>
      <trkpt lat="41.92067" lon="20.97476">
        <ele>488.649902</ele>
        <time>2022-04-24T09:52:25.718Z</time>
      </trkpt>
      <trkpt lat="41.92058" lon="20.97472">
        <ele>488.669034</ele>
        <time>2022-04-24T09:52:27.715Z</time>
      </trkpt>
      <trkpt lat="41.92049" lon="20.97469">
        <ele>488.68857</ele>
        <time>2022-04-24T09:52:29.702Z</time>
      </trkpt>
      <trkpt lat="41.92039" lon="20.97465">
        <ele>488.708605</ele>
        <time>2022-04-24T09:52:31.702Z</time>
      </trkpt>
      <trkpt lat="41.9203" lon="20.97461">
        <ele>488.728335</ele>
        <time>2022-04-24T09:52:33.715Z</time>
      </trkpt>
      <trkpt lat="41.9202" lon="20.97457">
        <ele>488.749193</ele>
        <time>2022-04-24T09:52:35.709Z</time>
      </trkpt>
      <trkpt lat="41.92011" lon="20.97454">
        <ele>488.76856</ele>
        <time>2022-04-24T09:52:37.719Z</time>
      </trkpt>
      <trkpt lat="41.92002" lon="20.97451">
        <ele>488.787578</ele>
        <time>2022-04-24T09:52:39.699Z</time>
      </trkpt>
      <trkpt lat="41.91992" lon="20.97447">
        <ele>488.807591</ele>
        <time>2022-04-24T09:52:41.697Z</time>
      </trkpt>
      <trkpt lat="41.91983" lon="20.97443">
        <ele>488.827668</ele>
        <time>2022-04-24T09:52:43.754Z</time>
      </trkpt>
      <trkpt lat="41.91974" lon="20.97439">
        <ele>488.847076</ele>
        <time>2022-04-24T09:52:45.713Z</time>
      </trkpt>
      <trkpt lat="41.91964" lon="20.97436">
        <ele>488.866568</ele>
        <time>2022-04-24T09:52:47.714Z</time>
      </trkpt>
      <trkpt lat="41.91955" lon="20.97432">
        <ele>488.88645</ele>
        <time>2022-04-24T09:52:49.713Z</time>
      </trkpt>
      <trkpt lat="41.91946" lon="20.97428">
        <ele>488.905359</ele>
        <time>2022-04-24T09:52:51.711Z</time>
      </trkpt>
      <trkpt lat="41.91934" lon="20.97423">
        <ele>488.93192</ele>
        <time>2022-04-24T09:52:54.704Z</time>
      </trkpt>
      <trkpt lat="41.91921" lon="20.97418">
        <ele>488.959285</ele>
        <time>2022-04-24T09:52:57.712Z</time>
      </trkpt>
      <trkpt lat="41.91908" lon="20.97414">
        <ele>488.986179</ele>
        <time>2022-04-24T09:53:00.709Z</time>
      </trkpt>
      <trkpt lat="41.91896" lon="20.97409">
        <ele>489.073649</ele>
        <time>2022-04-24T09:53:03.715Z</time>
      </trkpt>
      <trkpt lat="41.91885" lon="20.97404">
        <ele>489.159003</ele>
        <time>2022-04-24T09:53:06.715Z</time>
      </trkpt>
      <trkpt lat="41.91876" lon="20.974">
        <ele>489.233196</ele>
        <time>2022-04-24T09:53:09.711Z</time>
      </trkpt>
      <trkpt lat="41.91866" lon="20.97396">
        <ele>489.311788</ele>
        <time>2022-04-24T09:53:13.746Z</time>
      </trkpt>
      <trkpt lat="41.91854" lon="20.97393">
        <ele>489.4036</ele>
        <time>2022-04-24T09:54:24.725Z</time>
      </trkpt>
      <trkpt lat="41.91843" lon="20.97391">
        <ele>489.483622</ele>
        <time>2022-04-24T09:54:29.720Z</time>
      </trkpt>
      <trkpt lat="41.91832" lon="20.97387">
        <ele>489.569791</ele>
        <time>2022-04-24T09:54:33.719Z</time>
      </trkpt>
      <trkpt lat="41.91823" lon="20.97382">
        <ele>489.646247</ele>
        <time>2022-04-24T09:54:36.720Z</time>
      </trkpt>
      <trkpt lat="41.91812" lon="20.97378">
        <ele>489.728511</ele>
        <time>2022-04-24T09:54:39.735Z</time>
      </trkpt>
      <trkpt lat="41.91802" lon="20.97374">
        <ele>489.810125</ele>
        <time>2022-04-24T09:54:42.709Z</time>
      </trkpt>
      <trkpt lat="41.9179" lon="20.9737">
        <ele>489.897016</ele>
        <time>2022-04-24T09:54:45.730Z</time>
      </trkpt>
      <trkpt lat="41.91779" lon="20.97366">
        <ele>489.984345</ele>
        <time>2022-04-24T09:54:48.723Z</time>
      </trkpt>
      <trkpt lat="41.91768" lon="20.97363">
        <ele>490.069688</ele>
        <time>2022-04-24T09:54:51.706Z</time>
      </trkpt>
      <trkpt lat="41.91757" lon="20.97358">
        <ele>490.155921</ele>
        <time>2022-04-24T09:54:54.712Z</time>
      </trkpt>
      <trkpt lat="41.91746" lon="20.97354">
        <ele>490.24209</ele>
        <time>2022-04-24T09:54:57.704Z</time>
      </trkpt>
      <trkpt lat="41.91735" lon="20.9735">
        <ele>490.328836</ele>
        <time>2022-04-24T09:55:00.709Z</time>
      </trkpt>
      <trkpt lat="41.91724" lon="20.97346">
        <ele>490.386362</ele>
        <time>2022-04-24T09:55:03.719Z</time>
      </trkpt>
      <trkpt lat="41.91713" lon="20.97341">
        <ele>490.444254</ele>
        <time>2022-04-24T09:55:06.714Z</time>
      </trkpt>
      <trkpt lat="41.91702" lon="20.97337">
        <ele>490.500803</ele>
        <time>2022-04-24T09:55:09.709Z</time>
      </trkpt>
      <trkpt lat="41.91691" lon="20.97332">
        <ele>490.557425</ele>
        <time>2022-04-24T09:55:12.694Z</time>
      </trkpt>
      <trkpt lat="41.9168" lon="20.97328">
        <ele>490.616758</ele>
        <time>2022-04-24T09:55:15.715Z</time>
      </trkpt>
      <trkpt lat="41.91668" lon="20.97324">
        <ele>490.67879</ele>
        <time>2022-04-24T09:55:18.725Z</time>
      </trkpt>
      <trkpt lat="41.91655" lon="20.97321">
        <ele>490.742445</ele>
        <time>2022-04-24T09:55:21.704Z</time>
      </trkpt>
      <trkpt lat="41.91643" lon="20.97315">
        <ele>490.807061</ele>
        <time>2022-04-24T09:55:24.735Z</time>
      </trkpt>
      <trkpt lat="41.9163" lon="20.9731">
        <ele>490.874541</ele>
        <time>2022-04-24T09:55:27.708Z</time>
      </trkpt>
      <trkpt lat="41.91621" lon="20.97307">
        <ele>490.92005</ele>
        <time>2022-04-24T09:55:29.715Z</time>
      </trkpt>
      <trkpt lat="41.91612" lon="20.97303">
        <ele>490.966439</ele>
        <time>2022-04-24T09:55:31.709Z</time>
      </trkpt>
      <trkpt lat="41.91604" lon="20.973">
        <ele>491.012677</ele>
        <time>2022-04-24T09:55:33.730Z</time>
      </trkpt>
      <trkpt lat="41.91595" lon="20.97297">
        <ele>491.059064</ele>
        <time>2022-04-24T09:55:35.734Z</time>
      </trkpt>
      <trkpt lat="41.91586" lon="20.97293">
        <ele>491.104973</ele>
        <time>2022-04-24T09:55:37.707Z</time>
      </trkpt>
      <trkpt lat="41.91577" lon="20.9729">
        <ele>491.150402</ele>
        <time>2022-04-24T09:55:39.716Z</time>
      </trkpt>
      <trkpt lat="41.91565" lon="20.97285">
        <ele>491.214853</ele>
        <time>2022-04-24T09:55:42.711Z</time>
      </trkpt>
      <trkpt lat="41.91556" lon="20.97282">
        <ele>491.246988</ele>
        <time>2022-04-24T09:55:44.709Z</time>
      </trkpt>
      <trkpt lat="41.91547" lon="20.97279">
        <ele>491.271159</ele>
        <time>2022-04-24T09:55:46.757Z</time>
      </trkpt>
      <trkpt lat="41.91538" lon="20.97275">
        <ele>491.294936</ele>
        <time>2022-04-24T09:55:48.719Z</time>
      </trkpt>
      <trkpt lat="41.91525" lon="20.9727">
        <ele>491.329103</ele>
        <time>2022-04-24T09:55:51.712Z</time>
      </trkpt>
      <trkpt lat="41.91516" lon="20.97267">
        <ele>491.352271</ele>
        <time>2022-04-24T09:55:53.707Z</time>
      </trkpt>
      <trkpt lat="41.91504" lon="20.97261">
        <ele>491.386548</ele>
        <time>2022-04-24T09:55:56.726Z</time>
      </trkpt>
      <trkpt lat="41.91495" lon="20.97257">
        <ele>491.410446</ele>
        <time>2022-04-24T09:55:58.722Z</time>
      </trkpt>
      <trkpt lat="41.91485" lon="20.97254">
        <ele>491.434719</ele>
        <time>2022-04-24T09:56:00.708Z</time>
      </trkpt>
      <trkpt lat="41.91476" lon="20.97251">
        <ele>491.458792</ele>
        <time>2022-04-24T09:56:02.687Z</time>
      </trkpt>
      <trkpt lat="41.91467" lon="20.97248">
        <ele>491.482683</ele>
        <time>2022-04-24T09:56:04.740Z</time>
      </trkpt>
      <trkpt lat="41.91459" lon="20.97245">
        <ele>491.505817</ele>
        <time>2022-04-24T09:56:06.714Z</time>
      </trkpt>
      <trkpt lat="41.91445" lon="20.9724">
        <ele>491.540884</ele>
        <time>2022-04-24T09:56:09.718Z</time>
      </trkpt>
      <trkpt lat="41.91436" lon="20.97236">
        <ele>491.5655</ele>
        <time>2022-04-24T09:56:11.720Z</time>
      </trkpt>
      <trkpt lat="41.91426" lon="20.97233">
        <ele>491.5915</ele>
        <time>2022-04-24T09:56:13.707Z</time>
      </trkpt>
      <trkpt lat="41.91417" lon="20.97229">
        <ele>491.617154</ele>
        <time>2022-04-24T09:56:15.718Z</time>
      </trkpt>
      <trkpt lat="41.91407" lon="20.97226">
        <ele>491.642513</ele>
        <time>2022-04-24T09:56:17.710Z</time>
      </trkpt>
      <trkpt lat="41.91398" lon="20.97222">
        <ele>491.666544</ele>
        <time>2022-04-24T09:56:19.699Z</time>
      </trkpt>
      <trkpt lat="41.91389" lon="20.97219">
        <ele>491.691066</ele>
        <time>2022-04-24T09:56:21.707Z</time>
      </trkpt>
      <trkpt lat="41.9138" lon="20.97215">
        <ele>491.690549</ele>
        <time>2022-04-24T09:56:23.719Z</time>
      </trkpt>
      <trkpt lat="41.91371" lon="20.97212">
        <ele>491.687432</ele>
        <time>2022-04-24T09:56:25.719Z</time>
      </trkpt>
      <trkpt lat="41.91362" lon="20.97209">
        <ele>491.684393</ele>
        <time>2022-04-24T09:56:27.751Z</time>
      </trkpt>
      <trkpt lat="41.91349" lon="20.97204">
        <ele>491.67992</ele>
        <time>2022-04-24T09:56:30.721Z</time>
      </trkpt>
      <trkpt lat="41.91337" lon="20.97199">
        <ele>491.675556</ele>
        <time>2022-04-24T09:56:33.719Z</time>
      </trkpt>
      <trkpt lat="41.91324" lon="20.97194">
        <ele>491.671045</ele>
        <time>2022-04-24T09:56:36.728Z</time>
      </trkpt>
      <trkpt lat="41.91315" lon="20.97191">
        <ele>491.66796</ele>
        <time>2022-04-24T09:56:38.721Z</time>
      </trkpt>
      <trkpt lat="41.91306" lon="20.97188">
        <ele>491.664876</ele>
        <time>2022-04-24T09:56:40.709Z</time>
      </trkpt>
      <trkpt lat="41.91297" lon="20.97184">
        <ele>491.661848</ele>
        <time>2022-04-24T09:56:42.721Z</time>
      </trkpt>
      <trkpt lat="41.91288" lon="20.97181">
        <ele>491.658821</ele>
        <time>2022-04-24T09:56:44.710Z</time>
      </trkpt>
      <trkpt lat="41.91276" lon="20.97175">
        <ele>491.654315</ele>
        <time>2022-04-24T09:56:47.706Z</time>
      </trkpt>
      <trkpt lat="41.91267" lon="20.9717">
        <ele>491.651256</ele>
        <time>2022-04-24T09:56:49.709Z</time>
      </trkpt>
      <trkpt lat="41.91259" lon="20.97164">
        <ele>491.648141</ele>
        <time>2022-04-24T09:56:51.743Z</time>
      </trkpt>
      <trkpt lat="41.91252" lon="20.97156">
        <ele>491.645071</ele>
        <time>2022-04-24T09:56:53.705Z</time>
      </trkpt>
      <trkpt lat="41.91245" lon="20.97147">
        <ele>491.641893</ele>
        <time>2022-04-24T09:56:55.703Z</time>
      </trkpt>
      <trkpt lat="41.91239" lon="20.97138">
        <ele>491.638816</ele>
        <time>2022-04-24T09:56:57.715Z</time>
      </trkpt>
      <trkpt lat="41.91233" lon="20.97127">
        <ele>491.635605</ele>
        <time>2022-04-24T09:56:59.712Z</time>
      </trkpt>
      <trkpt lat="41.91228" lon="20.97118">
        <ele>491.662371</ele>
        <time>2022-04-24T09:57:01.712Z</time>
      </trkpt>
      <trkpt lat="41.9122" lon="20.97103">
        <ele>491.828593</ele>
        <time>2022-04-24T09:57:04.722Z</time>
      </trkpt>
      <trkpt lat="41.91215" lon="20.97094">
        <ele>491.945304</ele>
        <time>2022-04-24T09:57:06.710Z</time>
      </trkpt>
      <trkpt lat="41.91207" lon="20.9708">
        <ele>492.112371</ele>
        <time>2022-04-24T09:57:09.705Z</time>
      </trkpt>
      <trkpt lat="41.912" lon="20.97067">
        <ele>492.266304</ele>
        <time>2022-04-24T09:57:12.700Z</time>
      </trkpt>
      <trkpt lat="41.91193" lon="20.97053">
        <ele>492.426405</ele>
        <time>2022-04-24T09:57:15.740Z</time>
      </trkpt>
      <trkpt lat="41.91188" lon="20.97044">
        <ele>492.546283</ele>
        <time>2022-04-24T09:57:17.710Z</time>
      </trkpt>
      <trkpt lat="41.9118" lon="20.97031">
        <ele>492.699363</ele>
        <time>2022-04-24T09:57:20.713Z</time>
      </trkpt>
      <trkpt lat="41.91174" lon="20.97019">
        <ele>492.842424</ele>
        <time>2022-04-24T09:57:23.713Z</time>
      </trkpt>
      <trkpt lat="41.91166" lon="20.97006">
        <ele>493.008289</ele>
        <time>2022-04-24T09:57:26.784Z</time>
      </trkpt>
      <trkpt lat="41.9116" lon="20.96996">
        <ele>493.128102</ele>
        <time>2022-04-24T09:57:28.704Z</time>
      </trkpt>
      <trkpt lat="41.91155" lon="20.96986">
        <ele>493.244058</ele>
        <time>2022-04-24T09:57:30.705Z</time>
      </trkpt>
      <trkpt lat="41.91149" lon="20.96976">
        <ele>493.363855</ele>
        <time>2022-04-24T09:57:32.721Z</time>
      </trkpt>
      <trkpt lat="41.91144" lon="20.96966">
        <ele>493.481369</ele>
        <time>2022-04-24T09:57:34.705Z</time>
      </trkpt>
      <trkpt lat="41.91135" lon="20.96953">
        <ele>493.651389</ele>
        <time>2022-04-24T09:57:37.706Z</time>
      </trkpt>
      <trkpt lat="41.91127" lon="20.96941">
        <ele>493.80772</ele>
        <time>2022-04-24T09:57:40.723Z</time>
      </trkpt>
      <trkpt lat="41.91118" lon="20.96929">
        <ele>493.960692</ele>
        <time>2022-04-24T09:57:43.737Z</time>
      </trkpt>
      <trkpt lat="41.91108" lon="20.96921">
        <ele>493.939138</ele>
        <time>2022-04-24T09:57:46.786Z</time>
      </trkpt>
      <trkpt lat="41.91097" lon="20.96913">
        <ele>493.915975</ele>
        <time>2022-04-24T09:57:49.711Z</time>
      </trkpt>
      <trkpt lat="41.91089" lon="20.96906">
        <ele>493.898743</ele>
        <time>2022-04-24T09:57:51.725Z</time>
      </trkpt>
      <trkpt lat="41.91082" lon="20.96897">
        <ele>493.880941</ele>
        <time>2022-04-24T09:57:53.714Z</time>
      </trkpt>
      <trkpt lat="41.91072" lon="20.96885">
        <ele>493.856738</ele>
        <time>2022-04-24T09:57:56.707Z</time>
      </trkpt>
      <trkpt lat="41.91064" lon="20.96873">
        <ele>493.834133</ele>
        <time>2022-04-24T09:57:59.709Z</time>
      </trkpt>
      <trkpt lat="41.91055" lon="20.96861">
        <ele>493.811067</ele>
        <time>2022-04-24T09:58:02.741Z</time>
      </trkpt>
      <trkpt lat="41.91046" lon="20.96849">
        <ele>493.788559</ele>
        <time>2022-04-24T09:58:05.704Z</time>
      </trkpt>
      <trkpt lat="41.91038" lon="20.96836">
        <ele>493.764888</ele>
        <time>2022-04-24T09:58:08.724Z</time>
      </trkpt>
      <trkpt lat="41.91029" lon="20.96824">
        <ele>493.742314</ele>
        <time>2022-04-24T09:58:11.715Z</time>
      </trkpt>
      <trkpt lat="41.91022" lon="20.96811">
        <ele>493.720115</ele>
        <time>2022-04-24T09:58:14.719Z</time>
      </trkpt>
      <trkpt lat="41.91014" lon="20.968">
        <ele>493.698791</ele>
        <time>2022-04-24T09:58:17.740Z</time>
      </trkpt>
      <trkpt lat="41.91004" lon="20.96788">
        <ele>493.674402</ele>
        <time>2022-04-24T09:58:20.718Z</time>
      </trkpt>
      <trkpt lat="41.90998" lon="20.96778">
        <ele>493.657207</ele>
        <time>2022-04-24T09:58:22.715Z</time>
      </trkpt>
      <trkpt lat="41.90989" lon="20.96764">
        <ele>493.63305</ele>
        <time>2022-04-24T09:58:25.703Z</time>
      </trkpt>
      <trkpt lat="41.90982" lon="20.96749">
        <ele>494.013694</ele>
        <time>2022-04-24T09:58:28.713Z</time>
      </trkpt>
      <trkpt lat="41.90976" lon="20.96735">
        <ele>494.368583</ele>
        <time>2022-04-24T09:58:31.707Z</time>
      </trkpt>
      <trkpt lat="41.90969" lon="20.9672">
        <ele>494.731532</ele>
        <time>2022-04-24T09:58:34.707Z</time>
      </trkpt>
      <trkpt lat="41.90964" lon="20.96706">
        <ele>495.057283</ele>
        <time>2022-04-24T09:58:37.721Z</time>
      </trkpt>
      <trkpt lat="41.90961" lon="20.96693">
        <ele>495.351122</ele>
        <time>2022-04-24T09:58:40.742Z</time>
      </trkpt>
      <trkpt lat="41.90955" lon="20.96679">
        <ele>495.704207</ele>
        <time>2022-04-24T09:58:43.724Z</time>
      </trkpt>
      <trkpt lat="41.90947" lon="20.96663">
        <ele>496.093805</ele>
        <time>2022-04-24T09:58:46.713Z</time>
      </trkpt>
      <trkpt lat="41.90942" lon="20.96653">
        <ele>496.362695</ele>
        <time>2022-04-24T09:58:48.716Z</time>
      </trkpt>
      <trkpt lat="41.90936" lon="20.9664">
        <ele>496.693289</ele>
        <time>2022-04-24T09:58:51.735Z</time>
      </trkpt>
      <trkpt lat="41.90927" lon="20.96628">
        <ele>497.035223</ele>
        <time>2022-04-24T09:58:54.721Z</time>
      </trkpt>
      <trkpt lat="41.90916" lon="20.96618">
        <ele>497.41216</ele>
        <time>2022-04-24T09:58:57.715Z</time>
      </trkpt>
      <trkpt lat="41.90905" lon="20.96608">
        <ele>497.799574</ele>
        <time>2022-04-24T09:59:00.705Z</time>
      </trkpt>
      <trkpt lat="41.90897" lon="20.966">
        <ele>498.076961</ele>
        <time>2022-04-24T09:59:02.746Z</time>
      </trkpt>
      <trkpt lat="41.9089" lon="20.96593">
        <ele>498.335647</ele>
        <time>2022-04-24T09:59:04.719Z</time>
      </trkpt>
      <trkpt lat="41.90881" lon="20.96587">
        <ele>498.605524</ele>
        <time>2022-04-24T09:59:06.719Z</time>
      </trkpt>
      <trkpt lat="41.90871" lon="20.96577">
        <ele>498.909692</ele>
        <time>2022-04-24T09:59:09.708Z</time>
      </trkpt>
      <trkpt lat="41.9086" lon="20.96567">
        <ele>499.213095</ele>
        <time>2022-04-24T09:59:12.707Z</time>
      </trkpt>
      <trkpt lat="41.90851" lon="20.96561">
        <ele>499.429827</ele>
        <time>2022-04-24T09:59:14.713Z</time>
      </trkpt>
      <trkpt lat="41.90843" lon="20.96556">
        <ele>499.630052</ele>
        <time>2022-04-24T09:59:16.702Z</time>
      </trkpt>
      <trkpt lat="41.90834" lon="20.96552">
        <ele>499.833673</ele>
        <time>2022-04-24T09:59:18.701Z</time>
      </trkpt>
      <trkpt lat="41.90822" lon="20.96546">
        <ele>500.116158</ele>
        <time>2022-04-24T09:59:21.710Z</time>
      </trkpt>
      <trkpt lat="41.90811" lon="20.96538">
        <ele>500.396362</ele>
        <time>2022-04-24T09:59:24.717Z</time>
      </trkpt>
      <trkpt lat="41.90803" lon="20.96532">
        <ele>500.604731</ele>
        <time>2022-04-24T09:59:26.735Z</time>
      </trkpt>
      <trkpt lat="41.90795" lon="20.96525">
        <ele>500.805567</ele>
        <time>2022-04-24T09:59:28.707Z</time>
      </trkpt>
      <trkpt lat="41.90785" lon="20.96516">
        <ele>501.085139</ele>
        <time>2022-04-24T09:59:31.714Z</time>
      </trkpt>
      <trkpt lat="41.90774" lon="20.96506">
        <ele>501.375712</ele>
        <time>2022-04-24T09:59:34.711Z</time>
      </trkpt>
      <trkpt lat="41.90762" lon="20.96497">
        <ele>501.667519</ele>
        <time>2022-04-24T09:59:37.702Z</time>
      </trkpt>
      <trkpt lat="41.90751" lon="20.96488">
        <ele>501.946147</ele>
        <time>2022-04-24T09:59:40.708Z</time>
      </trkpt>
      <trkpt lat="41.90741" lon="20.96479">
        <ele>502.215652</ele>
        <time>2022-04-24T09:59:43.711Z</time>
      </trkpt>
      <trkpt lat="41.90732" lon="20.96468">
        <ele>502.497528</ele>
        <time>2022-04-24T09:59:46.711Z</time>
      </trkpt>
      <trkpt lat="41.90721" lon="20.96456">
        <ele>502.710596</ele>
        <time>2022-04-24T09:59:49.718Z</time>
      </trkpt>
      <trkpt lat="41.90714" lon="20.96447">
        <ele>502.671986</ele>
        <time>2022-04-24T09:59:51.730Z</time>
      </trkpt>
      <trkpt lat="41.90706" lon="20.96438">
        <ele>502.632256</ele>
        <time>2022-04-24T09:59:53.733Z</time>
      </trkpt>
      <trkpt lat="41.90699" lon="20.96429">
        <ele>502.595397</ele>
        <time>2022-04-24T09:59:55.715Z</time>
      </trkpt>
      <trkpt lat="41.9069" lon="20.96419">
        <ele>502.55093</ele>
        <time>2022-04-24T09:59:58.703Z</time>
      </trkpt>
      <trkpt lat="41.90681" lon="20.96412">
        <ele>502.509344</ele>
        <time>2022-04-24T10:00:01.722Z</time>
      </trkpt>
      <trkpt lat="41.90674" lon="20.96403">
        <ele>502.470284</ele>
        <time>2022-04-24T10:00:03.717Z</time>
      </trkpt>
      <trkpt lat="41.90667" lon="20.96393">
        <ele>502.430432</ele>
        <time>2022-04-24T10:00:05.711Z</time>
      </trkpt>
      <trkpt lat="41.9066" lon="20.96384">
        <ele>502.394215</ele>
        <time>2022-04-24T10:00:07.701Z</time>
      </trkpt>
      <trkpt lat="41.90654" lon="20.96374">
        <ele>502.358315</ele>
        <time>2022-04-24T10:00:09.705Z</time>
      </trkpt>
      <trkpt lat="41.90648" lon="20.96366">
        <ele>502.323449</ele>
        <time>2022-04-24T10:00:11.723Z</time>
      </trkpt>
      <trkpt lat="41.90641" lon="20.96357">
        <ele>502.285804</ele>
        <time>2022-04-24T10:00:13.718Z</time>
      </trkpt>
      <trkpt lat="41.90633" lon="20.9635">
        <ele>502.250813</ele>
        <time>2022-04-24T10:00:15.732Z</time>
      </trkpt>
      <trkpt lat="41.90622" lon="20.9634">
        <ele>502.199677</ele>
        <time>2022-04-24T10:00:18.720Z</time>
      </trkpt>
      <trkpt lat="41.90615" lon="20.96333">
        <ele>502.16429</ele>
        <time>2022-04-24T10:00:20.721Z</time>
      </trkpt>
      <trkpt lat="41.90605" lon="20.96326">
        <ele>502.122225</ele>
        <time>2022-04-24T10:00:22.691Z</time>
      </trkpt>
      <trkpt lat="41.90597" lon="20.9632">
        <ele>502.084597</ele>
        <time>2022-04-24T10:00:24.713Z</time>
      </trkpt>
      <trkpt lat="41.90586" lon="20.96315">
        <ele>502.040049</ele>
        <time>2022-04-24T10:00:27.698Z</time>
      </trkpt>
      <trkpt lat="41.90573" lon="20.9631">
        <ele>501.8795</ele>
        <time>2022-04-24T10:00:30.712Z</time>
      </trkpt>
      <trkpt lat="41.90564" lon="20.96308">
        <ele>501.733624</ele>
        <time>2022-04-24T10:00:32.732Z</time>
      </trkpt>
      <trkpt lat="41.90554" lon="20.96305">
        <ele>501.584149</ele>
        <time>2022-04-24T10:00:34.712Z</time>
      </trkpt>
      <trkpt lat="41.90545" lon="20.96302">
        <ele>501.438497</ele>
        <time>2022-04-24T10:00:36.710Z</time>
      </trkpt>
      <trkpt lat="41.90535" lon="20.96299">
        <ele>501.291956</ele>
        <time>2022-04-24T10:00:38.698Z</time>
      </trkpt>
      <trkpt lat="41.90525" lon="20.96296">
        <ele>501.138444</ele>
        <time>2022-04-24T10:00:40.715Z</time>
      </trkpt>
      <trkpt lat="41.90515" lon="20.96294">
        <ele>500.984324</ele>
        <time>2022-04-24T10:00:42.715Z</time>
      </trkpt>
      <trkpt lat="41.90506" lon="20.96293">
        <ele>500.837994</ele>
        <time>2022-04-24T10:00:44.716Z</time>
      </trkpt>
      <trkpt lat="41.90496" lon="20.96291">
        <ele>500.691664</ele>
        <time>2022-04-24T10:00:46.711Z</time>
      </trkpt>
      <trkpt lat="41.90486" lon="20.96289">
        <ele>500.540202</ele>
        <time>2022-04-24T10:00:48.716Z</time>
      </trkpt>
      <trkpt lat="41.90477" lon="20.96287">
        <ele>500.399705</ele>
        <time>2022-04-24T10:00:50.726Z</time>
      </trkpt>
      <trkpt lat="41.90468" lon="20.96286">
        <ele>500.257114</ele>
        <time>2022-04-24T10:00:52.708Z</time>
      </trkpt>
      <trkpt lat="41.90458" lon="20.96285">
        <ele>500.105576</ele>
        <time>2022-04-24T10:00:54.701Z</time>
      </trkpt>
      <trkpt lat="41.90447" lon="20.96284">
        <ele>499.952134</ele>
        <time>2022-04-24T10:00:56.714Z</time>
      </trkpt>
      <trkpt lat="41.90437" lon="20.96282">
        <ele>499.800075</ele>
        <time>2022-04-24T10:00:58.699Z</time>
      </trkpt>
      <trkpt lat="41.90428" lon="20.96281">
        <ele>499.657577</ele>
        <time>2022-04-24T10:01:00.702Z</time>
      </trkpt>
      <trkpt lat="41.90419" lon="20.9628">
        <ele>499.518324</ele>
        <time>2022-04-24T10:01:02.709Z</time>
      </trkpt>
      <trkpt lat="41.90405" lon="20.96281">
        <ele>499.314284</ele>
        <time>2022-04-24T10:01:05.692Z</time>
      </trkpt>
      <trkpt lat="41.90396" lon="20.96282">
        <ele>499.42627</ele>
        <time>2022-04-24T10:01:07.714Z</time>
      </trkpt>
      <trkpt lat="41.90387" lon="20.96282">
        <ele>499.5572</ele>
        <time>2022-04-24T10:01:09.691Z</time>
      </trkpt>
      <trkpt lat="41.90376" lon="20.96283">
        <ele>499.694947</ele>
        <time>2022-04-24T10:01:11.754Z</time>
      </trkpt>
      <trkpt lat="41.90366" lon="20.96284">
        <ele>499.830494</ele>
        <time>2022-04-24T10:01:13.731Z</time>
      </trkpt>
      <trkpt lat="41.90357" lon="20.96285">
        <ele>499.957796</ele>
        <time>2022-04-24T10:01:15.713Z</time>
      </trkpt>
      <trkpt lat="41.90344" lon="20.96286">
        <ele>500.13106</ele>
        <time>2022-04-24T10:01:18.703Z</time>
      </trkpt>
      <trkpt lat="41.90332" lon="20.96289">
        <ele>500.295383</ele>
        <time>2022-04-24T10:01:21.729Z</time>
      </trkpt>
      <trkpt lat="41.9032" lon="20.96292">
        <ele>500.459118</ele>
        <time>2022-04-24T10:01:24.721Z</time>
      </trkpt>
      <trkpt lat="41.90308" lon="20.96297">
        <ele>500.632495</ele>
        <time>2022-04-24T10:01:27.694Z</time>
      </trkpt>
      <trkpt lat="41.90299" lon="20.96301">
        <ele>500.75446</ele>
        <time>2022-04-24T10:01:29.696Z</time>
      </trkpt>
      <trkpt lat="41.9029" lon="20.96304">
        <ele>500.878257</ele>
        <time>2022-04-24T10:01:31.721Z</time>
      </trkpt>
      <trkpt lat="41.90278" lon="20.96309">
        <ele>501.060255</ele>
        <time>2022-04-24T10:01:34.702Z</time>
      </trkpt>
      <trkpt lat="41.90269" lon="20.96313">
        <ele>501.1821</ele>
        <time>2022-04-24T10:01:36.728Z</time>
      </trkpt>
      <trkpt lat="41.90258" lon="20.9632">
        <ele>501.345867</ele>
        <time>2022-04-24T10:01:39.703Z</time>
      </trkpt>
      <trkpt lat="41.90247" lon="20.96328">
        <ele>501.515103</ele>
        <time>2022-04-24T10:01:42.717Z</time>
      </trkpt>
      <trkpt lat="41.90237" lon="20.96337">
        <ele>501.683653</ele>
        <time>2022-04-24T10:01:45.719Z</time>
      </trkpt>
      <trkpt lat="41.90226" lon="20.96346">
        <ele>501.638103</ele>
        <time>2022-04-24T10:01:48.727Z</time>
      </trkpt>
      <trkpt lat="41.90218" lon="20.96352">
        <ele>501.529203</ele>
        <time>2022-04-24T10:01:50.715Z</time>
      </trkpt>
      <trkpt lat="41.90209" lon="20.96359">
        <ele>501.414668</ele>
        <time>2022-04-24T10:01:52.715Z</time>
      </trkpt>
      <trkpt lat="41.902" lon="20.96366">
        <ele>501.295343</ele>
        <time>2022-04-24T10:01:54.718Z</time>
      </trkpt>
      <trkpt lat="41.9019" lon="20.96373">
        <ele>501.17084</ele>
        <time>2022-04-24T10:01:56.702Z</time>
      </trkpt>
      <trkpt lat="41.90181" lon="20.9638">
        <ele>501.051548</ele>
        <time>2022-04-24T10:01:58.695Z</time>
      </trkpt>
      <trkpt lat="41.90172" lon="20.96386">
        <ele>500.933655</ele>
        <time>2022-04-24T10:02:00.731Z</time>
      </trkpt>
      <trkpt lat="41.90163" lon="20.96393">
        <ele>500.818259</ele>
        <time>2022-04-24T10:02:02.715Z</time>
      </trkpt>
      <trkpt lat="41.90154" lon="20.964">
        <ele>500.704147</ele>
        <time>2022-04-24T10:02:04.730Z</time>
      </trkpt>
      <trkpt lat="41.90145" lon="20.96407">
        <ele>500.58524</ele>
        <time>2022-04-24T10:02:06.706Z</time>
      </trkpt>
      <trkpt lat="41.90137" lon="20.96413">
        <ele>500.472114</ele>
        <time>2022-04-24T10:02:08.709Z</time>
      </trkpt>
      <trkpt lat="41.90128" lon="20.9642">
        <ele>500.356805</ele>
        <time>2022-04-24T10:02:10.723Z</time>
      </trkpt>
      <trkpt lat="41.90118" lon="20.96428">
        <ele>500.230435</ele>
        <time>2022-04-24T10:02:12.720Z</time>
      </trkpt>
      <trkpt lat="41.90108" lon="20.96436">
        <ele>500.095605</ele>
        <time>2022-04-24T10:02:14.717Z</time>
      </trkpt>
      <trkpt lat="41.90098" lon="20.96443">
        <ele>499.964881</ele>
        <time>2022-04-24T10:02:16.713Z</time>
      </trkpt>
      <trkpt lat="41.90089" lon="20.96451">
        <ele>499.842049</ele>
        <time>2022-04-24T10:02:18.706Z</time>
      </trkpt>
      <trkpt lat="41.9008" lon="20.96458">
        <ele>499.718919</ele>
        <time>2022-04-24T10:02:20.730Z</time>
      </trkpt>
      <trkpt lat="41.90071" lon="20.96465">
        <ele>499.622059</ele>
        <time>2022-04-24T10:02:22.717Z</time>
      </trkpt>
      <trkpt lat="41.90062" lon="20.96472">
        <ele>499.53423</ele>
        <time>2022-04-24T10:02:24.730Z</time>
      </trkpt>
      <trkpt lat="41.90055" lon="20.96478">
        <ele>499.454336</ele>
        <time>2022-04-24T10:02:26.713Z</time>
      </trkpt>
      <trkpt lat="41.90043" lon="20.96488">
        <ele>499.334705</ele>
        <time>2022-04-24T10:02:29.726Z</time>
      </trkpt>
      <trkpt lat="41.90032" lon="20.96499">
        <ele>499.216149</ele>
        <time>2022-04-24T10:02:32.715Z</time>
      </trkpt>
      <trkpt lat="41.90023" lon="20.96509">
        <ele>499.105684</ele>
        <time>2022-04-24T10:02:35.750Z</time>
      </trkpt>
      <trkpt lat="41.90014" lon="20.9652">
        <ele>498.998009</ele>
        <time>2022-04-24T10:02:38.715Z</time>
      </trkpt>
      <trkpt lat="41.90006" lon="20.96532">
        <ele>498.893628</ele>
        <time>2022-04-24T10:02:41.746Z</time>
      </trkpt>
      <trkpt lat="41.89997" lon="20.96544">
        <ele>498.780553</ele>
        <time>2022-04-24T10:02:44.710Z</time>
      </trkpt>
      <trkpt lat="41.89987" lon="20.96556">
        <ele>498.663267</ele>
        <time>2022-04-24T10:02:47.733Z</time>
      </trkpt>
      <trkpt lat="41.89978" lon="20.96568">
        <ele>498.550927</ele>
        <time>2022-04-24T10:02:50.712Z</time>
      </trkpt>
      <trkpt lat="41.89969" lon="20.9658">
        <ele>498.437852</ele>
        <time>2022-04-24T10:02:53.730Z</time>
      </trkpt>
      <trkpt lat="41.89962" lon="20.96588">
        <ele>498.357414</ele>
        <time>2022-04-24T10:02:55.728Z</time>
      </trkpt>
      <trkpt lat="41.89955" lon="20.96597">
        <ele>498.27285</ele>
        <time>2022-04-24T10:02:57.708Z</time>
      </trkpt>
      <trkpt lat="41.89948" lon="20.96605">
        <ele>498.190829</ele>
        <time>2022-04-24T10:02:59.722Z</time>
      </trkpt>
      <trkpt lat="41.89938" lon="20.96615">
        <ele>498.120512</ele>
        <time>2022-04-24T10:03:02.701Z</time>
      </trkpt>
      <trkpt lat="41.89927" lon="20.96624">
        <ele>498.30262</ele>
        <time>2022-04-24T10:03:05.701Z</time>
      </trkpt>
      <trkpt lat="41.89916" lon="20.96632">
        <ele>498.486252</ele>
        <time>2022-04-24T10:03:08.719Z</time>
      </trkpt>
      <trkpt lat="41.89904" lon="20.9664">
        <ele>498.676636</ele>
        <time>2022-04-24T10:03:11.715Z</time>
      </trkpt>
      <trkpt lat="41.89892" lon="20.96647">
        <ele>498.872183</ele>
        <time>2022-04-24T10:03:14.740Z</time>
      </trkpt>
      <trkpt lat="41.89884" lon="20.96652">
        <ele>499.003089</ele>
        <time>2022-04-24T10:03:16.727Z</time>
      </trkpt>
      <trkpt lat="41.89875" lon="20.96658">
        <ele>499.142263</ele>
        <time>2022-04-24T10:03:18.721Z</time>
      </trkpt>
      <trkpt lat="41.89863" lon="20.96664">
        <ele>499.322996</ele>
        <time>2022-04-24T10:03:21.697Z</time>
      </trkpt>
      <trkpt lat="41.89852" lon="20.96671">
        <ele>499.50582</ele>
        <time>2022-04-24T10:03:24.716Z</time>
      </trkpt>
      <trkpt lat="41.89841" lon="20.96679">
        <ele>499.686507</ele>
        <time>2022-04-24T10:03:27.719Z</time>
      </trkpt>
      <trkpt lat="41.89829" lon="20.96686">
        <ele>499.873493</ele>
        <time>2022-04-24T10:03:30.715Z</time>
      </trkpt>
      <trkpt lat="41.89817" lon="20.96694">
        <ele>500.061561</ele>
        <time>2022-04-24T10:03:33.713Z</time>
      </trkpt>
      <trkpt lat="41.89806" lon="20.967">
        <ele>500.236855</ele>
        <time>2022-04-24T10:03:36.705Z</time>
      </trkpt>
      <trkpt lat="41.89795" lon="20.96707">
        <ele>500.420529</ele>
        <time>2022-04-24T10:03:39.722Z</time>
      </trkpt>
      <trkpt lat="41.89786" lon="20.96712">
        <ele>500.551849</ele>
        <time>2022-04-24T10:03:41.712Z</time>
      </trkpt>
      <trkpt lat="41.89778" lon="20.96717">
        <ele>500.685331</ele>
        <time>2022-04-24T10:03:43.703Z</time>
      </trkpt>
      <trkpt lat="41.8977" lon="20.96722">
        <ele>500.779911</ele>
        <time>2022-04-24T10:03:45.714Z</time>
      </trkpt>
      <trkpt lat="41.89758" lon="20.96729">
        <ele>500.909929</ele>
        <time>2022-04-24T10:03:48.714Z</time>
      </trkpt>
      <trkpt lat="41.89749" lon="20.96734">
        <ele>500.999394</ele>
        <time>2022-04-24T10:03:50.721Z</time>
      </trkpt>
      <trkpt lat="41.89737" lon="20.96741">
        <ele>501.130019</ele>
        <time>2022-04-24T10:03:53.739Z</time>
      </trkpt>
      <trkpt lat="41.89725" lon="20.96748">
        <ele>501.259747</ele>
        <time>2022-04-24T10:03:56.714Z</time>
      </trkpt>
      <trkpt lat="41.89714" lon="20.96756">
        <ele>501.38565</ele>
        <time>2022-04-24T10:03:59.719Z</time>
      </trkpt>
      <trkpt lat="41.89702" lon="20.96763">
        <ele>501.516872</ele>
        <time>2022-04-24T10:04:02.708Z</time>
      </trkpt>
      <trkpt lat="41.8969" lon="20.9677">
        <ele>501.64208</ele>
        <time>2022-04-24T10:04:05.718Z</time>
      </trkpt>
      <trkpt lat="41.89678" lon="20.96778">
        <ele>501.774206</ele>
        <time>2022-04-24T10:04:08.707Z</time>
      </trkpt>
      <trkpt lat="41.89666" lon="20.96784">
        <ele>501.903681</ele>
        <time>2022-04-24T10:04:11.701Z</time>
      </trkpt>
      <trkpt lat="41.89657" lon="20.96788">
        <ele>501.998901</ele>
        <time>2022-04-24T10:04:13.712Z</time>
      </trkpt>
      <trkpt lat="41.89648" lon="20.96791">
        <ele>502.092224</ele>
        <time>2022-04-24T10:04:15.730Z</time>
      </trkpt>
      <trkpt lat="41.89639" lon="20.96793">
        <ele>502.182998</ele>
        <time>2022-04-24T10:04:17.711Z</time>
      </trkpt>
      <trkpt lat="41.89629" lon="20.96795">
        <ele>502.276061</ele>
        <time>2022-04-24T10:04:19.715Z</time>
      </trkpt>
      <trkpt lat="41.89616" lon="20.96798">
        <ele>502.405839</ele>
        <time>2022-04-24T10:04:22.698Z</time>
      </trkpt>
      <trkpt lat="41.89604" lon="20.96801">
        <ele>502.527525</ele>
        <time>2022-04-24T10:04:25.714Z</time>
      </trkpt>
      <trkpt lat="41.89591" lon="20.96804">
        <ele>502.643949</ele>
        <time>2022-04-24T10:04:28.724Z</time>
      </trkpt>
      <trkpt lat="41.89579" lon="20.96807">
        <ele>502.760599</ele>
        <time>2022-04-24T10:04:31.718Z</time>
      </trkpt>
      <trkpt lat="41.89566" lon="20.96809">
        <ele>502.880453</ele>
        <time>2022-04-24T10:04:34.723Z</time>
      </trkpt>
      <trkpt lat="41.89553" lon="20.96813">
        <ele>503.001989</ele>
        <time>2022-04-24T10:04:37.722Z</time>
      </trkpt>
      <trkpt lat="41.8954" lon="20.96815">
        <ele>503.119114</ele>
        <time>2022-04-24T10:04:40.720Z</time>
      </trkpt>
      <trkpt lat="41.89528" lon="20.96818">
        <ele>503.2351</ele>
        <time>2022-04-24T10:04:43.734Z</time>
      </trkpt>
      <trkpt lat="41.89515" lon="20.96821">
        <ele>503.353149</ele>
        <time>2022-04-24T10:04:46.714Z</time>
      </trkpt>
      <trkpt lat="41.89503" lon="20.96824">
        <ele>503.468777</ele>
        <time>2022-04-24T10:04:49.735Z</time>
      </trkpt>
      <trkpt lat="41.89491" lon="20.96828">
        <ele>503.585157</ele>
        <time>2022-04-24T10:04:52.707Z</time>
      </trkpt>
      <trkpt lat="41.89478" lon="20.96831">
        <ele>503.699598</ele>
        <time>2022-04-24T10:04:55.719Z</time>
      </trkpt>
      <trkpt lat="41.89466" lon="20.96835">
        <ele>503.818426</ele>
        <time>2022-04-24T10:04:58.717Z</time>
      </trkpt>
      <trkpt lat="41.89454" lon="20.9684">
        <ele>503.932995</ele>
        <time>2022-04-24T10:05:01.728Z</time>
      </trkpt>
      <trkpt lat="41.89442" lon="20.96845">
        <ele>504.049014</ele>
        <time>2022-04-24T10:05:04.695Z</time>
      </trkpt>
      <trkpt lat="41.8943" lon="20.9685">
        <ele>504.114008</ele>
        <time>2022-04-24T10:05:07.719Z</time>
      </trkpt>
      <trkpt lat="41.89418" lon="20.96855">
        <ele>504.057354</ele>
        <time>2022-04-24T10:05:10.701Z</time>
      </trkpt>
      <trkpt lat="41.89405" lon="20.9686">
        <ele>503.999463</ele>
        <time>2022-04-24T10:05:13.705Z</time>
      </trkpt>
      <trkpt lat="41.89393" lon="20.96865">
        <ele>503.94344</ele>
        <time>2022-04-24T10:05:16.746Z</time>
      </trkpt>
      <trkpt lat="41.89381" lon="20.96869">
        <ele>503.888233</ele>
        <time>2022-04-24T10:05:19.708Z</time>
      </trkpt>
      <trkpt lat="41.8937" lon="20.96874">
        <ele>503.834074</ele>
        <time>2022-04-24T10:05:22.710Z</time>
      </trkpt>
      <trkpt lat="41.89359" lon="20.96879">
        <ele>503.781149</ele>
        <time>2022-04-24T10:05:25.710Z</time>
      </trkpt>
      <trkpt lat="41.89347" lon="20.96884">
        <ele>503.726307</ele>
        <time>2022-04-24T10:05:28.731Z</time>
      </trkpt>
      <trkpt lat="41.89335" lon="20.96889">
        <ele>503.669755</ele>
        <time>2022-04-24T10:05:31.715Z</time>
      </trkpt>
      <trkpt lat="41.89323" lon="20.96895">
        <ele>503.611293</ele>
        <time>2022-04-24T10:05:34.721Z</time>
      </trkpt>
      <trkpt lat="41.8931" lon="20.96899">
        <ele>503.553492</ele>
        <time>2022-04-24T10:05:37.713Z</time>
      </trkpt>
      <trkpt lat="41.89298" lon="20.96904">
        <ele>503.495779</ele>
        <time>2022-04-24T10:05:40.718Z</time>
      </trkpt>
      <trkpt lat="41.89285" lon="20.96908">
        <ele>503.436575</ele>
        <time>2022-04-24T10:05:43.720Z</time>
      </trkpt>
      <trkpt lat="41.89276" lon="20.96911">
        <ele>503.394828</ele>
        <time>2022-04-24T10:05:45.722Z</time>
      </trkpt>
      <trkpt lat="41.89267" lon="20.96914">
        <ele>503.352646</ele>
        <time>2022-04-24T10:05:47.703Z</time>
      </trkpt>
      <trkpt lat="41.89258" lon="20.96917">
        <ele>503.319893</ele>
        <time>2022-04-24T10:05:49.737Z</time>
      </trkpt>
      <trkpt lat="41.89249" lon="20.96922">
        <ele>503.309275</ele>
        <time>2022-04-24T10:05:51.708Z</time>
      </trkpt>
      <trkpt lat="41.8924" lon="20.96926">
        <ele>503.298683</ele>
        <time>2022-04-24T10:05:53.718Z</time>
      </trkpt>
      <trkpt lat="41.89231" lon="20.9693">
        <ele>503.287922</ele>
        <time>2022-04-24T10:05:55.689Z</time>
      </trkpt>
      <trkpt lat="41.89222" lon="20.96936">
        <ele>503.276452</ele>
        <time>2022-04-24T10:05:57.756Z</time>
      </trkpt>
      <trkpt lat="41.89213" lon="20.96943">
        <ele>503.26498</ele>
        <time>2022-04-24T10:05:59.722Z</time>
      </trkpt>
      <trkpt lat="41.89205" lon="20.9695">
        <ele>503.253878</ele>
        <time>2022-04-24T10:06:01.718Z</time>
      </trkpt>
      <trkpt lat="41.89197" lon="20.96957">
        <ele>503.243057</ele>
        <time>2022-04-24T10:06:03.710Z</time>
      </trkpt>
      <trkpt lat="41.8919" lon="20.96965">
        <ele>503.232544</ele>
        <time>2022-04-24T10:06:05.719Z</time>
      </trkpt>
      <trkpt lat="41.89182" lon="20.96972">
        <ele>503.222262</ele>
        <time>2022-04-24T10:06:07.734Z</time>
      </trkpt>
      <trkpt lat="41.89175" lon="20.9698">
        <ele>503.211609</ele>
        <time>2022-04-24T10:06:09.730Z</time>
      </trkpt>
      <trkpt lat="41.89168" lon="20.96988">
        <ele>503.201399</ele>
        <time>2022-04-24T10:06:11.702Z</time>
      </trkpt>
      <trkpt lat="41.89158" lon="20.96999">
        <ele>503.186769</ele>
        <time>2022-04-24T10:06:14.709Z</time>
      </trkpt>
      <trkpt lat="41.89148" lon="20.9701">
        <ele>503.172095</ele>
        <time>2022-04-24T10:06:17.718Z</time>
      </trkpt>
      <trkpt lat="41.89138" lon="20.97021">
        <ele>503.157963</ele>
        <time>2022-04-24T10:06:20.727Z</time>
      </trkpt>
      <trkpt lat="41.89129" lon="20.97032">
        <ele>503.143278</ele>
        <time>2022-04-24T10:06:23.710Z</time>
      </trkpt>
      <trkpt lat="41.89118" lon="20.97044">
        <ele>503.128058</ele>
        <time>2022-04-24T10:06:26.705Z</time>
      </trkpt>
      <trkpt lat="41.89111" lon="20.97051">
        <ele>503.12868</ele>
        <time>2022-04-24T10:06:28.710Z</time>
      </trkpt>
      <trkpt lat="41.89103" lon="20.97059">
        <ele>503.16373</ele>
        <time>2022-04-24T10:06:30.685Z</time>
      </trkpt>
      <trkpt lat="41.89096" lon="20.97067">
        <ele>503.196664</ele>
        <time>2022-04-24T10:06:32.681Z</time>
      </trkpt>
      <trkpt lat="41.89088" lon="20.97073">
        <ele>503.230511</ele>
        <time>2022-04-24T10:06:34.729Z</time>
      </trkpt>
      <trkpt lat="41.89079" lon="20.97079">
        <ele>503.265777</ele>
        <time>2022-04-24T10:06:36.695Z</time>
      </trkpt>
      <trkpt lat="41.89071" lon="20.97084">
        <ele>503.300716</ele>
        <time>2022-04-24T10:06:38.706Z</time>
      </trkpt>
      <trkpt lat="41.89063" lon="20.9709">
        <ele>503.335083</ele>
        <time>2022-04-24T10:06:40.708Z</time>
      </trkpt>
      <trkpt lat="41.89054" lon="20.97095">
        <ele>503.369093</ele>
        <time>2022-04-24T10:06:42.726Z</time>
      </trkpt>
      <trkpt lat="41.89046" lon="20.97101">
        <ele>503.402355</ele>
        <time>2022-04-24T10:06:44.702Z</time>
      </trkpt>
      <trkpt lat="41.89038" lon="20.97106">
        <ele>503.435944</ele>
        <time>2022-04-24T10:06:46.699Z</time>
      </trkpt>
      <trkpt lat="41.89029" lon="20.97112">
        <ele>503.470883</ele>
        <time>2022-04-24T10:06:48.728Z</time>
      </trkpt>
      <trkpt lat="41.89021" lon="20.97118">
        <ele>503.506652</ele>
        <time>2022-04-24T10:06:50.716Z</time>
      </trkpt>
      <trkpt lat="41.89012" lon="20.97124">
        <ele>503.541517</ele>
        <time>2022-04-24T10:06:52.740Z</time>
      </trkpt>
      <trkpt lat="41.89004" lon="20.9713">
        <ele>503.576906</ele>
        <time>2022-04-24T10:06:54.715Z</time>
      </trkpt>
      <trkpt lat="41.88995" lon="20.97136">
        <ele>503.613648</ele>
        <time>2022-04-24T10:06:56.722Z</time>
      </trkpt>
      <trkpt lat="41.88986" lon="20.97142">
        <ele>503.649939</ele>
        <time>2022-04-24T10:06:58.710Z</time>
      </trkpt>
      <trkpt lat="41.88977" lon="20.97149">
        <ele>503.686612</ele>
        <time>2022-04-24T10:07:00.727Z</time>
      </trkpt>
      <trkpt lat="41.88969" lon="20.97155">
        <ele>503.722138</ele>
        <time>2022-04-24T10:07:02.736Z</time>
      </trkpt>
      <trkpt lat="41.8896" lon="20.97162">
        <ele>503.75888</ele>
        <time>2022-04-24T10:07:04.690Z</time>
      </trkpt>
      <trkpt lat="41.88951" lon="20.97168">
        <ele>503.804594</ele>
        <time>2022-04-24T10:07:06.718Z</time>
      </trkpt>
      <trkpt lat="41.88942" lon="20.97174">
        <ele>503.862324</ele>
        <time>2022-04-24T10:07:08.724Z</time>
      </trkpt>
      <trkpt lat="41.88933" lon="20.9718">
        <ele>503.920572</ele>
        <time>2022-04-24T10:07:10.723Z</time>
      </trkpt>
      <trkpt lat="41.88924" lon="20.97185">
        <ele>503.977903</ele>
        <time>2022-04-24T10:07:12.715Z</time>
      </trkpt>
      <trkpt lat="41.88915" lon="20.97189">
        <ele>504.034097</ele>
        <time>2022-04-24T10:07:14.711Z</time>
      </trkpt>
      <trkpt lat="41.88906" lon="20.97192">
        <ele>504.090011</ele>
        <time>2022-04-24T10:07:16.719Z</time>
      </trkpt>
      <trkpt lat="41.88896" lon="20.97194">
        <ele>504.146147</ele>
        <time>2022-04-24T10:07:18.715Z</time>
      </trkpt>
      <trkpt lat="41.88886" lon="20.97195">
        <ele>504.202283</ele>
        <time>2022-04-24T10:07:20.720Z</time>
      </trkpt>
      <trkpt lat="41.88877" lon="20.97197">
        <ele>504.259051</ele>
        <time>2022-04-24T10:07:22.713Z</time>
      </trkpt>
      <trkpt lat="41.88867" lon="20.97199">
        <ele>504.316968</ele>
        <time>2022-04-24T10:07:24.717Z</time>
      </trkpt>
      <trkpt lat="41.88856" lon="20.97201">
        <ele>504.377365</ele>
        <time>2022-04-24T10:07:26.717Z</time>
      </trkpt>
      <trkpt lat="41.88846" lon="20.97203">
        <ele>504.437527</ele>
        <time>2022-04-24T10:07:28.709Z</time>
      </trkpt>
      <trkpt lat="41.88835" lon="20.97205">
        <ele>504.50073</ele>
        <time>2022-04-24T10:07:30.719Z</time>
      </trkpt>
      <trkpt lat="41.88824" lon="20.97206">
        <ele>504.564922</ele>
        <time>2022-04-24T10:07:32.753Z</time>
      </trkpt>
      <trkpt lat="41.88814" lon="20.97208">
        <ele>504.626234</ele>
        <time>2022-04-24T10:07:34.713Z</time>
      </trkpt>
      <trkpt lat="41.88804" lon="20.9721">
        <ele>504.68645</ele>
        <time>2022-04-24T10:07:36.705Z</time>
      </trkpt>
      <trkpt lat="41.88793" lon="20.97212">
        <ele>504.74621</ele>
        <time>2022-04-24T10:07:38.753Z</time>
      </trkpt>
      <trkpt lat="41.88783" lon="20.97214">
        <ele>504.805221</ele>
        <time>2022-04-24T10:07:40.714Z</time>
      </trkpt>
      <trkpt lat="41.88774" lon="20.97215">
        <ele>504.847423</ele>
        <time>2022-04-24T10:07:42.707Z</time>
      </trkpt>
      <trkpt lat="41.88764" lon="20.97216">
        <ele>504.883773</ele>
        <time>2022-04-24T10:07:44.705Z</time>
      </trkpt>
      <trkpt lat="41.88754" lon="20.97218">
        <ele>504.922023</ele>
        <time>2022-04-24T10:07:46.710Z</time>
      </trkpt>
      <trkpt lat="41.88744" lon="20.9722">
        <ele>504.960273</ele>
        <time>2022-04-24T10:07:48.719Z</time>
      </trkpt>
      <trkpt lat="41.88734" lon="20.97221">
        <ele>504.99822</ele>
        <time>2022-04-24T10:07:50.718Z</time>
      </trkpt>
      <trkpt lat="41.88724" lon="20.97223">
        <ele>505.036065</ele>
        <time>2022-04-24T10:07:52.713Z</time>
      </trkpt>
      <trkpt lat="41.88714" lon="20.97225">
        <ele>505.073568</ele>
        <time>2022-04-24T10:07:54.723Z</time>
      </trkpt>
      <trkpt lat="41.88704" lon="20.97226">
        <ele>505.111106</ele>
        <time>2022-04-24T10:07:56.710Z</time>
      </trkpt>
      <trkpt lat="41.88694" lon="20.97228">
        <ele>505.147395</ele>
        <time>2022-04-24T10:07:58.709Z</time>
      </trkpt>
      <trkpt lat="41.88685" lon="20.97229">
        <ele>505.183405</ele>
        <time>2022-04-24T10:08:00.730Z</time>
      </trkpt>
      <trkpt lat="41.88676" lon="20.97231">
        <ele>505.218333</ele>
        <time>2022-04-24T10:08:02.731Z</time>
      </trkpt>
      <trkpt lat="41.88666" lon="20.97232">
        <ele>505.254248</ele>
        <time>2022-04-24T10:08:04.719Z</time>
      </trkpt>
      <trkpt lat="41.88657" lon="20.97234">
        <ele>505.290667</ele>
        <time>2022-04-24T10:08:06.702Z</time>
      </trkpt>
      <trkpt lat="41.88647" lon="20.97235">
        <ele>505.328138</ele>
        <time>2022-04-24T10:08:08.714Z</time>
      </trkpt>
      <trkpt lat="41.88637" lon="20.97237">
        <ele>505.365235</ele>
        <time>2022-04-24T10:08:10.718Z</time>
      </trkpt>
      <trkpt lat="41.88627" lon="20.97239">
        <ele>505.402773</ele>
        <time>2022-04-24T10:08:12.724Z</time>
      </trkpt>
      <trkpt lat="41.88617" lon="20.9724">
        <ele>505.439496</ele>
        <time>2022-04-24T10:08:14.716Z</time>
      </trkpt>
      <trkpt lat="41.88608" lon="20.97242">
        <ele>505.475208</ele>
        <time>2022-04-24T10:08:16.727Z</time>
      </trkpt>
      <trkpt lat="41.88598" lon="20.97244">
        <ele>505.538628</ele>
        <time>2022-04-24T10:08:18.723Z</time>
      </trkpt>
      <trkpt lat="41.88589" lon="20.97247">
        <ele>505.646</ele>
        <time>2022-04-24T10:08:20.723Z</time>
      </trkpt>
      <trkpt lat="41.8858" lon="20.9725">
        <ele>505.757553</ele>
        <time>2022-04-24T10:08:22.715Z</time>
      </trkpt>
      <trkpt lat="41.8857" lon="20.97254">
        <ele>505.870393</ele>
        <time>2022-04-24T10:08:24.730Z</time>
      </trkpt>
      <trkpt lat="41.8856" lon="20.97258">
        <ele>505.982147</ele>
        <time>2022-04-24T10:08:26.709Z</time>
      </trkpt>
      <trkpt lat="41.88551" lon="20.97262">
        <ele>506.090649</ele>
        <time>2022-04-24T10:08:28.707Z</time>
      </trkpt>
      <trkpt lat="41.88542" lon="20.97266">
        <ele>506.196163</ele>
        <time>2022-04-24T10:08:30.723Z</time>
      </trkpt>
      <trkpt lat="41.88533" lon="20.9727">
        <ele>506.303831</ele>
        <time>2022-04-24T10:08:32.711Z</time>
      </trkpt>
      <trkpt lat="41.88524" lon="20.97274">
        <ele>506.412009</ele>
        <time>2022-04-24T10:08:34.722Z</time>
      </trkpt>
      <trkpt lat="41.88515" lon="20.97277">
        <ele>506.523763</ele>
        <time>2022-04-24T10:08:36.718Z</time>
      </trkpt>
      <trkpt lat="41.88505" lon="20.9728">
        <ele>506.636415</ele>
        <time>2022-04-24T10:08:38.731Z</time>
      </trkpt>
      <trkpt lat="41.88496" lon="20.97284">
        <ele>506.747493</ele>
        <time>2022-04-24T10:08:40.730Z</time>
      </trkpt>
      <trkpt lat="41.88486" lon="20.97288">
        <ele>506.857568</ele>
        <time>2022-04-24T10:08:42.710Z</time>
      </trkpt>
      <trkpt lat="41.88477" lon="20.97291">
        <ele>506.969559</ele>
        <time>2022-04-24T10:08:44.729Z</time>
      </trkpt>
      <trkpt lat="41.88467" lon="20.97295">
        <ele>507.085281</ele>
        <time>2022-04-24T10:08:46.738Z</time>
      </trkpt>
      <trkpt lat="41.88457" lon="20.973">
        <ele>507.202835</ele>
        <time>2022-04-24T10:08:48.721Z</time>
      </trkpt>
      <trkpt lat="41.88447" lon="20.97304">
        <ele>507.318079</ele>
        <time>2022-04-24T10:08:50.719Z</time>
      </trkpt>
      <trkpt lat="41.88438" lon="20.97307">
        <ele>507.428515</ele>
        <time>2022-04-24T10:08:52.738Z</time>
      </trkpt>
      <trkpt lat="41.88429" lon="20.97311">
        <ele>507.531813</ele>
        <time>2022-04-24T10:08:54.727Z</time>
      </trkpt>
      <trkpt lat="41.8842" lon="20.97314">
        <ele>507.557488</ele>
        <time>2022-04-24T10:08:56.713Z</time>
      </trkpt>
      <trkpt lat="41.8841" lon="20.97318">
        <ele>507.582947</ele>
        <time>2022-04-24T10:08:58.715Z</time>
      </trkpt>
      <trkpt lat="41.88401" lon="20.97321">
        <ele>507.60851</ele>
        <time>2022-04-24T10:09:00.716Z</time>
      </trkpt>
      <trkpt lat="41.88392" lon="20.97325">
        <ele>507.6349</ele>
        <time>2022-04-24T10:09:02.718Z</time>
      </trkpt>
      <trkpt lat="41.88382" lon="20.97328">
        <ele>507.660464</ele>
        <time>2022-04-24T10:09:04.710Z</time>
      </trkpt>
      <trkpt lat="41.88373" lon="20.97332">
        <ele>507.686543</ele>
        <time>2022-04-24T10:09:06.714Z</time>
      </trkpt>
      <trkpt lat="41.88363" lon="20.97335">
        <ele>507.714016</ele>
        <time>2022-04-24T10:09:08.702Z</time>
      </trkpt>
      <trkpt lat="41.88353" lon="20.97339">
        <ele>507.741489</ele>
        <time>2022-04-24T10:09:10.729Z</time>
      </trkpt>
      <trkpt lat="41.88343" lon="20.97343">
        <ele>507.768963</ele>
        <time>2022-04-24T10:09:12.725Z</time>
      </trkpt>
      <trkpt lat="41.88334" lon="20.97346">
        <ele>507.795353</ele>
        <time>2022-04-24T10:09:14.715Z</time>
      </trkpt>
      <trkpt lat="41.88324" lon="20.9735">
        <ele>507.821853</ele>
        <time>2022-04-24T10:09:16.710Z</time>
      </trkpt>
      <trkpt lat="41.88315" lon="20.97354">
        <ele>507.847417</ele>
        <time>2022-04-24T10:09:18.712Z</time>
      </trkpt>
      <trkpt lat="41.88306" lon="20.97357">
        <ele>507.872267</ele>
        <time>2022-04-24T10:09:20.722Z</time>
      </trkpt>
      <trkpt lat="41.88293" lon="20.97363">
        <ele>507.908275</ele>
        <time>2022-04-24T10:09:23.729Z</time>
      </trkpt>
      <trkpt lat="41.88285" lon="20.97366">
        <ele>507.932756</ele>
        <time>2022-04-24T10:09:25.723Z</time>
      </trkpt>
      <trkpt lat="41.88276" lon="20.9737">
        <ele>507.95735</ele>
        <time>2022-04-24T10:09:27.710Z</time>
      </trkpt>
      <trkpt lat="41.88266" lon="20.97373">
        <ele>507.983225</ele>
        <time>2022-04-24T10:09:29.703Z</time>
      </trkpt>
      <trkpt lat="41.88257" lon="20.97377">
        <ele>508.008901</ele>
        <time>2022-04-24T10:09:31.743Z</time>
      </trkpt>
      <trkpt lat="41.88248" lon="20.97381">
        <ele>507.971574</ele>
        <time>2022-04-24T10:09:33.727Z</time>
      </trkpt>
      <trkpt lat="41.88238" lon="20.97385">
        <ele>507.925556</ele>
        <time>2022-04-24T10:09:35.721Z</time>
      </trkpt>
      <trkpt lat="41.88229" lon="20.97388">
        <ele>507.880785</ele>
        <time>2022-04-24T10:09:37.707Z</time>
      </trkpt>
      <trkpt lat="41.88219" lon="20.97392">
        <ele>507.836072</ele>
        <time>2022-04-24T10:09:39.717Z</time>
      </trkpt>
      <trkpt lat="41.8821" lon="20.97396">
        <ele>507.791691</ele>
        <time>2022-04-24T10:09:41.699Z</time>
      </trkpt>
      <trkpt lat="41.88201" lon="20.974">
        <ele>507.748044</ele>
        <time>2022-04-24T10:09:43.721Z</time>
      </trkpt>
      <trkpt lat="41.88192" lon="20.97404">
        <ele>507.704397</ele>
        <time>2022-04-24T10:09:45.710Z</time>
      </trkpt>
      <trkpt lat="41.88182" lon="20.97407">
        <ele>507.658131</ele>
        <time>2022-04-24T10:09:47.705Z</time>
      </trkpt>
      <trkpt lat="41.88172" lon="20.97411">
        <ele>507.611915</ele>
        <time>2022-04-24T10:09:49.721Z</time>
      </trkpt>
      <trkpt lat="41.88162" lon="20.97415">
        <ele>507.565739</ele>
        <time>2022-04-24T10:09:51.714Z</time>
      </trkpt>
      <trkpt lat="41.88152" lon="20.97419">
        <ele>507.517721</ele>
        <time>2022-04-24T10:09:53.719Z</time>
      </trkpt>
      <trkpt lat="41.88142" lon="20.97423">
        <ele>507.469332</ele>
        <time>2022-04-24T10:09:55.715Z</time>
      </trkpt>
      <trkpt lat="41.88132" lon="20.97427">
        <ele>507.421713</ele>
        <time>2022-04-24T10:09:57.712Z</time>
      </trkpt>
      <trkpt lat="41.88122" lon="20.97431">
        <ele>507.37356</ele>
        <time>2022-04-24T10:09:59.717Z</time>
      </trkpt>
      <trkpt lat="41.88112" lon="20.97436">
        <ele>507.325197</ele>
        <time>2022-04-24T10:10:01.771Z</time>
      </trkpt>
      <trkpt lat="41.88102" lon="20.9744">
        <ele>507.277043</ele>
        <time>2022-04-24T10:10:03.716Z</time>
      </trkpt>
      <trkpt lat="41.88092" lon="20.97444">
        <ele>507.229551</ele>
        <time>2022-04-24T10:10:05.699Z</time>
      </trkpt>
      <trkpt lat="41.88081" lon="20.97447">
        <ele>507.193365</ele>
        <time>2022-04-24T10:10:07.774Z</time>
      </trkpt>
      <trkpt lat="41.88072" lon="20.97451">
        <ele>507.190605</ele>
        <time>2022-04-24T10:10:09.723Z</time>
      </trkpt>
      <trkpt lat="41.88062" lon="20.97455">
        <ele>507.187885</ele>
        <time>2022-04-24T10:10:11.711Z</time>
      </trkpt>
      <trkpt lat="41.88052" lon="20.97459">
        <ele>507.185002</ele>
        <time>2022-04-24T10:10:13.710Z</time>
      </trkpt>
      <trkpt lat="41.88042" lon="20.97463">
        <ele>507.182216</ele>
        <time>2022-04-24T10:10:15.718Z</time>
      </trkpt>
      <trkpt lat="41.88032" lon="20.97466">
        <ele>507.179413</ele>
        <time>2022-04-24T10:10:17.710Z</time>
      </trkpt>
      <trkpt lat="41.88022" lon="20.97469">
        <ele>507.176545</ele>
        <time>2022-04-24T10:10:19.716Z</time>
      </trkpt>
      <trkpt lat="41.88012" lon="20.97472">
        <ele>507.173749</ele>
        <time>2022-04-24T10:10:21.719Z</time>
      </trkpt>
      <trkpt lat="41.88003" lon="20.97474">
        <ele>507.171092</ele>
        <time>2022-04-24T10:10:23.715Z</time>
      </trkpt>
      <trkpt lat="41.87993" lon="20.97476">
        <ele>507.168528</ele>
        <time>2022-04-24T10:10:25.717Z</time>
      </trkpt>
      <trkpt lat="41.87984" lon="20.97477">
        <ele>507.165968</ele>
        <time>2022-04-24T10:10:27.715Z</time>
      </trkpt>
      <trkpt lat="41.87975" lon="20.97478">
        <ele>507.163445</ele>
        <time>2022-04-24T10:10:29.725Z</time>
      </trkpt>
      <trkpt lat="41.87965" lon="20.97479">
        <ele>507.160646</ele>
        <time>2022-04-24T10:10:31.693Z</time>
      </trkpt>
      <trkpt lat="41.87955" lon="20.9748">
        <ele>507.157871</ele>
        <time>2022-04-24T10:10:33.711Z</time>
      </trkpt>
      <trkpt lat="41.87945" lon="20.97481">
        <ele>507.155173</ele>
        <time>2022-04-24T10:10:35.728Z</time>
      </trkpt>
      <trkpt lat="41.87935" lon="20.97482">
        <ele>507.152598</ele>
        <time>2022-04-24T10:10:37.718Z</time>
      </trkpt>
      <trkpt lat="41.87926" lon="20.97482">
        <ele>507.149912</ele>
        <time>2022-04-24T10:10:39.719Z</time>
      </trkpt>
      <trkpt lat="41.87916" lon="20.97483">
        <ele>507.147253</ele>
        <time>2022-04-24T10:10:41.722Z</time>
      </trkpt>
      <trkpt lat="41.87906" lon="20.97484">
        <ele>507.154932</ele>
        <time>2022-04-24T10:10:43.721Z</time>
      </trkpt>
      <trkpt lat="41.87896" lon="20.97485">
        <ele>507.257841</ele>
        <time>2022-04-24T10:10:45.715Z</time>
      </trkpt>
      <trkpt lat="41.87886" lon="20.97486">
        <ele>507.364832</ele>
        <time>2022-04-24T10:10:47.702Z</time>
      </trkpt>
      <trkpt lat="41.87877" lon="20.97487">
        <ele>507.468606</ele>
        <time>2022-04-24T10:10:49.724Z</time>
      </trkpt>
      <trkpt lat="41.87863" lon="20.97488">
        <ele>507.607143</ele>
        <time>2022-04-24T10:10:52.706Z</time>
      </trkpt>
      <trkpt lat="41.8785" lon="20.97488">
        <ele>507.749902</ele>
        <time>2022-04-24T10:10:55.713Z</time>
      </trkpt>
      <trkpt lat="41.87836" lon="20.97489">
        <ele>507.893794</ele>
        <time>2022-04-24T10:10:58.723Z</time>
      </trkpt>
      <trkpt lat="41.87827" lon="20.9749">
        <ele>507.993253</ele>
        <time>2022-04-24T10:11:00.710Z</time>
      </trkpt>
      <trkpt lat="41.87817" lon="20.97491">
        <ele>508.094058</ele>
        <time>2022-04-24T10:11:02.711Z</time>
      </trkpt>
      <trkpt lat="41.87808" lon="20.97493">
        <ele>508.199309</ele>
        <time>2022-04-24T10:11:04.710Z</time>
      </trkpt>
      <trkpt lat="41.87798" lon="20.97494">
        <ele>508.303032</ele>
        <time>2022-04-24T10:11:06.710Z</time>
      </trkpt>
      <trkpt lat="41.87788" lon="20.97494">
        <ele>508.408914</ele>
        <time>2022-04-24T10:11:08.718Z</time>
      </trkpt>
      <trkpt lat="41.87779" lon="20.97495">
        <ele>508.506425</ele>
        <time>2022-04-24T10:11:10.721Z</time>
      </trkpt>
      <trkpt lat="41.87769" lon="20.97496">
        <ele>508.611308</ele>
        <time>2022-04-24T10:11:12.703Z</time>
      </trkpt>
      <trkpt lat="41.87759" lon="20.97498">
        <ele>508.71836</ele>
        <time>2022-04-24T10:11:14.729Z</time>
      </trkpt>
      <trkpt lat="41.87748" lon="20.97498">
        <ele>508.825246</ele>
        <time>2022-04-24T10:11:16.729Z</time>
      </trkpt>
      <trkpt lat="41.87738" lon="20.97499">
        <ele>508.933291</ele>
        <time>2022-04-24T10:11:18.727Z</time>
      </trkpt>
      <trkpt lat="41.87728" lon="20.975">
        <ele>509.037121</ele>
        <time>2022-04-24T10:11:20.722Z</time>
      </trkpt>
      <trkpt lat="41.87719" lon="20.97501">
        <ele>509.062792</ele>
        <time>2022-04-24T10:11:22.702Z</time>
      </trkpt>
      <trkpt lat="41.8771" lon="20.97503">
        <ele>509.081381</ele>
        <time>2022-04-24T10:11:24.723Z</time>
      </trkpt>
      <trkpt lat="41.877" lon="20.97506">
        <ele>509.101029</ele>
        <time>2022-04-24T10:11:26.724Z</time>
      </trkpt>
      <trkpt lat="41.87691" lon="20.97509">
        <ele>509.120313</ele>
        <time>2022-04-24T10:11:28.722Z</time>
      </trkpt>
      <trkpt lat="41.87681" lon="20.97512">
        <ele>509.140521</ele>
        <time>2022-04-24T10:11:30.726Z</time>
      </trkpt>
      <trkpt lat="41.87672" lon="20.97517">
        <ele>509.160903</ele>
        <time>2022-04-24T10:11:32.731Z</time>
      </trkpt>
      <trkpt lat="41.87662" lon="20.97521">
        <ele>509.181187</ele>
        <time>2022-04-24T10:11:34.709Z</time>
      </trkpt>
      <trkpt lat="41.87653" lon="20.97524">
        <ele>509.201275</ele>
        <time>2022-04-24T10:11:36.708Z</time>
      </trkpt>
      <trkpt lat="41.87643" lon="20.97527">
        <ele>509.221021</ele>
        <time>2022-04-24T10:11:38.726Z</time>
      </trkpt>
      <trkpt lat="41.87634" lon="20.97531">
        <ele>509.240258</ele>
        <time>2022-04-24T10:11:40.718Z</time>
      </trkpt>
      <trkpt lat="41.87625" lon="20.97535">
        <ele>509.259995</ele>
        <time>2022-04-24T10:11:42.742Z</time>
      </trkpt>
      <trkpt lat="41.87616" lon="20.97538">
        <ele>509.279426</ele>
        <time>2022-04-24T10:11:44.688Z</time>
      </trkpt>
      <trkpt lat="41.87607" lon="20.97542">
        <ele>509.298655</ele>
        <time>2022-04-24T10:11:46.699Z</time>
      </trkpt>
      <trkpt lat="41.87598" lon="20.97547">
        <ele>509.317742</ele>
        <time>2022-04-24T10:11:48.726Z</time>
      </trkpt>
      <trkpt lat="41.87588" lon="20.9755">
        <ele>509.337411</ele>
        <time>2022-04-24T10:11:50.721Z</time>
      </trkpt>
      <trkpt lat="41.87579" lon="20.97554">
        <ele>509.3568</ele>
        <time>2022-04-24T10:11:52.719Z</time>
      </trkpt>
      <trkpt lat="41.8757" lon="20.97558">
        <ele>509.375994</ele>
        <time>2022-04-24T10:11:54.714Z</time>
      </trkpt>
      <trkpt lat="41.87561" lon="20.97561">
        <ele>509.396008</ele>
        <time>2022-04-24T10:11:56.708Z</time>
      </trkpt>
      <trkpt lat="41.87551" lon="20.97565">
        <ele>509.38939</ele>
        <time>2022-04-24T10:11:58.712Z</time>
      </trkpt>
      <trkpt lat="41.87541" lon="20.97569">
        <ele>509.338928</ele>
        <time>2022-04-24T10:12:00.699Z</time>
      </trkpt>
      <trkpt lat="41.87531" lon="20.97574">
        <ele>509.287295</ele>
        <time>2022-04-24T10:12:02.699Z</time>
      </trkpt>
      <trkpt lat="41.87521" lon="20.97578">
        <ele>509.236247</ele>
        <time>2022-04-24T10:12:04.705Z</time>
      </trkpt>
      <trkpt lat="41.87512" lon="20.97583">
        <ele>509.185076</ele>
        <time>2022-04-24T10:12:06.714Z</time>
      </trkpt>
      <trkpt lat="41.87502" lon="20.97589">
        <ele>509.133429</ele>
        <time>2022-04-24T10:12:08.723Z</time>
      </trkpt>
      <trkpt lat="41.87494" lon="20.97597">
        <ele>509.083351</ele>
        <time>2022-04-24T10:12:10.708Z</time>
      </trkpt>
      <trkpt lat="41.87487" lon="20.97607">
        <ele>509.033783</ele>
        <time>2022-04-24T10:12:12.715Z</time>
      </trkpt>
      <trkpt lat="41.87481" lon="20.97617">
        <ele>508.982443</ele>
        <time>2022-04-24T10:12:14.705Z</time>
      </trkpt>
      <trkpt lat="41.87475" lon="20.97629">
        <ele>508.931979</ele>
        <time>2022-04-24T10:12:16.725Z</time>
      </trkpt>
      <trkpt lat="41.87469" lon="20.9764">
        <ele>508.881207</ele>
        <time>2022-04-24T10:12:18.715Z</time>
      </trkpt>
      <trkpt lat="41.87464" lon="20.97652">
        <ele>508.827455</ele>
        <time>2022-04-24T10:12:20.714Z</time>
      </trkpt>
      <trkpt lat="41.87458" lon="20.97665">
        <ele>508.774236</ele>
        <time>2022-04-24T10:12:22.712Z</time>
      </trkpt>
      <trkpt lat="41.87452" lon="20.97677">
        <ele>508.721064</ele>
        <time>2022-04-24T10:12:24.717Z</time>
      </trkpt>
      <trkpt lat="41.87446" lon="20.97689">
        <ele>508.668108</ele>
        <time>2022-04-24T10:12:26.715Z</time>
      </trkpt>
      <trkpt lat="41.87441" lon="20.97701">
        <ele>508.61541</ele>
        <time>2022-04-24T10:12:28.720Z</time>
      </trkpt>
      <trkpt lat="41.87435" lon="20.97713">
        <ele>508.562713</ele>
        <time>2022-04-24T10:12:30.717Z</time>
      </trkpt>
      <trkpt lat="41.8743" lon="20.97726">
        <ele>508.516175</ele>
        <time>2022-04-24T10:12:32.707Z</time>
      </trkpt>
      <trkpt lat="41.87424" lon="20.97739">
        <ele>508.514501</ele>
        <time>2022-04-24T10:12:34.715Z</time>
      </trkpt>
      <trkpt lat="41.87417" lon="20.97751">
        <ele>508.512829</ele>
        <time>2022-04-24T10:12:36.711Z</time>
      </trkpt>
      <trkpt lat="41.8741" lon="20.97762">
        <ele>508.51118</ele>
        <time>2022-04-24T10:12:38.756Z</time>
      </trkpt>
      <trkpt lat="41.87401" lon="20.97772">
        <ele>508.509573</ele>
        <time>2022-04-24T10:12:40.717Z</time>
      </trkpt>
      <trkpt lat="41.8739" lon="20.97778">
        <ele>508.507797</ele>
        <time>2022-04-24T10:12:42.718Z</time>
      </trkpt>
      <trkpt lat="41.87379" lon="20.9778">
        <ele>508.506093</ele>
        <time>2022-04-24T10:12:44.696Z</time>
      </trkpt>
      <trkpt lat="41.87368" lon="20.9778">
        <ele>508.504434</ele>
        <time>2022-04-24T10:12:46.736Z</time>
      </trkpt>
      <trkpt lat="41.87357" lon="20.97781">
        <ele>508.502831</ele>
        <time>2022-04-24T10:12:48.721Z</time>
      </trkpt>
      <trkpt lat="41.87347" lon="20.97783">
        <ele>508.501314</ele>
        <time>2022-04-24T10:12:50.714Z</time>
      </trkpt>
      <trkpt lat="41.87336" lon="20.97784">
        <ele>508.499785</ele>
        <time>2022-04-24T10:12:52.735Z</time>
      </trkpt>
      <trkpt lat="41.87326" lon="20.97785">
        <ele>508.49827</ele>
        <time>2022-04-24T10:12:54.732Z</time>
      </trkpt>
      <trkpt lat="41.87316" lon="20.97786">
        <ele>508.49678</ele>
        <time>2022-04-24T10:12:56.709Z</time>
      </trkpt>
      <trkpt lat="41.87306" lon="20.97788">
        <ele>508.495274</ele>
        <time>2022-04-24T10:12:58.719Z</time>
      </trkpt>
      <trkpt lat="41.87297" lon="20.97789">
        <ele>508.49385</ele>
        <time>2022-04-24T10:13:00.734Z</time>
      </trkpt>
      <trkpt lat="41.87287" lon="20.9779">
        <ele>508.492378</ele>
        <time>2022-04-24T10:13:02.719Z</time>
      </trkpt>
      <trkpt lat="41.87277" lon="20.97791">
        <ele>508.490919</ele>
        <time>2022-04-24T10:13:04.702Z</time>
      </trkpt>
      <trkpt lat="41.87267" lon="20.97793">
        <ele>508.493108</ele>
        <time>2022-04-24T10:13:06.707Z</time>
      </trkpt>
      <trkpt lat="41.87254" lon="20.97795">
        <ele>508.518935</ele>
        <time>2022-04-24T10:13:09.715Z</time>
      </trkpt>
      <trkpt lat="41.87241" lon="20.97797">
        <ele>508.545117</ele>
        <time>2022-04-24T10:13:12.714Z</time>
      </trkpt>
      <trkpt lat="41.87231" lon="20.97798">
        <ele>508.564056</ele>
        <time>2022-04-24T10:13:14.718Z</time>
      </trkpt>
      <trkpt lat="41.87221" lon="20.97799">
        <ele>508.583347</ele>
        <time>2022-04-24T10:13:16.726Z</time>
      </trkpt>
      <trkpt lat="41.87211" lon="20.978">
        <ele>508.603813</ele>
        <time>2022-04-24T10:13:18.718Z</time>
      </trkpt>
      <trkpt lat="41.872" lon="20.97801">
        <ele>508.624714</ele>
        <time>2022-04-24T10:13:20.709Z</time>
      </trkpt>
      <trkpt lat="41.87189" lon="20.97803">
        <ele>508.645437</ele>
        <time>2022-04-24T10:13:22.715Z</time>
      </trkpt>
      <trkpt lat="41.87178" lon="20.97804">
        <ele>508.6671</ele>
        <time>2022-04-24T10:13:24.711Z</time>
      </trkpt>
      <trkpt lat="41.87168" lon="20.97805">
        <ele>508.688157</ele>
        <time>2022-04-24T10:13:26.710Z</time>
      </trkpt>
      <trkpt lat="41.87157" lon="20.97806">
        <ele>508.708285</ele>
        <time>2022-04-24T10:13:28.754Z</time>
      </trkpt>
      <trkpt lat="41.87147" lon="20.97808">
        <ele>508.728251</ele>
        <time>2022-04-24T10:13:30.725Z</time>
      </trkpt>
      <trkpt lat="41.87137" lon="20.97809">
        <ele>508.747784</ele>
        <time>2022-04-24T10:13:32.714Z</time>
      </trkpt>
      <trkpt lat="41.87127" lon="20.97811">
        <ele>508.766784</ele>
        <time>2022-04-24T10:13:34.705Z</time>
      </trkpt>
      <trkpt lat="41.87118" lon="20.97813">
        <ele>508.786078</ele>
        <time>2022-04-24T10:13:36.700Z</time>
      </trkpt>
      <trkpt lat="41.87108" lon="20.97814">
        <ele>508.805418</ele>
        <time>2022-04-24T10:13:38.711Z</time>
      </trkpt>
      <trkpt lat="41.87098" lon="20.97815">
        <ele>508.824332</ele>
        <time>2022-04-24T10:13:40.727Z</time>
      </trkpt>
      <trkpt lat="41.87088" lon="20.97816">
        <ele>508.843921</ele>
        <time>2022-04-24T10:13:42.726Z</time>
      </trkpt>
      <trkpt lat="41.87079" lon="20.97817">
        <ele>508.865052</ele>
        <time>2022-04-24T10:13:44.711Z</time>
      </trkpt>
      <trkpt lat="41.87069" lon="20.97819">
        <ele>508.88553</ele>
        <time>2022-04-24T10:13:46.699Z</time>
      </trkpt>
      <trkpt lat="41.8706" lon="20.9782">
        <ele>508.905951</ele>
        <time>2022-04-24T10:13:48.729Z</time>
      </trkpt>
      <trkpt lat="41.87051" lon="20.97821">
        <ele>508.926724</ele>
        <time>2022-04-24T10:13:50.733Z</time>
      </trkpt>
      <trkpt lat="41.8704" lon="20.97822">
        <ele>508.949959</ele>
        <time>2022-04-24T10:13:53.719Z</time>
      </trkpt>
      <trkpt lat="41.87028" lon="20.97824">
        <ele>508.975498</ele>
        <time>2022-04-24T10:13:56.708Z</time>
      </trkpt>
      <trkpt lat="41.87016" lon="20.97824">
        <ele>509.002673</ele>
        <time>2022-04-24T10:13:59.725Z</time>
      </trkpt>
      <trkpt lat="41.87003" lon="20.97827">
        <ele>509.032085</ele>
        <time>2022-04-24T10:14:02.714Z</time>
      </trkpt>
      <trkpt lat="41.86993" lon="20.97828">
        <ele>509.053469</ele>
        <time>2022-04-24T10:14:04.698Z</time>
      </trkpt>
      <trkpt lat="41.86982" lon="20.97831">
        <ele>509.077444</ele>
        <time>2022-04-24T10:14:06.714Z</time>
      </trkpt>
      <trkpt lat="41.86972" lon="20.97834">
        <ele>509.100925</ele>
        <time>2022-04-24T10:14:08.722Z</time>
      </trkpt>
      <trkpt lat="41.86963" lon="20.97839">
        <ele>509.121525</ele>
        <time>2022-04-24T10:14:10.722Z</time>
      </trkpt>
      <trkpt lat="41.86954" lon="20.97845">
        <ele>509.143329</ele>
        <time>2022-04-24T10:14:12.719Z</time>
      </trkpt>
      <trkpt lat="41.86945" lon="20.97854">
        <ele>509.167421</ele>
        <time>2022-04-24T10:14:14.712Z</time>
      </trkpt>
      <trkpt lat="41.86937" lon="20.97863">
        <ele>509.191374</ele>
        <time>2022-04-24T10:14:16.702Z</time>
      </trkpt>
      <trkpt lat="41.86928" lon="20.97872">
        <ele>509.215727</ele>
        <time>2022-04-24T10:14:18.723Z</time>
      </trkpt>
      <trkpt lat="41.86919" lon="20.97881">
        <ele>509.266423</ele>
        <time>2022-04-24T10:14:20.708Z</time>
      </trkpt>
      <trkpt lat="41.86909" lon="20.97891">
        <ele>509.385565</ele>
        <time>2022-04-24T10:14:22.711Z</time>
      </trkpt>
      <trkpt lat="41.869" lon="20.97902">
        <ele>509.502826</ele>
        <time>2022-04-24T10:14:24.712Z</time>
      </trkpt>
      <trkpt lat="41.86892" lon="20.97912">
        <ele>509.611098</ele>
        <time>2022-04-24T10:14:26.712Z</time>
      </trkpt>
      <trkpt lat="41.86884" lon="20.97922">
        <ele>509.717894</ele>
        <time>2022-04-24T10:14:28.707Z</time>
      </trkpt>
      <trkpt lat="41.86876" lon="20.97931">
        <ele>509.820121</ele>
        <time>2022-04-24T10:14:30.714Z</time>
      </trkpt>
      <trkpt lat="41.86868" lon="20.9794">
        <ele>509.925839</ele>
        <time>2022-04-24T10:14:32.706Z</time>
      </trkpt>
      <trkpt lat="41.86858" lon="20.97949">
        <ele>510.038635</ele>
        <time>2022-04-24T10:14:34.711Z</time>
      </trkpt>
      <trkpt lat="41.86848" lon="20.97959">
        <ele>510.160266</ele>
        <time>2022-04-24T10:14:36.712Z</time>
      </trkpt>
      <trkpt lat="41.86839" lon="20.97969">
        <ele>510.276968</ele>
        <time>2022-04-24T10:14:38.721Z</time>
      </trkpt>
      <trkpt lat="41.8683" lon="20.97979">
        <ele>510.38698</ele>
        <time>2022-04-24T10:14:40.711Z</time>
      </trkpt>
      <trkpt lat="41.86822" lon="20.97988">
        <ele>510.492324</ele>
        <time>2022-04-24T10:14:42.710Z</time>
      </trkpt>
      <trkpt lat="41.86815" lon="20.97998">
        <ele>510.592435</ele>
        <time>2022-04-24T10:14:44.698Z</time>
      </trkpt>
      <trkpt lat="41.86811" lon="20.98009">
        <ele>510.681729</ele>
        <time>2022-04-24T10:14:46.713Z</time>
      </trkpt>
      <trkpt lat="41.86808" lon="20.98022">
        <ele>510.780535</ele>
        <time>2022-04-24T10:14:48.715Z</time>
      </trkpt>
      <trkpt lat="41.86807" lon="20.98035">
        <ele>510.876337</ele>
        <time>2022-04-24T10:14:50.711Z</time>
      </trkpt>
      <trkpt lat="41.86807" lon="20.98048">
        <ele>510.974088</ele>
        <time>2022-04-24T10:14:52.714Z</time>
      </trkpt>
      <trkpt lat="41.86808" lon="20.98062">
        <ele>510.948454</ele>
        <time>2022-04-24T10:14:54.702Z</time>
      </trkpt>
      <trkpt lat="41.86808" lon="20.98075">
        <ele>510.89171</ele>
        <time>2022-04-24T10:14:56.710Z</time>
      </trkpt>
      <trkpt lat="41.86808" lon="20.98088">
        <ele>510.833722</ele>
        <time>2022-04-24T10:14:58.714Z</time>
      </trkpt>
      <trkpt lat="41.86809" lon="20.98103">
        <ele>510.768642</ele>
        <time>2022-04-24T10:15:00.719Z</time>
      </trkpt>
      <trkpt lat="41.86811" lon="20.98118">
        <ele>510.702842</ele>
        <time>2022-04-24T10:15:02.705Z</time>
      </trkpt>
      <trkpt lat="41.86813" lon="20.98131">
        <ele>510.643576</ele>
        <time>2022-04-24T10:15:04.713Z</time>
      </trkpt>
      <trkpt lat="41.86815" lon="20.98144">
        <ele>510.58533</ele>
        <time>2022-04-24T10:15:06.711Z</time>
      </trkpt>
      <trkpt lat="41.86819" lon="20.98156">
        <ele>510.531579</ele>
        <time>2022-04-24T10:15:08.717Z</time>
      </trkpt>
      <trkpt lat="41.86827" lon="20.9817">
        <ele>510.453264</ele>
        <time>2022-04-24T10:15:11.703Z</time>
      </trkpt>
      <trkpt lat="41.86834" lon="20.98178">
        <ele>510.397379</ele>
        <time>2022-04-24T10:15:13.719Z</time>
      </trkpt>
      <trkpt lat="41.86842" lon="20.98186">
        <ele>510.340515</ele>
        <time>2022-04-24T10:15:15.703Z</time>
      </trkpt>
      <trkpt lat="41.8685" lon="20.98193">
        <ele>510.281467</ele>
        <time>2022-04-24T10:15:17.714Z</time>
      </trkpt>
      <trkpt lat="41.86858" lon="20.982">
        <ele>510.226232</ele>
        <time>2022-04-24T10:15:19.731Z</time>
      </trkpt>
      <trkpt lat="41.86866" lon="20.98208">
        <ele>510.168889</ele>
        <time>2022-04-24T10:15:21.746Z</time>
      </trkpt>
      <trkpt lat="41.86873" lon="20.98219">
        <ele>510.105763</ele>
        <time>2022-04-24T10:15:23.698Z</time>
      </trkpt>
      <trkpt lat="41.86878" lon="20.98233">
        <ele>510.039924</ele>
        <time>2022-04-24T10:15:25.706Z</time>
      </trkpt>
      <trkpt lat="41.86878" lon="20.98247">
        <ele>509.976585</ele>
        <time>2022-04-24T10:15:27.713Z</time>
      </trkpt>
      <trkpt lat="41.86877" lon="20.98263">
        <ele>509.97268</ele>
        <time>2022-04-24T10:15:29.694Z</time>
      </trkpt>
      <trkpt lat="41.86877" lon="20.98278">
        <ele>510.033106</ele>
        <time>2022-04-24T10:15:31.710Z</time>
      </trkpt>
      <trkpt lat="41.86877" lon="20.98292">
        <ele>510.089855</ele>
        <time>2022-04-24T10:15:33.704Z</time>
      </trkpt>
      <trkpt lat="41.86878" lon="20.98305">
        <ele>510.144592</ele>
        <time>2022-04-24T10:15:35.720Z</time>
      </trkpt>
      <trkpt lat="41.86878" lon="20.98318">
        <ele>510.198113</ele>
        <time>2022-04-24T10:15:37.718Z</time>
      </trkpt>
      <trkpt lat="41.86879" lon="20.98332">
        <ele>510.253152</ele>
        <time>2022-04-24T10:15:39.759Z</time>
      </trkpt>
      <trkpt lat="41.86879" lon="20.98346">
        <ele>510.309901</ele>
        <time>2022-04-24T10:15:41.716Z</time>
      </trkpt>
      <trkpt lat="41.86878" lon="20.9836">
        <ele>510.367079</ele>
        <time>2022-04-24T10:15:43.729Z</time>
      </trkpt>
      <trkpt lat="41.86876" lon="20.98373">
        <ele>510.421672</ele>
        <time>2022-04-24T10:15:45.713Z</time>
      </trkpt>
      <trkpt lat="41.86872" lon="20.98386">
        <ele>510.479045</ele>
        <time>2022-04-24T10:15:47.708Z</time>
      </trkpt>
      <trkpt lat="41.86868" lon="20.984">
        <ele>510.538342</ele>
        <time>2022-04-24T10:15:49.735Z</time>
      </trkpt>
      <trkpt lat="41.86863" lon="20.98412">
        <ele>510.593041</ele>
        <time>2022-04-24T10:15:51.730Z</time>
      </trkpt>
      <trkpt lat="41.86859" lon="20.98423">
        <ele>510.644348</ele>
        <time>2022-04-24T10:15:53.729Z</time>
      </trkpt>
      <trkpt lat="41.86855" lon="20.98434">
        <ele>510.695895</ele>
        <time>2022-04-24T10:15:55.721Z</time>
      </trkpt>
      <trkpt lat="41.86851" lon="20.98446">
        <ele>510.7483</ele>
        <time>2022-04-24T10:15:57.718Z</time>
      </trkpt>
      <trkpt lat="41.86846" lon="20.98458">
        <ele>510.801563</ele>
        <time>2022-04-24T10:15:59.715Z</time>
      </trkpt>
      <trkpt lat="41.86842" lon="20.98469">
        <ele>510.852506</ele>
        <time>2022-04-24T10:16:01.711Z</time>
      </trkpt>
      <trkpt lat="41.86838" lon="20.9848">
        <ele>510.902482</ele>
        <time>2022-04-24T10:16:03.715Z</time>
      </trkpt>
      <trkpt lat="41.86833" lon="20.98495">
        <ele>511.079815</ele>
        <time>2022-04-24T10:16:06.713Z</time>
      </trkpt>
      <trkpt lat="41.86829" lon="20.9851">
        <ele>511.277044</ele>
        <time>2022-04-24T10:16:09.712Z</time>
      </trkpt>
      <trkpt lat="41.86824" lon="20.98524">
        <ele>511.468603</ele>
        <time>2022-04-24T10:16:12.707Z</time>
      </trkpt>
      <trkpt lat="41.8682" lon="20.98537">
        <ele>511.648719</ele>
        <time>2022-04-24T10:16:15.715Z</time>
      </trkpt>
      <trkpt lat="41.86816" lon="20.98549">
        <ele>511.822102</ele>
        <time>2022-04-24T10:16:18.720Z</time>
      </trkpt>
      <trkpt lat="41.86813" lon="20.98561">
        <ele>511.991751</ele>
        <time>2022-04-24T10:16:21.700Z</time>
      </trkpt>
      <trkpt lat="41.86809" lon="20.98572">
        <ele>512.147611</ele>
        <time>2022-04-24T10:16:24.712Z</time>
      </trkpt>
      <trkpt lat="41.86805" lon="20.98584">
        <ele>512.305369</ele>
        <time>2022-04-24T10:16:27.716Z</time>
      </trkpt>
      <trkpt lat="41.868" lon="20.98595">
        <ele>512.474973</ele>
        <time>2022-04-24T10:16:30.697Z</time>
      </trkpt>
      <trkpt lat="41.86797" lon="20.98607">
        <ele>512.629759</ele>
        <time>2022-04-24T10:16:33.722Z</time>
      </trkpt>
      <trkpt lat="41.86795" lon="20.98619">
        <ele>512.78794</ele>
        <time>2022-04-24T10:16:36.727Z</time>
      </trkpt>
      <trkpt lat="41.86791" lon="20.98631">
        <ele>512.962505</ele>
        <time>2022-04-24T10:16:39.742Z</time>
      </trkpt>
      <trkpt lat="41.86787" lon="20.98643">
        <ele>513.119256</ele>
        <time>2022-04-24T10:16:42.719Z</time>
      </trkpt>
      <trkpt lat="41.86783" lon="20.98655">
        <ele>513.289623</ele>
        <time>2022-04-24T10:16:45.746Z</time>
      </trkpt>
      <trkpt lat="41.86778" lon="20.98667">
        <ele>513.467497</ele>
        <time>2022-04-24T10:16:48.720Z</time>
      </trkpt>
      <trkpt lat="41.86771" lon="20.98677">
        <ele>513.647055</ele>
        <time>2022-04-24T10:16:51.719Z</time>
      </trkpt>
      <trkpt lat="41.86761" lon="20.98685">
        <ele>513.8502</ele>
        <time>2022-04-24T10:16:54.716Z</time>
      </trkpt>
      <trkpt lat="41.8675" lon="20.9869">
        <ele>514.036667</ele>
        <time>2022-04-24T10:16:57.747Z</time>
      </trkpt>
      <trkpt lat="41.8674" lon="20.98691">
        <ele>514.184698</ele>
        <time>2022-04-24T10:17:00.722Z</time>
      </trkpt>
      <trkpt lat="41.86729" lon="20.98691">
        <ele>514.361155</ele>
        <time>2022-04-24T10:17:04.738Z</time>
      </trkpt>
      <trkpt lat="41.86719" lon="20.98692">
        <ele>514.516599</ele>
        <time>2022-04-24T10:17:07.719Z</time>
      </trkpt>
      <trkpt lat="41.86707" lon="20.98694">
        <ele>514.693709</ele>
        <time>2022-04-24T10:17:10.763Z</time>
      </trkpt>
      <trkpt lat="41.86694" lon="20.98695">
        <ele>514.89179</ele>
        <time>2022-04-24T10:17:13.722Z</time>
      </trkpt>
      <trkpt lat="41.86685" lon="20.98695">
        <ele>515.030176</ele>
        <time>2022-04-24T10:17:15.731Z</time>
      </trkpt>
      <trkpt lat="41.86675" lon="20.98695">
        <ele>515.17922</ele>
        <time>2022-04-24T10:17:17.730Z</time>
      </trkpt>
      <trkpt lat="41.86665" lon="20.98695">
        <ele>515.331293</ele>
        <time>2022-04-24T10:17:19.724Z</time>
      </trkpt>
      <trkpt lat="41.86655" lon="20.98695">
        <ele>515.49098</ele>
        <time>2022-04-24T10:17:21.710Z</time>
      </trkpt>
      <trkpt lat="41.86645" lon="20.98696">
        <ele>515.640282</ele>
        <time>2022-04-24T10:17:23.718Z</time>
      </trkpt>
      <trkpt lat="41.86635" lon="20.98696">
        <ele>515.783388</ele>
        <time>2022-04-24T10:17:25.753Z</time>
      </trkpt>
      <trkpt lat="41.86622" lon="20.98696">
        <ele>515.987162</ele>
        <time>2022-04-24T10:17:28.740Z</time>
      </trkpt>
      <trkpt lat="41.86613" lon="20.98697">
        <ele>516.127179</ele>
        <time>2022-04-24T10:17:30.699Z</time>
      </trkpt>
      <trkpt lat="41.86604" lon="20.98697">
        <ele>516.26558</ele>
        <time>2022-04-24T10:17:32.713Z</time>
      </trkpt>
      <trkpt lat="41.86594" lon="20.98697">
        <ele>516.408685</ele>
        <time>2022-04-24T10:17:34.706Z</time>
      </trkpt>
      <trkpt lat="41.86585" lon="20.98698">
        <ele>516.55033</ele>
        <time>2022-04-24T10:17:36.749Z</time>
      </trkpt>
      <trkpt lat="41.86576" lon="20.98699">
        <ele>516.687309</ele>
        <time>2022-04-24T10:17:38.707Z</time>
      </trkpt>
      <trkpt lat="41.86564" lon="20.98699">
        <ele>516.857396</ele>
        <time>2022-04-24T10:17:41.709Z</time>
      </trkpt>
      <trkpt lat="41.86553" lon="20.98698">
        <ele>517.022387</ele>
        <time>2022-04-24T10:17:44.723Z</time>
      </trkpt>
      <trkpt lat="41.86541" lon="20.98695">
        <ele>517.196252</ele>
        <time>2022-04-24T10:17:47.734Z</time>
      </trkpt>
      <trkpt lat="41.86529" lon="20.98689">
        <ele>517.367837</ele>
        <time>2022-04-24T10:17:50.722Z</time>
      </trkpt>
      <trkpt lat="41.86518" lon="20.98684">
        <ele>517.53465</ele>
        <time>2022-04-24T10:17:53.724Z</time>
      </trkpt>
      <trkpt lat="41.86508" lon="20.98679">
        <ele>517.687081</ele>
        <time>2022-04-24T10:17:56.703Z</time>
      </trkpt>
      <trkpt lat="41.86499" lon="20.98673">
        <ele>517.839095</ele>
        <time>2022-04-24T10:17:59.730Z</time>
      </trkpt>
      <trkpt lat="41.86488" lon="20.98668">
        <ele>517.992257</ele>
        <time>2022-04-24T10:18:02.705Z</time>
      </trkpt>
      <trkpt lat="41.86479" lon="20.98663">
        <ele>518.130914</ele>
        <time>2022-04-24T10:18:05.709Z</time>
      </trkpt>
      <trkpt lat="41.86471" lon="20.98657">
        <ele>518.260087</ele>
        <time>2022-04-24T10:18:08.698Z</time>
      </trkpt>
      <trkpt lat="41.8646" lon="20.98651">
        <ele>518.425585</ele>
        <time>2022-04-24T10:18:12.716Z</time>
      </trkpt>
      <trkpt lat="41.8645" lon="20.98645">
        <ele>518.590583</ele>
        <time>2022-04-24T10:18:16.710Z</time>
      </trkpt>
      <trkpt lat="41.86439" lon="20.9864">
        <ele>518.749118</ele>
        <time>2022-04-24T10:18:20.717Z</time>
      </trkpt>
      <trkpt lat="41.86428" lon="20.98634">
        <ele>518.922534</ele>
        <time>2022-04-24T10:18:24.725Z</time>
      </trkpt>
      <trkpt lat="41.86419" lon="20.98629">
        <ele>519.059068</ele>
        <time>2022-04-24T10:18:27.713Z</time>
      </trkpt>
      <trkpt lat="41.86411" lon="20.98624">
        <ele>519.189064</ele>
        <time>2022-04-24T10:18:30.721Z</time>
      </trkpt>
      <trkpt lat="41.86403" lon="20.98618">
        <ele>519.323175</ele>
        <time>2022-04-24T10:18:33.727Z</time>
      </trkpt>
      <trkpt lat="41.86393" lon="20.9861">
        <ele>519.540204</ele>
        <time>2022-04-24T10:18:37.726Z</time>
      </trkpt>
      <trkpt lat="41.86383" lon="20.98603">
        <ele>519.756126</ele>
        <time>2022-04-24T10:18:41.731Z</time>
      </trkpt>
      <trkpt lat="41.86373" lon="20.98595">
        <ele>519.965489</ele>
        <time>2022-04-24T10:18:45.730Z</time>
      </trkpt>
      <trkpt lat="41.86364" lon="20.98588">
        <ele>520.165567</ele>
        <time>2022-04-24T10:18:49.713Z</time>
      </trkpt>
      <trkpt lat="41.86353" lon="20.98581">
        <ele>520.389119</ele>
        <time>2022-04-24T10:18:53.731Z</time>
      </trkpt>
      <trkpt lat="41.86344" lon="20.98572">
        <ele>520.603484</ele>
        <time>2022-04-24T10:18:57.716Z</time>
      </trkpt>
      <trkpt lat="41.86334" lon="20.98565">
        <ele>520.808204</ele>
        <time>2022-04-24T10:19:01.708Z</time>
      </trkpt>
      <trkpt lat="41.86325" lon="20.98557">
        <ele>521.019504</ele>
        <time>2022-04-24T10:19:05.726Z</time>
      </trkpt>
      <trkpt lat="41.86316" lon="20.98552">
        <ele>521.194885</ele>
        <time>2022-04-24T10:19:08.717Z</time>
      </trkpt>
      <trkpt lat="41.86308" lon="20.98546">
        <ele>521.362662</ele>
        <time>2022-04-24T10:19:11.755Z</time>
      </trkpt>
      <trkpt lat="41.86299" lon="20.98538">
        <ele>521.577027</ele>
        <time>2022-04-24T10:19:15.698Z</time>
      </trkpt>
      <trkpt lat="41.86288" lon="20.9853">
        <ele>521.794947</ele>
        <time>2022-04-24T10:19:19.722Z</time>
      </trkpt>
      <trkpt lat="41.86279" lon="20.98523">
        <ele>522.003056</ele>
        <time>2022-04-24T10:19:23.719Z</time>
      </trkpt>
      <trkpt lat="41.86269" lon="20.98515">
        <ele>522.218011</ele>
        <time>2022-04-24T10:19:27.695Z</time>
      </trkpt>
      <trkpt lat="41.86261" lon="20.98509">
        <ele>522.387319</ele>
        <time>2022-04-24T10:19:30.714Z</time>
      </trkpt>
      <trkpt lat="41.86251" lon="20.98503">
        <ele>522.6067</ele>
        <time>2022-04-24T10:19:34.717Z</time>
      </trkpt>
      <trkpt lat="41.8624" lon="20.98496">
        <ele>522.748027</ele>
        <time>2022-04-24T10:19:38.717Z</time>
      </trkpt>
      <trkpt lat="41.86232" lon="20.98491">
        <ele>522.828228</ele>
        <time>2022-04-24T10:19:41.702Z</time>
      </trkpt>
      <trkpt lat="41.86221" lon="20.98483">
        <ele>522.934756</ele>
        <time>2022-04-24T10:19:45.742Z</time>
      </trkpt>
      <trkpt lat="41.86213" lon="20.98478">
        <ele>523.019259</ele>
        <time>2022-04-24T10:19:48.707Z</time>
      </trkpt>
      <trkpt lat="41.86204" lon="20.98473">
        <ele>523.10056</ele>
        <time>2022-04-24T10:19:51.707Z</time>
      </trkpt>
      <trkpt lat="41.86195" lon="20.98467">
        <ele>523.192407</ele>
        <time>2022-04-24T10:19:54.711Z</time>
      </trkpt>
      <trkpt lat="41.86186" lon="20.98462">
        <ele>523.28099</ele>
        <time>2022-04-24T10:19:57.710Z</time>
      </trkpt>
      <trkpt lat="41.86175" lon="20.98455">
        <ele>523.388407</ele>
        <time>2022-04-24T10:20:01.710Z</time>
      </trkpt>
      <trkpt lat="41.86166" lon="20.98448">
        <ele>523.479153</ele>
        <time>2022-04-24T10:20:04.707Z</time>
      </trkpt>
      <trkpt lat="41.86158" lon="20.98444">
        <ele>523.563982</ele>
        <time>2022-04-24T10:20:07.743Z</time>
      </trkpt>
      <trkpt lat="41.86149" lon="20.98439">
        <ele>523.651222</ele>
        <time>2022-04-24T10:20:10.711Z</time>
      </trkpt>
      <trkpt lat="41.86139" lon="20.98434">
        <ele>523.741906</ele>
        <time>2022-04-24T10:20:13.753Z</time>
      </trkpt>
      <trkpt lat="41.8613" lon="20.98428">
        <ele>523.834324</ele>
        <time>2022-04-24T10:20:16.727Z</time>
      </trkpt>
      <trkpt lat="41.86121" lon="20.98422">
        <ele>523.924549</ele>
        <time>2022-04-24T10:20:19.715Z</time>
      </trkpt>
      <trkpt lat="41.86112" lon="20.98417">
        <ele>524.00775</ele>
        <time>2022-04-24T10:20:22.730Z</time>
      </trkpt>
      <trkpt lat="41.86102" lon="20.98409">
        <ele>524.113354</ele>
        <time>2022-04-24T10:20:26.695Z</time>
      </trkpt>
      <trkpt lat="41.86094" lon="20.98403">
        <ele>524.195893</ele>
        <time>2022-04-24T10:20:29.700Z</time>
      </trkpt>
      <trkpt lat="41.86085" lon="20.98398">
        <ele>524.280195</ele>
        <time>2022-04-24T10:20:32.705Z</time>
      </trkpt>
      <trkpt lat="41.86078" lon="20.98391">
        <ele>524.226681</ele>
        <time>2022-04-24T10:20:35.737Z</time>
      </trkpt>
      <trkpt lat="41.86069" lon="20.98386">
        <ele>524.163656</ele>
        <time>2022-04-24T10:20:38.711Z</time>
      </trkpt>
      <trkpt lat="41.86061" lon="20.98379">
        <ele>524.095521</ele>
        <time>2022-04-24T10:20:41.730Z</time>
      </trkpt>
      <trkpt lat="41.86052" lon="20.98373">
        <ele>524.025793</ele>
        <time>2022-04-24T10:20:44.702Z</time>
      </trkpt>
      <trkpt lat="41.86043" lon="20.98368">
        <ele>523.957233</ele>
        <time>2022-04-24T10:20:47.719Z</time>
      </trkpt>
      <trkpt lat="41.86033" lon="20.98363">
        <ele>523.886935</ele>
        <time>2022-04-24T10:20:50.710Z</time>
      </trkpt>
      <trkpt lat="41.86024" lon="20.98357">
        <ele>523.815585</ele>
        <time>2022-04-24T10:20:53.693Z</time>
      </trkpt>
      <trkpt lat="41.86014" lon="20.98351">
        <ele>523.740862</ele>
        <time>2022-04-24T10:20:56.717Z</time>
      </trkpt>
      <trkpt lat="41.86003" lon="20.98345">
        <ele>523.658565</ele>
        <time>2022-04-24T10:20:59.716Z</time>
      </trkpt>
      <trkpt lat="41.85992" lon="20.98338">
        <ele>523.576474</ele>
        <time>2022-04-24T10:21:02.706Z</time>
      </trkpt>
      <trkpt lat="41.85981" lon="20.98332">
        <ele>523.49434</ele>
        <time>2022-04-24T10:21:05.723Z</time>
      </trkpt>
      <trkpt lat="41.8597" lon="20.98326">
        <ele>523.410976</ele>
        <time>2022-04-24T10:21:08.752Z</time>
      </trkpt>
      <trkpt lat="41.85959" lon="20.9832">
        <ele>523.327367</ele>
        <time>2022-04-24T10:21:11.725Z</time>
      </trkpt>
      <trkpt lat="41.85948" lon="20.98313">
        <ele>523.242326</ele>
        <time>2022-04-24T10:21:14.717Z</time>
      </trkpt>
      <trkpt lat="41.85936" lon="20.98307">
        <ele>523.153455</ele>
        <time>2022-04-24T10:21:17.715Z</time>
      </trkpt>
      <trkpt lat="41.85924" lon="20.98301">
        <ele>523.065402</ele>
        <time>2022-04-24T10:21:20.712Z</time>
      </trkpt>
      <trkpt lat="41.85912" lon="20.98295">
        <ele>523.006146</ele>
        <time>2022-04-24T10:21:23.725Z</time>
      </trkpt>
      <trkpt lat="41.85903" lon="20.98291">
        <ele>522.970692</ele>
        <time>2022-04-24T10:21:25.724Z</time>
      </trkpt>
      <trkpt lat="41.85895" lon="20.98287">
        <ele>522.935598</ele>
        <time>2022-04-24T10:21:27.715Z</time>
      </trkpt>
      <trkpt lat="41.85886" lon="20.98282">
        <ele>522.899882</ele>
        <time>2022-04-24T10:21:29.723Z</time>
      </trkpt>
      <trkpt lat="41.85877" lon="20.98278">
        <ele>522.863174</ele>
        <time>2022-04-24T10:21:31.711Z</time>
      </trkpt>
      <trkpt lat="41.85868" lon="20.98274">
        <ele>522.826089</ele>
        <time>2022-04-24T10:21:33.713Z</time>
      </trkpt>
      <trkpt lat="41.85858" lon="20.98269">
        <ele>522.788545</ele>
        <time>2022-04-24T10:21:35.721Z</time>
      </trkpt>
      <trkpt lat="41.85849" lon="20.98264">
        <ele>522.750186</ele>
        <time>2022-04-24T10:21:37.712Z</time>
      </trkpt>
      <trkpt lat="41.8584" lon="20.98259">
        <ele>522.711769</ele>
        <time>2022-04-24T10:21:39.720Z</time>
      </trkpt>
      <trkpt lat="41.8583" lon="20.98255">
        <ele>522.673964</ele>
        <time>2022-04-24T10:21:41.693Z</time>
      </trkpt>
      <trkpt lat="41.85821" lon="20.9825">
        <ele>522.635862</ele>
        <time>2022-04-24T10:21:43.730Z</time>
      </trkpt>
      <trkpt lat="41.85812" lon="20.98245">
        <ele>522.597577</ele>
        <time>2022-04-24T10:21:45.716Z</time>
      </trkpt>
      <trkpt lat="41.85803" lon="20.9824">
        <ele>522.559267</ele>
        <time>2022-04-24T10:21:47.719Z</time>
      </trkpt>
      <trkpt lat="41.85793" lon="20.98235">
        <ele>522.520387</ele>
        <time>2022-04-24T10:21:49.717Z</time>
      </trkpt>
      <trkpt lat="41.85783" lon="20.98229">
        <ele>522.479061</ele>
        <time>2022-04-24T10:21:51.708Z</time>
      </trkpt>
      <trkpt lat="41.85774" lon="20.98224">
        <ele>522.440081</ele>
        <time>2022-04-24T10:21:53.711Z</time>
      </trkpt>
      <trkpt lat="41.85764" lon="20.9822">
        <ele>522.400653</ele>
        <time>2022-04-24T10:21:55.701Z</time>
      </trkpt>
      <trkpt lat="41.85754" lon="20.98216">
        <ele>522.360133</ele>
        <time>2022-04-24T10:21:57.721Z</time>
      </trkpt>
      <trkpt lat="41.85744" lon="20.98212">
        <ele>522.266424</ele>
        <time>2022-04-24T10:21:59.721Z</time>
      </trkpt>
      <trkpt lat="41.85734" lon="20.98208">
        <ele>522.15796</ele>
        <time>2022-04-24T10:22:01.702Z</time>
      </trkpt>
      <trkpt lat="41.85723" lon="20.98204">
        <ele>522.049711</ele>
        <time>2022-04-24T10:22:03.723Z</time>
      </trkpt>
      <trkpt lat="41.85713" lon="20.98201">
        <ele>521.940339</ele>
        <time>2022-04-24T10:22:05.721Z</time>
      </trkpt>
      <trkpt lat="41.85702" lon="20.98198">
        <ele>521.835075</ele>
        <time>2022-04-24T10:22:07.718Z</time>
      </trkpt>
      <trkpt lat="41.85692" lon="20.98196">
        <ele>521.73194</ele>
        <time>2022-04-24T10:22:09.719Z</time>
      </trkpt>
      <trkpt lat="41.85682" lon="20.98193">
        <ele>521.626829</ele>
        <time>2022-04-24T10:22:11.698Z</time>
      </trkpt>
      <trkpt lat="41.85671" lon="20.98191">
        <ele>521.516858</ele>
        <time>2022-04-24T10:22:13.754Z</time>
      </trkpt>
      <trkpt lat="41.85661" lon="20.98189">
        <ele>521.408567</ele>
        <time>2022-04-24T10:22:15.715Z</time>
      </trkpt>
      <trkpt lat="41.8565" lon="20.98186">
        <ele>521.301622</ele>
        <time>2022-04-24T10:22:17.719Z</time>
      </trkpt>
      <trkpt lat="41.8564" lon="20.98183">
        <ele>521.192693</ele>
        <time>2022-04-24T10:22:19.691Z</time>
      </trkpt>
      <trkpt lat="41.85629" lon="20.98181">
        <ele>521.08164</ele>
        <time>2022-04-24T10:22:21.707Z</time>
      </trkpt>
      <trkpt lat="41.85619" lon="20.98177">
        <ele>520.973391</ele>
        <time>2022-04-24T10:22:23.739Z</time>
      </trkpt>
      <trkpt lat="41.85608" lon="20.98172">
        <ele>520.860448</ele>
        <time>2022-04-24T10:22:25.714Z</time>
      </trkpt>
      <trkpt lat="41.85597" lon="20.98168">
        <ele>520.743438</ele>
        <time>2022-04-24T10:22:27.707Z</time>
      </trkpt>
      <trkpt lat="41.85585" lon="20.98164">
        <ele>520.623256</ele>
        <time>2022-04-24T10:22:29.724Z</time>
      </trkpt>
      <trkpt lat="41.85574" lon="20.98159">
        <ele>520.519989</ele>
        <time>2022-04-24T10:22:31.698Z</time>
      </trkpt>
      <trkpt lat="41.85561" lon="20.98154">
        <ele>520.461468</ele>
        <time>2022-04-24T10:22:33.710Z</time>
      </trkpt>
      <trkpt lat="41.85548" lon="20.98149">
        <ele>520.398417</ele>
        <time>2022-04-24T10:22:35.717Z</time>
      </trkpt>
      <trkpt lat="41.85534" lon="20.98144">
        <ele>520.33033</ele>
        <time>2022-04-24T10:22:37.711Z</time>
      </trkpt>
      <trkpt lat="41.85519" lon="20.98139">
        <ele>520.262487</ele>
        <time>2022-04-24T10:22:39.710Z</time>
      </trkpt>
      <trkpt lat="41.85504" lon="20.98135">
        <ele>520.192936</ele>
        <time>2022-04-24T10:22:41.707Z</time>
      </trkpt>
      <trkpt lat="41.8549" lon="20.98131">
        <ele>520.125673</ele>
        <time>2022-04-24T10:22:43.754Z</time>
      </trkpt>
      <trkpt lat="41.85476" lon="20.98128">
        <ele>520.062558</ele>
        <time>2022-04-24T10:22:45.732Z</time>
      </trkpt>
      <trkpt lat="41.85464" lon="20.98126">
        <ele>520.005087</ele>
        <time>2022-04-24T10:22:47.729Z</time>
      </trkpt>
      <trkpt lat="41.85453" lon="20.98123">
        <ele>519.952992</ele>
        <time>2022-04-24T10:22:49.711Z</time>
      </trkpt>
      <trkpt lat="41.85443" lon="20.98121">
        <ele>519.907721</ele>
        <time>2022-04-24T10:22:51.705Z</time>
      </trkpt>
      <trkpt lat="41.85434" lon="20.98118">
        <ele>519.864932</ele>
        <time>2022-04-24T10:22:53.715Z</time>
      </trkpt>
      <trkpt lat="41.85425" lon="20.98115">
        <ele>519.823318</ele>
        <time>2022-04-24T10:22:55.713Z</time>
      </trkpt>
      <trkpt lat="41.85414" lon="20.9811">
        <ele>519.769296</ele>
        <time>2022-04-24T10:22:58.702Z</time>
      </trkpt>
      <trkpt lat="41.85404" lon="20.98106">
        <ele>519.719805</ele>
        <time>2022-04-24T10:23:01.709Z</time>
      </trkpt>
      <trkpt lat="41.85394" lon="20.98104">
        <ele>519.918788</ele>
        <time>2022-04-24T10:23:04.723Z</time>
      </trkpt>
      <trkpt lat="41.85384" lon="20.98104">
        <ele>520.16959</ele>
        <time>2022-04-24T10:23:07.713Z</time>
      </trkpt>
      <trkpt lat="41.85373" lon="20.98105">
        <ele>520.418467</ele>
        <time>2022-04-24T10:23:10.719Z</time>
      </trkpt>
      <trkpt lat="41.85363" lon="20.98106">
        <ele>520.682042</ele>
        <time>2022-04-24T10:23:13.730Z</time>
      </trkpt>
      <trkpt lat="41.85352" lon="20.98106">
        <ele>520.928009</ele>
        <time>2022-04-24T10:23:16.699Z</time>
      </trkpt>
      <trkpt lat="41.85342" lon="20.98107">
        <ele>521.181278</ele>
        <time>2022-04-24T10:23:19.714Z</time>
      </trkpt>
      <trkpt lat="41.85332" lon="20.98107">
        <ele>521.434489</ele>
        <time>2022-04-24T10:23:22.709Z</time>
      </trkpt>
      <trkpt lat="41.85321" lon="20.98107">
        <ele>521.685271</ele>
        <time>2022-04-24T10:23:25.731Z</time>
      </trkpt>
      <trkpt lat="41.85311" lon="20.98106">
        <ele>521.946014</ele>
        <time>2022-04-24T10:23:28.748Z</time>
      </trkpt>
      <trkpt lat="41.85299" lon="20.98106">
        <ele>522.223785</ele>
        <time>2022-04-24T10:23:31.720Z</time>
      </trkpt>
      <trkpt lat="41.85288" lon="20.98105">
        <ele>522.491825</ele>
        <time>2022-04-24T10:23:34.710Z</time>
      </trkpt>
      <trkpt lat="41.85278" lon="20.98104">
        <ele>522.752567</ele>
        <time>2022-04-24T10:23:37.719Z</time>
      </trkpt>
      <trkpt lat="41.85267" lon="20.98104">
        <ele>522.998534</ele>
        <time>2022-04-24T10:23:40.731Z</time>
      </trkpt>
      <trkpt lat="41.85257" lon="20.98104">
        <ele>523.251803</ele>
        <time>2022-04-24T10:23:43.716Z</time>
      </trkpt>
      <trkpt lat="41.85246" lon="20.98104">
        <ele>523.512343</ele>
        <time>2022-04-24T10:23:46.714Z</time>
      </trkpt>
      <trkpt lat="41.85236" lon="20.98104">
        <ele>523.758257</ele>
        <time>2022-04-24T10:23:49.714Z</time>
      </trkpt>
      <trkpt lat="41.85226" lon="20.98104">
        <ele>523.999301</ele>
        <time>2022-04-24T10:23:52.710Z</time>
      </trkpt>
      <trkpt lat="41.85217" lon="20.98103">
        <ele>524.280845</ele>
        <time>2022-04-24T10:23:55.778Z</time>
      </trkpt>
      <trkpt lat="41.85207" lon="20.98103">
        <ele>524.60984</ele>
        <time>2022-04-24T10:23:58.695Z</time>
      </trkpt>
      <trkpt lat="41.85197" lon="20.98102">
        <ele>524.938836</ele>
        <time>2022-04-24T10:24:01.698Z</time>
      </trkpt>
      <trkpt lat="41.85187" lon="20.98102">
        <ele>525.271147</ele>
        <time>2022-04-24T10:24:04.695Z</time>
      </trkpt>
      <trkpt lat="41.85177" lon="20.98101">
        <ele>525.61398</ele>
        <time>2022-04-24T10:24:07.751Z</time>
      </trkpt>
      <trkpt lat="41.85167" lon="20.981">
        <ele>525.949363</ele>
        <time>2022-04-24T10:24:10.750Z</time>
      </trkpt>
      <trkpt lat="41.85157" lon="20.981">
        <ele>526.271725</ele>
        <time>2022-04-24T10:24:13.713Z</time>
      </trkpt>
      <trkpt lat="41.85146" lon="20.98099">
        <ele>526.650385</ele>
        <time>2022-04-24T10:24:17.710Z</time>
      </trkpt>
      <trkpt lat="41.85135" lon="20.98098">
        <ele>526.992897</ele>
        <time>2022-04-24T10:24:21.717Z</time>
      </trkpt>
      <trkpt lat="41.85124" lon="20.98098">
        <ele>527.352126</ele>
        <time>2022-04-24T10:24:25.692Z</time>
      </trkpt>
      <trkpt lat="41.85114" lon="20.98097">
        <ele>527.694146</ele>
        <time>2022-04-24T10:24:29.737Z</time>
      </trkpt>
      <trkpt lat="41.85105" lon="20.98096">
        <ele>528.004084</ele>
        <time>2022-04-24T10:24:33.717Z</time>
      </trkpt>
      <trkpt lat="41.85095" lon="20.98096">
        <ele>528.336295</ele>
        <time>2022-04-24T10:24:37.695Z</time>
      </trkpt>
      <trkpt lat="41.85085" lon="20.98095">
        <ele>528.668358</ele>
        <time>2022-04-24T10:24:41.715Z</time>
      </trkpt>
      <trkpt lat="41.85074" lon="20.98094">
        <ele>529.015349</ele>
        <time>2022-04-24T10:24:45.718Z</time>
      </trkpt>
      <trkpt lat="41.85065" lon="20.98094">
        <ele>529.337455</ele>
        <time>2022-04-24T10:24:49.725Z</time>
      </trkpt>
      <trkpt lat="41.85055" lon="20.98094">
        <ele>529.659714</ele>
        <time>2022-04-24T10:24:53.705Z</time>
      </trkpt>
      <trkpt lat="41.85045" lon="20.98093">
        <ele>529.978885</ele>
        <time>2022-04-24T10:24:57.718Z</time>
      </trkpt>
      <trkpt lat="41.85036" lon="20.98092">
        <ele>530.446996</ele>
        <time>2022-04-24T10:25:01.722Z</time>
      </trkpt>
      <trkpt lat="41.85025" lon="20.98092">
        <ele>530.998455</ele>
        <time>2022-04-24T10:25:05.697Z</time>
      </trkpt>
      <trkpt lat="41.85014" lon="20.98091">
        <ele>531.580317</ele>
        <time>2022-04-24T10:25:09.713Z</time>
      </trkpt>
      <trkpt lat="41.85004" lon="20.98086">
        <ele>532.155604</ele>
        <time>2022-04-24T10:25:13.718Z</time>
      </trkpt>
      <trkpt lat="41.84993" lon="20.98083">
        <ele>532.728776</ele>
        <time>2022-04-24T10:25:17.708Z</time>
      </trkpt>
      <trkpt lat="41.84983" lon="20.9808">
        <ele>533.271933</ele>
        <time>2022-04-24T10:25:21.730Z</time>
      </trkpt>
      <trkpt lat="41.84972" lon="20.98076">
        <ele>533.866311</ele>
        <time>2022-04-24T10:25:25.715Z</time>
      </trkpt>
      <trkpt lat="41.84961" lon="20.98073">
        <ele>534.471143</ele>
        <time>2022-04-24T10:25:29.715Z</time>
      </trkpt>
      <trkpt lat="41.84951" lon="20.9807">
        <ele>534.968407</ele>
        <time>2022-04-24T10:25:32.714Z</time>
      </trkpt>
      <trkpt lat="41.84942" lon="20.98067">
        <ele>535.486726</ele>
        <time>2022-04-24T10:25:35.707Z</time>
      </trkpt>
      <trkpt lat="41.8493" lon="20.98064">
        <ele>536.127654</ele>
        <time>2022-04-24T10:25:38.721Z</time>
      </trkpt>
      <trkpt lat="41.84917" lon="20.9806">
        <ele>536.804073</ele>
        <time>2022-04-24T10:25:41.713Z</time>
      </trkpt>
      <trkpt lat="41.84905" lon="20.98055">
        <ele>537.500862</ele>
        <time>2022-04-24T10:25:44.714Z</time>
      </trkpt>
      <trkpt lat="41.84895" lon="20.98052">
        <ele>538.026395</ele>
        <time>2022-04-24T10:25:46.723Z</time>
      </trkpt>
      <trkpt lat="41.84884" lon="20.98047">
        <ele>538.62002</ele>
        <time>2022-04-24T10:25:48.718Z</time>
      </trkpt>
      <trkpt lat="41.84873" lon="20.98042">
        <ele>539.22664</ele>
        <time>2022-04-24T10:25:50.704Z</time>
      </trkpt>
      <trkpt lat="41.84864" lon="20.98039">
        <ele>539.465869</ele>
        <time>2022-04-24T10:25:52.691Z</time>
      </trkpt>
      <trkpt lat="41.84855" lon="20.98036">
        <ele>539.375246</ele>
        <time>2022-04-24T10:25:54.711Z</time>
      </trkpt>
      <trkpt lat="41.84845" lon="20.98032">
        <ele>539.277893</ele>
        <time>2022-04-24T10:25:56.722Z</time>
      </trkpt>
      <trkpt lat="41.84836" lon="20.98029">
        <ele>539.190608</ele>
        <time>2022-04-24T10:25:58.726Z</time>
      </trkpt>
      <trkpt lat="41.84827" lon="20.98025">
        <ele>539.101007</ele>
        <time>2022-04-24T10:26:00.718Z</time>
      </trkpt>
      <trkpt lat="41.84818" lon="20.98022">
        <ele>539.014463</ele>
        <time>2022-04-24T10:26:02.739Z</time>
      </trkpt>
      <trkpt lat="41.84808" lon="20.98019">
        <ele>538.916157</ele>
        <time>2022-04-24T10:26:04.718Z</time>
      </trkpt>
      <trkpt lat="41.848" lon="20.98015">
        <ele>538.826979</ele>
        <time>2022-04-24T10:26:06.726Z</time>
      </trkpt>
      <trkpt lat="41.84788" lon="20.98011">
        <ele>538.708172</ele>
        <time>2022-04-24T10:26:09.709Z</time>
      </trkpt>
      <trkpt lat="41.84776" lon="20.98006">
        <ele>538.59325</ele>
        <time>2022-04-24T10:26:12.706Z</time>
      </trkpt>
      <trkpt lat="41.84765" lon="20.98002">
        <ele>538.484969</ele>
        <time>2022-04-24T10:26:15.706Z</time>
      </trkpt>
      <trkpt lat="41.84756" lon="20.97999">
        <ele>538.39007</ele>
        <time>2022-04-24T10:26:18.710Z</time>
      </trkpt>
      <trkpt lat="41.84745" lon="20.97996">
        <ele>538.28158</ele>
        <time>2022-04-24T10:26:21.707Z</time>
      </trkpt>
      <trkpt lat="41.84733" lon="20.97991">
        <ele>538.163561</ele>
        <time>2022-04-24T10:26:24.722Z</time>
      </trkpt>
      <trkpt lat="41.84721" lon="20.97987">
        <ele>538.04162</ele>
        <time>2022-04-24T10:26:27.720Z</time>
      </trkpt>
      <trkpt lat="41.84709" lon="20.97983">
        <ele>537.926353</ele>
        <time>2022-04-24T10:26:30.742Z</time>
      </trkpt>
      <trkpt lat="41.84699" lon="20.97979">
        <ele>537.823826</ele>
        <time>2022-04-24T10:26:33.710Z</time>
      </trkpt>
      <trkpt lat="41.84689" lon="20.97975">
        <ele>537.893522</ele>
        <time>2022-04-24T10:26:36.732Z</time>
      </trkpt>
      <trkpt lat="41.84677" lon="20.97971">
        <ele>538.129688</ele>
        <time>2022-04-24T10:26:39.697Z</time>
      </trkpt>
      <trkpt lat="41.84664" lon="20.97966">
        <ele>538.380311</ele>
        <time>2022-04-24T10:26:42.729Z</time>
      </trkpt>
      <trkpt lat="41.84656" lon="20.97964">
        <ele>538.55357</ele>
        <time>2022-04-24T10:26:44.710Z</time>
      </trkpt>
      <trkpt lat="41.84643" lon="20.97959">
        <ele>538.809391</ele>
        <time>2022-04-24T10:26:47.712Z</time>
      </trkpt>
      <trkpt lat="41.84634" lon="20.97957">
        <ele>538.985792</ele>
        <time>2022-04-24T10:26:49.704Z</time>
      </trkpt>
      <trkpt lat="41.84621" lon="20.97952">
        <ele>539.243111</ele>
        <time>2022-04-24T10:26:52.714Z</time>
      </trkpt>
      <trkpt lat="41.84612" lon="20.97948">
        <ele>539.422366</ele>
        <time>2022-04-24T10:26:54.711Z</time>
      </trkpt>
      <trkpt lat="41.846" lon="20.97942">
        <ele>539.66276</ele>
        <time>2022-04-24T10:26:57.706Z</time>
      </trkpt>
      <trkpt lat="41.84589" lon="20.97934">
        <ele>539.907622</ele>
        <time>2022-04-24T10:27:00.711Z</time>
      </trkpt>
      <trkpt lat="41.84581" lon="20.97928">
        <ele>540.082928</ele>
        <time>2022-04-24T10:27:02.723Z</time>
      </trkpt>
      <trkpt lat="41.84573" lon="20.97922">
        <ele>540.258569</ele>
        <time>2022-04-24T10:27:04.740Z</time>
      </trkpt>
      <trkpt lat="41.84561" lon="20.97913">
        <ele>540.518494</ele>
        <time>2022-04-24T10:27:07.710Z</time>
      </trkpt>
      <trkpt lat="41.84554" lon="20.97906">
        <ele>540.692229</ele>
        <time>2022-04-24T10:27:09.714Z</time>
      </trkpt>
      <trkpt lat="41.84546" lon="20.97899">
        <ele>540.871585</ele>
        <time>2022-04-24T10:27:11.725Z</time>
      </trkpt>
      <trkpt lat="41.84538" lon="20.97893">
        <ele>541.055835</ele>
        <time>2022-04-24T10:27:13.719Z</time>
      </trkpt>
      <trkpt lat="41.8453" lon="20.97886">
        <ele>541.234093</ele>
        <time>2022-04-24T10:27:15.726Z</time>
      </trkpt>
      <trkpt lat="41.84522" lon="20.9788">
        <ele>541.094489</ele>
        <time>2022-04-24T10:27:17.726Z</time>
      </trkpt>
      <trkpt lat="41.8451" lon="20.9787">
        <ele>540.900307</ele>
        <time>2022-04-24T10:27:20.701Z</time>
      </trkpt>
      <trkpt lat="41.84502" lon="20.97863">
        <ele>540.75334</ele>
        <time>2022-04-24T10:27:22.710Z</time>
      </trkpt>
      <trkpt lat="41.84494" lon="20.97855">
        <ele>540.608929</ele>
        <time>2022-04-24T10:27:24.706Z</time>
      </trkpt>
      <trkpt lat="41.84485" lon="20.97848">
        <ele>540.458743</ele>
        <time>2022-04-24T10:27:26.736Z</time>
      </trkpt>
      <trkpt lat="41.84475" lon="20.9784">
        <ele>540.288074</ele>
        <time>2022-04-24T10:27:28.705Z</time>
      </trkpt>
      <trkpt lat="41.84465" lon="20.97832">
        <ele>540.121142</ele>
        <time>2022-04-24T10:27:30.711Z</time>
      </trkpt>
      <trkpt lat="41.84454" lon="20.97824">
        <ele>539.938555</ele>
        <time>2022-04-24T10:27:32.734Z</time>
      </trkpt>
      <trkpt lat="41.84443" lon="20.97815">
        <ele>539.743313</ele>
        <time>2022-04-24T10:27:34.705Z</time>
      </trkpt>
      <trkpt lat="41.84431" lon="20.97805">
        <ele>539.541211</ele>
        <time>2022-04-24T10:27:36.718Z</time>
      </trkpt>
      <trkpt lat="41.8442" lon="20.97796">
        <ele>539.345796</ele>
        <time>2022-04-24T10:27:38.728Z</time>
      </trkpt>
      <trkpt lat="41.84408" lon="20.97788">
        <ele>539.154416</ele>
        <time>2022-04-24T10:27:40.695Z</time>
      </trkpt>
      <trkpt lat="41.84397" lon="20.9778">
        <ele>538.969234</ele>
        <time>2022-04-24T10:27:42.720Z</time>
      </trkpt>
      <trkpt lat="41.84388" lon="20.97774">
        <ele>538.827553</ele>
        <time>2022-04-24T10:27:44.730Z</time>
      </trkpt>
      <trkpt lat="41.8438" lon="20.97767">
        <ele>538.689278</ele>
        <time>2022-04-24T10:27:46.696Z</time>
      </trkpt>
      <trkpt lat="41.84372" lon="20.9776">
        <ele>538.384853</ele>
        <time>2022-04-24T10:27:48.715Z</time>
      </trkpt>
      <trkpt lat="41.84363" lon="20.97751">
        <ele>537.795275</ele>
        <time>2022-04-24T10:27:50.714Z</time>
      </trkpt>
      <trkpt lat="41.84352" lon="20.97742">
        <ele>537.15606</ele>
        <time>2022-04-24T10:27:52.709Z</time>
      </trkpt>
      <trkpt lat="41.84341" lon="20.97732">
        <ele>536.486594</ele>
        <time>2022-04-24T10:27:54.695Z</time>
      </trkpt>
      <trkpt lat="41.8433" lon="20.97724">
        <ele>535.798311</ele>
        <time>2022-04-24T10:27:56.705Z</time>
      </trkpt>
      <trkpt lat="41.84316" lon="20.97717">
        <ele>535.035052</ele>
        <time>2022-04-24T10:27:58.706Z</time>
      </trkpt>
      <trkpt lat="41.84302" lon="20.97712">
        <ele>534.280559</ele>
        <time>2022-04-24T10:28:00.717Z</time>
      </trkpt>
      <trkpt lat="41.84288" lon="20.97708">
        <ele>533.509776</ele>
        <time>2022-04-24T10:28:02.714Z</time>
      </trkpt>
      <trkpt lat="41.84272" lon="20.97705">
        <ele>532.701491</ele>
        <time>2022-04-24T10:28:04.704Z</time>
      </trkpt>
      <trkpt lat="41.84255" lon="20.97703">
        <ele>531.823172</ele>
        <time>2022-04-24T10:28:06.740Z</time>
      </trkpt>
      <trkpt lat="41.84239" lon="20.97701">
        <ele>530.973127</ele>
        <time>2022-04-24T10:28:08.717Z</time>
      </trkpt>
      <trkpt lat="41.84223" lon="20.97702">
        <ele>530.124912</ele>
        <time>2022-04-24T10:28:10.703Z</time>
      </trkpt>
      <trkpt lat="41.84207" lon="20.97702">
        <ele>529.297899</ele>
        <time>2022-04-24T10:28:12.701Z</time>
      </trkpt>
      <trkpt lat="41.84193" lon="20.97702">
        <ele>529.498043</ele>
        <time>2022-04-24T10:28:14.769Z</time>
      </trkpt>
      <trkpt lat="41.84179" lon="20.97703">
        <ele>529.752339</ele>
        <time>2022-04-24T10:28:16.694Z</time>
      </trkpt>
      <trkpt lat="41.84165" lon="20.97705">
        <ele>530.020306</ele>
        <time>2022-04-24T10:28:18.703Z</time>
      </trkpt>
      <trkpt lat="41.8415" lon="20.97707">
        <ele>530.290117</ele>
        <time>2022-04-24T10:28:20.722Z</time>
      </trkpt>
      <trkpt lat="41.84135" lon="20.97709">
        <ele>530.570014</ele>
        <time>2022-04-24T10:28:22.731Z</time>
      </trkpt>
      <trkpt lat="41.8412" lon="20.97711">
        <ele>530.841548</ele>
        <time>2022-04-24T10:28:24.708Z</time>
      </trkpt>
      <trkpt lat="41.84109" lon="20.97706">
        <ele>531.066392</ele>
        <time>2022-04-24T10:28:26.727Z</time>
      </trkpt>
      <trkpt lat="41.841" lon="20.97699">
        <ele>531.259122</ele>
        <time>2022-04-24T10:28:28.736Z</time>
      </trkpt>
      <trkpt lat="41.8409" lon="20.97692">
        <ele>531.46221</ele>
        <time>2022-04-24T10:28:31.717Z</time>
      </trkpt>
      <trkpt lat="41.84082" lon="20.97685">
        <ele>531.643085</ele>
        <time>2022-04-24T10:28:35.715Z</time>
      </trkpt>
      <trkpt lat="41.84072" lon="20.9768">
        <ele>531.847178</ele>
        <time>2022-04-24T10:28:39.723Z</time>
      </trkpt>
      <trkpt lat="41.84063" lon="20.97675">
        <ele>532.024236</ele>
        <time>2022-04-24T10:28:43.728Z</time>
      </trkpt>
      <trkpt lat="41.84054" lon="20.97672">
        <ele>532.196059</ele>
        <time>2022-04-24T10:28:47.713Z</time>
      </trkpt>
      <trkpt lat="41.84044" lon="20.97668">
        <ele>532.385401</ele>
        <time>2022-04-24T10:28:51.721Z</time>
      </trkpt>
      <trkpt lat="41.84034" lon="20.97665">
        <ele>532.570478</ele>
        <time>2022-04-24T10:28:55.714Z</time>
      </trkpt>
      <trkpt lat="41.84025" lon="20.9766">
        <ele>533.019593</ele>
        <time>2022-04-24T10:28:59.690Z</time>
      </trkpt>
      <trkpt lat="41.84014" lon="20.97655">
        <ele>533.559927</ele>
        <time>2022-04-24T10:29:03.706Z</time>
      </trkpt>
      <trkpt lat="41.84004" lon="20.9765">
        <ele>534.093482</ele>
        <time>2022-04-24T10:29:07.711Z</time>
      </trkpt>
      <trkpt lat="41.83994" lon="20.97644">
        <ele>534.569204</ele>
        <time>2022-04-24T10:29:11.727Z</time>
      </trkpt>
      <trkpt lat="41.83984" lon="20.97639">
        <ele>535.081795</ele>
        <time>2022-04-24T10:29:15.732Z</time>
      </trkpt>
      <trkpt lat="41.83975" lon="20.97633">
        <ele>535.563256</ele>
        <time>2022-04-24T10:29:19.709Z</time>
      </trkpt>
      <trkpt lat="41.83966" lon="20.97625">
        <ele>536.054013</ele>
        <time>2022-04-24T10:29:23.718Z</time>
      </trkpt>
      <trkpt lat="41.83958" lon="20.9762">
        <ele>536.486745</ele>
        <time>2022-04-24T10:29:26.704Z</time>
      </trkpt>
      <trkpt lat="41.83946" lon="20.97615">
        <ele>537.062128</ele>
        <time>2022-04-24T10:29:30.731Z</time>
      </trkpt>
      <trkpt lat="41.83937" lon="20.9761">
        <ele>537.551044</ele>
        <time>2022-04-24T10:29:33.734Z</time>
      </trkpt>
      <trkpt lat="41.83926" lon="20.97606">
        <ele>538.044078</ele>
        <time>2022-04-24T10:29:36.703Z</time>
      </trkpt>
      <trkpt lat="41.83918" lon="20.97601">
        <ele>538.484214</ele>
        <time>2022-04-24T10:29:39.690Z</time>
      </trkpt>
      <trkpt lat="41.8391" lon="20.97593">
        <ele>538.977165</ele>
        <time>2022-04-24T10:29:42.698Z</time>
      </trkpt>
      <trkpt lat="41.83902" lon="20.97581">
        <ele>539.516509</ele>
        <time>2022-04-24T10:29:45.686Z</time>
      </trkpt>
      <trkpt lat="41.83894" lon="20.97571">
        <ele>540.026864</ele>
        <time>2022-04-24T10:29:48.715Z</time>
      </trkpt>
      <trkpt lat="41.83887" lon="20.97561">
        <ele>540.518334</ele>
        <time>2022-04-24T10:29:51.710Z</time>
      </trkpt>
      <trkpt lat="41.83878" lon="20.9755">
        <ele>541.051007</ele>
        <time>2022-04-24T10:29:54.686Z</time>
      </trkpt>
      <trkpt lat="41.83869" lon="20.9754">
        <ele>540.990551</ele>
        <time>2022-04-24T10:29:57.702Z</time>
      </trkpt>
      <trkpt lat="41.8386" lon="20.97528">
        <ele>540.925609</ele>
        <time>2022-04-24T10:30:00.696Z</time>
      </trkpt>
      <trkpt lat="41.83851" lon="20.97518">
        <ele>540.865153</ele>
        <time>2022-04-24T10:30:03.692Z</time>
      </trkpt>
      <trkpt lat="41.83841" lon="20.97507">
        <ele>540.802093</ele>
        <time>2022-04-24T10:30:06.699Z</time>
      </trkpt>
      <trkpt lat="41.83832" lon="20.97496">
        <ele>540.739842</ele>
        <time>2022-04-24T10:30:09.708Z</time>
      </trkpt>
      <trkpt lat="41.83824" lon="20.97484">
        <ele>540.677791</ele>
        <time>2022-04-24T10:30:12.701Z</time>
      </trkpt>
      <trkpt lat="41.83816" lon="20.97476">
        <ele>540.624763</ele>
        <time>2022-04-24T10:30:15.710Z</time>
      </trkpt>
      <trkpt lat="41.83794" lon="20.97457">
        <ele>540.492292</ele>
        <time>2022-04-24T10:31:52.727Z</time>
      </trkpt>
      <trkpt lat="41.83786" lon="20.9745">
        <ele>540.442205</ele>
        <time>2022-04-24T10:31:56.749Z</time>
      </trkpt>
      <trkpt lat="41.83778" lon="20.97442">
        <ele>540.391025</ele>
        <time>2022-04-24T10:32:00.703Z</time>
      </trkpt>
      <trkpt lat="41.83771" lon="20.97432">
        <ele>540.339398</ele>
        <time>2022-04-24T10:32:04.690Z</time>
      </trkpt>
      <trkpt lat="41.83765" lon="20.97421">
        <ele>540.289141</ele>
        <time>2022-04-24T10:32:08.873Z</time>
      </trkpt>
      <trkpt lat="41.83759" lon="20.9741">
        <ele>540.236915</ele>
        <time>2022-04-24T10:32:12.716Z</time>
      </trkpt>
      <trkpt lat="41.83754" lon="20.97397">
        <ele>540.182284</ele>
        <time>2022-04-24T10:32:16.714Z</time>
      </trkpt>
      <trkpt lat="41.83747" lon="20.97385">
        <ele>540.236364</ele>
        <time>2022-04-24T10:32:21.711Z</time>
      </trkpt>
      <trkpt lat="41.83742" lon="20.97374">
        <ele>540.786351</ele>
        <time>2022-04-24T10:32:25.716Z</time>
      </trkpt>
      <trkpt lat="41.83735" lon="20.97363">
        <ele>541.33276</ele>
        <time>2022-04-24T10:32:29.801Z</time>
      </trkpt>
      <trkpt lat="41.8373" lon="20.97349">
        <ele>541.944661</ele>
        <time>2022-04-24T10:32:33.710Z</time>
      </trkpt>
      <trkpt lat="41.83726" lon="20.97335">
        <ele>542.520908</ele>
        <time>2022-04-24T10:32:37.718Z</time>
      </trkpt>
      <trkpt lat="41.83723" lon="20.97323">
        <ele>543.016554</ele>
        <time>2022-04-24T10:32:40.709Z</time>
      </trkpt>
      <trkpt lat="41.83719" lon="20.97309">
        <ele>543.610017</ele>
        <time>2022-04-24T10:32:44.702Z</time>
      </trkpt>
      <trkpt lat="41.83715" lon="20.97297">
        <ele>544.111338</ele>
        <time>2022-04-24T10:32:47.730Z</time>
      </trkpt>
      <trkpt lat="41.83709" lon="20.97285">
        <ele>544.680537</ele>
        <time>2022-04-24T10:32:51.710Z</time>
      </trkpt>
      <trkpt lat="41.83703" lon="20.97275">
        <ele>545.178031</ele>
        <time>2022-04-24T10:32:54.726Z</time>
      </trkpt>
      <trkpt lat="41.83697" lon="20.97266">
        <ele>545.65737</ele>
        <time>2022-04-24T10:32:57.721Z</time>
      </trkpt>
      <trkpt lat="41.8369" lon="20.97255">
        <ele>546.246491</ele>
        <time>2022-04-24T10:33:01.704Z</time>
      </trkpt>
      <trkpt lat="41.83682" lon="20.97242">
        <ele>546.875241</ele>
        <time>2022-04-24T10:33:05.707Z</time>
      </trkpt>
      <trkpt lat="41.83674" lon="20.97231">
        <ele>547.476346</ele>
        <time>2022-04-24T10:33:09.711Z</time>
      </trkpt>
      <trkpt lat="41.83667" lon="20.97222">
        <ele>547.975537</ele>
        <time>2022-04-24T10:33:13.703Z</time>
      </trkpt>
      <trkpt lat="41.8366" lon="20.97213">
        <ele>548.501534</ele>
        <time>2022-04-24T10:33:17.709Z</time>
      </trkpt>
      <trkpt lat="41.83652" lon="20.97201">
        <ele>549.123384</ele>
        <time>2022-04-24T10:33:21.714Z</time>
      </trkpt>
      <trkpt lat="41.83644" lon="20.97191">
        <ele>549.584532</ele>
        <time>2022-04-24T10:33:25.717Z</time>
      </trkpt>
      <trkpt lat="41.83636" lon="20.97181">
        <ele>549.564331</ele>
        <time>2022-04-24T10:33:30.700Z</time>
      </trkpt>
      <trkpt lat="41.8363" lon="20.9717">
        <ele>549.546464</ele>
        <time>2022-04-24T10:33:34.741Z</time>
      </trkpt>
      <trkpt lat="41.83623" lon="20.97157">
        <ele>549.525944</ele>
        <time>2022-04-24T10:33:38.717Z</time>
      </trkpt>
      <trkpt lat="41.83616" lon="20.97145">
        <ele>549.504999</ele>
        <time>2022-04-24T10:33:42.714Z</time>
      </trkpt>
      <trkpt lat="41.83611" lon="20.97133">
        <ele>549.487002</ele>
        <time>2022-04-24T10:33:45.703Z</time>
      </trkpt>
      <trkpt lat="41.83605" lon="20.97121">
        <ele>549.467542</ele>
        <time>2022-04-24T10:33:49.703Z</time>
      </trkpt>
      <trkpt lat="41.83597" lon="20.9711">
        <ele>549.447724</ele>
        <time>2022-04-24T10:33:53.722Z</time>
      </trkpt>
      <trkpt lat="41.83588" lon="20.971">
        <ele>549.426416</ele>
        <time>2022-04-24T10:33:57.712Z</time>
      </trkpt>
      <trkpt lat="41.83581" lon="20.97092">
        <ele>549.410227</ele>
        <time>2022-04-24T10:34:00.717Z</time>
      </trkpt>
      <trkpt lat="41.83574" lon="20.9708">
        <ele>549.389488</ele>
        <time>2022-04-24T10:34:04.701Z</time>
      </trkpt>
      <trkpt lat="41.83567" lon="20.97071">
        <ele>549.373339</ele>
        <time>2022-04-24T10:34:07.719Z</time>
      </trkpt>
      <trkpt lat="41.83559" lon="20.97061">
        <ele>549.353004</ele>
        <time>2022-04-24T10:34:11.703Z</time>
      </trkpt>
      <trkpt lat="41.83552" lon="20.97052">
        <ele>549.335442</ele>
        <time>2022-04-24T10:34:14.720Z</time>
      </trkpt>
      <trkpt lat="41.83545" lon="20.97042">
        <ele>549.317319</ele>
        <time>2022-04-24T10:34:17.710Z</time>
      </trkpt>
      <trkpt lat="41.83537" lon="20.97034">
        <ele>549.301101</ele>
        <time>2022-04-24T10:34:20.731Z</time>
      </trkpt>
      <trkpt lat="41.83529" lon="20.97029">
        <ele>549.284887</ele>
        <time>2022-04-24T10:34:23.710Z</time>
      </trkpt>
      <trkpt lat="41.83521" lon="20.97022">
        <ele>549.267765</ele>
        <time>2022-04-24T10:34:26.741Z</time>
      </trkpt>
      <trkpt lat="41.83514" lon="20.97015">
        <ele>549.229982</ele>
        <time>2022-04-24T10:34:29.710Z</time>
      </trkpt>
      <trkpt lat="41.83504" lon="20.97007">
        <ele>549.182589</ele>
        <time>2022-04-24T10:34:33.711Z</time>
      </trkpt>
      <trkpt lat="41.83494" lon="20.97002">
        <ele>549.137288</ele>
        <time>2022-04-24T10:34:37.743Z</time>
      </trkpt>
      <trkpt lat="41.83484" lon="20.96993">
        <ele>549.088678</ele>
        <time>2022-04-24T10:34:41.699Z</time>
      </trkpt>
      <trkpt lat="41.83476" lon="20.96986">
        <ele>549.047193</ele>
        <time>2022-04-24T10:34:44.726Z</time>
      </trkpt>
      <trkpt lat="41.83467" lon="20.96978">
        <ele>549.003576</ele>
        <time>2022-04-24T10:34:47.708Z</time>
      </trkpt>
      <trkpt lat="41.83459" lon="20.96971">
        <ele>548.964377</ele>
        <time>2022-04-24T10:34:50.714Z</time>
      </trkpt>
      <trkpt lat="41.83451" lon="20.96963">
        <ele>548.922306</ele>
        <time>2022-04-24T10:34:53.719Z</time>
      </trkpt>
      <trkpt lat="41.83442" lon="20.96955">
        <ele>548.879028</ele>
        <time>2022-04-24T10:34:56.703Z</time>
      </trkpt>
      <trkpt lat="41.83433" lon="20.96945">
        <ele>548.831206</ele>
        <time>2022-04-24T10:34:59.702Z</time>
      </trkpt>
      <trkpt lat="41.83423" lon="20.96936">
        <ele>548.778826</ele>
        <time>2022-04-24T10:35:02.697Z</time>
      </trkpt>
      <trkpt lat="41.83413" lon="20.96925">
        <ele>548.727478</ele>
        <time>2022-04-24T10:35:05.750Z</time>
      </trkpt>
      <trkpt lat="41.83403" lon="20.96914">
        <ele>548.673942</ele>
        <time>2022-04-24T10:35:08.717Z</time>
      </trkpt>
      <trkpt lat="41.83393" lon="20.96902">
        <ele>548.619181</ele>
        <time>2022-04-24T10:35:11.729Z</time>
      </trkpt>
      <trkpt lat="41.83387" lon="20.96893">
        <ele>548.580444</ele>
        <time>2022-04-24T10:35:13.693Z</time>
      </trkpt>
      <trkpt lat="41.83377" lon="20.96883">
        <ele>548.528867</ele>
        <time>2022-04-24T10:35:16.721Z</time>
      </trkpt>
      <trkpt lat="41.83369" lon="20.96875">
        <ele>548.4155</ele>
        <time>2022-04-24T10:35:18.704Z</time>
      </trkpt>
      <trkpt lat="41.83361" lon="20.96867">
        <ele>548.292001</ele>
        <time>2022-04-24T10:35:20.714Z</time>
      </trkpt>
      <trkpt lat="41.83354" lon="20.9686">
        <ele>548.175433</ele>
        <time>2022-04-24T10:35:22.713Z</time>
      </trkpt>
      <trkpt lat="41.83343" lon="20.96851">
        <ele>548.01286</ele>
        <time>2022-04-24T10:35:25.715Z</time>
      </trkpt>
      <trkpt lat="41.83333" lon="20.96844">
        <ele>547.868984</ele>
        <time>2022-04-24T10:35:28.725Z</time>
      </trkpt>
      <trkpt lat="41.83322" lon="20.96838">
        <ele>547.711954</ele>
        <time>2022-04-24T10:35:31.723Z</time>
      </trkpt>
      <trkpt lat="41.83313" lon="20.96835">
        <ele>547.594016</ele>
        <time>2022-04-24T10:35:33.710Z</time>
      </trkpt>
      <trkpt lat="41.83301" lon="20.9683">
        <ele>547.435761</ele>
        <time>2022-04-24T10:35:36.704Z</time>
      </trkpt>
      <trkpt lat="41.83288" lon="20.96824">
        <ele>547.267223</ele>
        <time>2022-04-24T10:35:39.718Z</time>
      </trkpt>
      <trkpt lat="41.83276" lon="20.96819">
        <ele>547.100749</ele>
        <time>2022-04-24T10:35:42.701Z</time>
      </trkpt>
      <trkpt lat="41.83264" lon="20.96815">
        <ele>546.946623</ele>
        <time>2022-04-24T10:35:45.696Z</time>
      </trkpt>
      <trkpt lat="41.83252" lon="20.9681">
        <ele>546.779986</ele>
        <time>2022-04-24T10:35:48.701Z</time>
      </trkpt>
      <trkpt lat="41.83239" lon="20.96805">
        <ele>546.617165</ele>
        <time>2022-04-24T10:35:51.703Z</time>
      </trkpt>
      <trkpt lat="41.83227" lon="20.96799">
        <ele>546.452871</ele>
        <time>2022-04-24T10:35:54.697Z</time>
      </trkpt>
      <trkpt lat="41.83216" lon="20.96792">
        <ele>546.295364</ele>
        <time>2022-04-24T10:35:57.733Z</time>
      </trkpt>
      <trkpt lat="41.83205" lon="20.96786">
        <ele>546.108737</ele>
        <time>2022-04-24T10:36:00.699Z</time>
      </trkpt>
      <trkpt lat="41.83194" lon="20.96779">
        <ele>545.919362</ele>
        <time>2022-04-24T10:36:03.698Z</time>
      </trkpt>
      <trkpt lat="41.83183" lon="20.96772">
        <ele>545.721449</ele>
        <time>2022-04-24T10:36:06.702Z</time>
      </trkpt>
      <trkpt lat="41.83172" lon="20.96767">
        <ele>545.527739</ele>
        <time>2022-04-24T10:36:09.740Z</time>
      </trkpt>
      <trkpt lat="41.83162" lon="20.96759">
        <ele>545.331577</ele>
        <time>2022-04-24T10:36:12.702Z</time>
      </trkpt>
      <trkpt lat="41.8315" lon="20.96753">
        <ele>545.1304</ele>
        <time>2022-04-24T10:36:15.700Z</time>
      </trkpt>
      <trkpt lat="41.83139" lon="20.96747">
        <ele>544.922371</ele>
        <time>2022-04-24T10:36:18.707Z</time>
      </trkpt>
      <trkpt lat="41.83127" lon="20.96741">
        <ele>544.71768</ele>
        <time>2022-04-24T10:36:21.706Z</time>
      </trkpt>
      <trkpt lat="41.83116" lon="20.96733">
        <ele>544.504717</ele>
        <time>2022-04-24T10:36:24.690Z</time>
      </trkpt>
      <trkpt lat="41.83104" lon="20.96725">
        <ele>544.295674</ele>
        <time>2022-04-24T10:36:27.726Z</time>
      </trkpt>
      <trkpt lat="41.83096" lon="20.9672">
        <ele>544.147819</ele>
        <time>2022-04-24T10:36:29.721Z</time>
      </trkpt>
      <trkpt lat="41.83083" lon="20.96714">
        <ele>543.926196</ele>
        <time>2022-04-24T10:36:32.708Z</time>
      </trkpt>
      <trkpt lat="41.83071" lon="20.96708">
        <ele>543.704914</ele>
        <time>2022-04-24T10:36:35.712Z</time>
      </trkpt>
      <trkpt lat="41.83062" lon="20.96703">
        <ele>543.547088</ele>
        <time>2022-04-24T10:36:37.714Z</time>
      </trkpt>
      <trkpt lat="41.8305" lon="20.96696">
        <ele>543.335667</ele>
        <time>2022-04-24T10:36:40.709Z</time>
      </trkpt>
      <trkpt lat="41.83039" lon="20.96689">
        <ele>543.314055</ele>
        <time>2022-04-24T10:36:43.731Z</time>
      </trkpt>
      <trkpt lat="41.83028" lon="20.96683">
        <ele>543.375119</ele>
        <time>2022-04-24T10:36:46.686Z</time>
      </trkpt>
      <trkpt lat="41.83016" lon="20.96677">
        <ele>543.436594</ele>
        <time>2022-04-24T10:36:49.723Z</time>
      </trkpt>
      <trkpt lat="41.83005" lon="20.9667">
        <ele>543.502385</ele>
        <time>2022-04-24T10:36:52.700Z</time>
      </trkpt>
      <trkpt lat="41.82993" lon="20.96664">
        <ele>543.565334</ele>
        <time>2022-04-24T10:36:55.704Z</time>
      </trkpt>
      <trkpt lat="41.82982" lon="20.96657">
        <ele>543.626043</ele>
        <time>2022-04-24T10:36:58.714Z</time>
      </trkpt>
      <trkpt lat="41.8297" lon="20.96651">
        <ele>543.68852</ele>
        <time>2022-04-24T10:37:01.707Z</time>
      </trkpt>
      <trkpt lat="41.82959" lon="20.96646">
        <ele>543.750466</ele>
        <time>2022-04-24T10:37:04.705Z</time>
      </trkpt>
      <trkpt lat="41.82947" lon="20.96639">
        <ele>543.813362</ele>
        <time>2022-04-24T10:37:07.713Z</time>
      </trkpt>
      <trkpt lat="41.82937" lon="20.96632">
        <ele>543.875465</ele>
        <time>2022-04-24T10:37:10.722Z</time>
      </trkpt>
      <trkpt lat="41.82926" lon="20.96624">
        <ele>543.938735</ele>
        <time>2022-04-24T10:37:13.720Z</time>
      </trkpt>
      <trkpt lat="41.82915" lon="20.96617">
        <ele>544.000873</ele>
        <time>2022-04-24T10:37:16.722Z</time>
      </trkpt>
      <trkpt lat="41.82903" lon="20.96609">
        <ele>544.065045</ele>
        <time>2022-04-24T10:37:19.723Z</time>
      </trkpt>
      <trkpt lat="41.82892" lon="20.96603">
        <ele>544.128269</ele>
        <time>2022-04-24T10:37:22.712Z</time>
      </trkpt>
      <trkpt lat="41.82881" lon="20.96597">
        <ele>544.179325</ele>
        <time>2022-04-24T10:37:25.699Z</time>
      </trkpt>
      <trkpt lat="41.8287" lon="20.96592">
        <ele>544.155388</ele>
        <time>2022-04-24T10:37:28.708Z</time>
      </trkpt>
      <trkpt lat="41.8286" lon="20.96586">
        <ele>544.133025</ele>
        <time>2022-04-24T10:37:31.699Z</time>
      </trkpt>
      <trkpt lat="41.82851" lon="20.96582">
        <ele>544.113594</ele>
        <time>2022-04-24T10:37:34.735Z</time>
      </trkpt>
      <trkpt lat="41.82842" lon="20.96577">
        <ele>544.093472</ele>
        <time>2022-04-24T10:37:37.727Z</time>
      </trkpt>
      <trkpt lat="41.82832" lon="20.96572">
        <ele>544.071934</ele>
        <time>2022-04-24T10:37:40.693Z</time>
      </trkpt>
      <trkpt lat="41.82822" lon="20.96567">
        <ele>544.048418</ele>
        <time>2022-04-24T10:37:43.695Z</time>
      </trkpt>
      <trkpt lat="41.82812" lon="20.96561">
        <ele>544.026066</ele>
        <time>2022-04-24T10:37:46.713Z</time>
      </trkpt>
      <trkpt lat="41.82802" lon="20.96555">
        <ele>544.004908</ele>
        <time>2022-04-24T10:37:49.709Z</time>
      </trkpt>
      <trkpt lat="41.82793" lon="20.96551">
        <ele>543.984113</ele>
        <time>2022-04-24T10:37:52.717Z</time>
      </trkpt>
      <trkpt lat="41.82784" lon="20.96547">
        <ele>543.963708</ele>
        <time>2022-04-24T10:37:55.714Z</time>
      </trkpt>
      <trkpt lat="41.82773" lon="20.9654">
        <ele>543.939837</ele>
        <time>2022-04-24T10:37:59.705Z</time>
      </trkpt>
      <trkpt lat="41.82765" lon="20.96534">
        <ele>543.920693</ele>
        <time>2022-04-24T10:38:02.718Z</time>
      </trkpt>
      <trkpt lat="41.82755" lon="20.96527">
        <ele>543.897019</ele>
        <time>2022-04-24T10:38:05.693Z</time>
      </trkpt>
      <trkpt lat="41.82743" lon="20.9652">
        <ele>543.870629</ele>
        <time>2022-04-24T10:38:08.714Z</time>
      </trkpt>
      <trkpt lat="41.82731" lon="20.96513">
        <ele>543.843366</ele>
        <time>2022-04-24T10:38:11.723Z</time>
      </trkpt>
      <trkpt lat="41.82723" lon="20.96509">
        <ele>543.824429</ele>
        <time>2022-04-24T10:38:13.710Z</time>
      </trkpt>
      <trkpt lat="41.8271" lon="20.96502">
        <ele>543.769945</ele>
        <time>2022-04-24T10:38:16.704Z</time>
      </trkpt>
      <trkpt lat="41.82698" lon="20.96496">
        <ele>543.682494</ele>
        <time>2022-04-24T10:38:19.697Z</time>
      </trkpt>
      <trkpt lat="41.82689" lon="20.96492">
        <ele>543.619875</ele>
        <time>2022-04-24T10:38:21.710Z</time>
      </trkpt>
      <trkpt lat="41.82681" lon="20.96488">
        <ele>543.558253</ele>
        <time>2022-04-24T10:38:23.702Z</time>
      </trkpt>
      <trkpt lat="41.82672" lon="20.96484">
        <ele>543.495654</ele>
        <time>2022-04-24T10:38:25.694Z</time>
      </trkpt>
      <trkpt lat="41.82663" lon="20.9648">
        <ele>543.430015</ele>
        <time>2022-04-24T10:38:27.715Z</time>
      </trkpt>
      <trkpt lat="41.82653" lon="20.96475">
        <ele>543.360844</ele>
        <time>2022-04-24T10:38:29.712Z</time>
      </trkpt>
      <trkpt lat="41.82644" lon="20.96472">
        <ele>543.293153</ele>
        <time>2022-04-24T10:38:31.714Z</time>
      </trkpt>
      <trkpt lat="41.82635" lon="20.96468">
        <ele>543.232328</ele>
        <time>2022-04-24T10:38:33.706Z</time>
      </trkpt>
      <trkpt lat="41.82624" lon="20.96461">
        <ele>543.148477</ele>
        <time>2022-04-24T10:38:36.737Z</time>
      </trkpt>
      <trkpt lat="41.82612" lon="20.96455">
        <ele>543.062286</ele>
        <time>2022-04-24T10:38:39.715Z</time>
      </trkpt>
      <trkpt lat="41.826" lon="20.9645">
        <ele>542.977786</ele>
        <time>2022-04-24T10:38:42.726Z</time>
      </trkpt>
      <trkpt lat="41.82589" lon="20.96446">
        <ele>542.90409</ele>
        <time>2022-04-24T10:38:45.691Z</time>
      </trkpt>
      <trkpt lat="41.82578" lon="20.96441">
        <ele>542.821124</ele>
        <time>2022-04-24T10:38:48.704Z</time>
      </trkpt>
      <trkpt lat="41.82568" lon="20.96438">
        <ele>542.756878</ele>
        <time>2022-04-24T10:38:50.707Z</time>
      </trkpt>
      <trkpt lat="41.82559" lon="20.96435">
        <ele>542.68814</ele>
        <time>2022-04-24T10:38:52.717Z</time>
      </trkpt>
      <trkpt lat="41.82549" lon="20.9643">
        <ele>542.616087</ele>
        <time>2022-04-24T10:38:54.742Z</time>
      </trkpt>
      <trkpt lat="41.82538" lon="20.96426">
        <ele>542.730739</ele>
        <time>2022-04-24T10:38:56.699Z</time>
      </trkpt>
      <trkpt lat="41.82528" lon="20.96423">
        <ele>542.918601</ele>
        <time>2022-04-24T10:38:58.718Z</time>
      </trkpt>
      <trkpt lat="41.82519" lon="20.96419">
        <ele>543.093783</ele>
        <time>2022-04-24T10:39:00.725Z</time>
      </trkpt>
      <trkpt lat="41.82509" lon="20.96415">
        <ele>543.281646</ele>
        <time>2022-04-24T10:39:02.718Z</time>
      </trkpt>
      <trkpt lat="41.825" lon="20.96411">
        <ele>543.468896</ele>
        <time>2022-04-24T10:39:04.730Z</time>
      </trkpt>
      <trkpt lat="41.82489" lon="20.96406">
        <ele>543.666165</ele>
        <time>2022-04-24T10:39:06.727Z</time>
      </trkpt>
      <trkpt lat="41.82479" lon="20.96402">
        <ele>543.874239</ele>
        <time>2022-04-24T10:39:08.708Z</time>
      </trkpt>
      <trkpt lat="41.82467" lon="20.96397">
        <ele>544.086208</ele>
        <time>2022-04-24T10:39:10.737Z</time>
      </trkpt>
      <trkpt lat="41.82457" lon="20.96394">
        <ele>544.291088</ele>
        <time>2022-04-24T10:39:12.702Z</time>
      </trkpt>
      <trkpt lat="41.82446" lon="20.96391">
        <ele>544.481408</ele>
        <time>2022-04-24T10:39:14.704Z</time>
      </trkpt>
      <trkpt lat="41.82436" lon="20.96388">
        <ele>544.674372</ele>
        <time>2022-04-24T10:39:16.700Z</time>
      </trkpt>
      <trkpt lat="41.82426" lon="20.96386">
        <ele>544.866627</ele>
        <time>2022-04-24T10:39:18.709Z</time>
      </trkpt>
      <trkpt lat="41.82414" lon="20.96383">
        <ele>545.07396</ele>
        <time>2022-04-24T10:39:20.728Z</time>
      </trkpt>
      <trkpt lat="41.82405" lon="20.96378">
        <ele>545.267108</ele>
        <time>2022-04-24T10:39:22.728Z</time>
      </trkpt>
      <trkpt lat="41.82398" lon="20.9637">
        <ele>545.436063</ele>
        <time>2022-04-24T10:39:24.722Z</time>
      </trkpt>
      <trkpt lat="41.82388" lon="20.9636">
        <ele>545.660828</ele>
        <time>2022-04-24T10:39:26.717Z</time>
      </trkpt>
      <trkpt lat="41.82377" lon="20.96349">
        <ele>545.826433</ele>
        <time>2022-04-24T10:39:28.713Z</time>
      </trkpt>
      <trkpt lat="41.82367" lon="20.9634">
        <ele>545.384329</ele>
        <time>2022-04-24T10:39:30.710Z</time>
      </trkpt>
      <trkpt lat="41.82355" lon="20.96332">
        <ele>544.93023</ele>
        <time>2022-04-24T10:39:32.718Z</time>
      </trkpt>
      <trkpt lat="41.82345" lon="20.96321">
        <ele>544.44202</ele>
        <time>2022-04-24T10:39:34.711Z</time>
      </trkpt>
      <trkpt lat="41.82337" lon="20.96305">
        <ele>543.925743</ele>
        <time>2022-04-24T10:39:36.727Z</time>
      </trkpt>
      <trkpt lat="41.82333" lon="20.96285">
        <ele>543.392394</ele>
        <time>2022-04-24T10:39:38.730Z</time>
      </trkpt>
      <trkpt lat="41.8233" lon="20.96266">
        <ele>542.870382</ele>
        <time>2022-04-24T10:39:40.721Z</time>
      </trkpt>
      <trkpt lat="41.82329" lon="20.9625">
        <ele>542.432632</ele>
        <time>2022-04-24T10:39:42.714Z</time>
      </trkpt>
      <trkpt lat="41.82329" lon="20.96233">
        <ele>541.987522</ele>
        <time>2022-04-24T10:39:44.693Z</time>
      </trkpt>
      <trkpt lat="41.8233" lon="20.96219">
        <ele>541.594128</ele>
        <time>2022-04-24T10:39:46.699Z</time>
      </trkpt>
      <trkpt lat="41.82332" lon="20.96206">
        <ele>541.246694</ele>
        <time>2022-04-24T10:39:48.703Z</time>
      </trkpt>
      <trkpt lat="41.82335" lon="20.96194">
        <ele>540.902244</ele>
        <time>2022-04-24T10:39:50.718Z</time>
      </trkpt>
      <trkpt lat="41.82338" lon="20.9618">
        <ele>540.522381</ele>
        <time>2022-04-24T10:39:52.711Z</time>
      </trkpt>
      <trkpt lat="41.82339" lon="20.96167">
        <ele>540.16578</ele>
        <time>2022-04-24T10:39:54.711Z</time>
      </trkpt>
      <trkpt lat="41.82342" lon="20.96155">
        <ele>539.815152</ele>
        <time>2022-04-24T10:39:56.700Z</time>
      </trkpt>
      <trkpt lat="41.82345" lon="20.96142">
        <ele>539.46344</ele>
        <time>2022-04-24T10:39:58.699Z</time>
      </trkpt>
      <trkpt lat="41.82349" lon="20.96126">
        <ele>539.339493</ele>
        <time>2022-04-24T10:40:01.701Z</time>
      </trkpt>
      <trkpt lat="41.82354" lon="20.96111">
        <ele>539.260006</ele>
        <time>2022-04-24T10:40:04.755Z</time>
      </trkpt>
      <trkpt lat="41.82357" lon="20.96096">
        <ele>539.175389</ele>
        <time>2022-04-24T10:40:07.713Z</time>
      </trkpt>
      <trkpt lat="41.82361" lon="20.9608">
        <ele>539.091067</ele>
        <time>2022-04-24T10:40:10.707Z</time>
      </trkpt>
      <trkpt lat="41.82365" lon="20.96065">
        <ele>539.007036</ele>
        <time>2022-04-24T10:40:13.711Z</time>
      </trkpt>
      <trkpt lat="41.82365" lon="20.9605">
        <ele>538.92893</ele>
        <time>2022-04-24T10:40:16.716Z</time>
      </trkpt>
      <trkpt lat="41.82363" lon="20.96033">
        <ele>538.845181</ele>
        <time>2022-04-24T10:40:19.736Z</time>
      </trkpt>
      <trkpt lat="41.82362" lon="20.96021">
        <ele>538.777992</ele>
        <time>2022-04-24T10:40:21.709Z</time>
      </trkpt>
      <trkpt lat="41.82361" lon="20.96009">
        <ele>538.71615</ele>
        <time>2022-04-24T10:40:23.714Z</time>
      </trkpt>
      <trkpt lat="41.82359" lon="20.95997">
        <ele>538.653121</ele>
        <time>2022-04-24T10:40:25.797Z</time>
      </trkpt>
      <trkpt lat="41.82356" lon="20.95979">
        <ele>538.560862</ele>
        <time>2022-04-24T10:40:28.696Z</time>
      </trkpt>
      <trkpt lat="41.82357" lon="20.95962">
        <ele>538.472787</ele>
        <time>2022-04-24T10:40:31.713Z</time>
      </trkpt>
      <trkpt lat="41.82358" lon="20.95945">
        <ele>538.385377</ele>
        <time>2022-04-24T10:40:34.712Z</time>
      </trkpt>
      <trkpt lat="41.82352" lon="20.9593">
        <ele>538.298863</ele>
        <time>2022-04-24T10:40:37.698Z</time>
      </trkpt>
      <trkpt lat="41.82344" lon="20.95918">
        <ele>538.220194</ele>
        <time>2022-04-24T10:40:40.705Z</time>
      </trkpt>
      <trkpt lat="41.82334" lon="20.95909">
        <ele>538.231312</ele>
        <time>2022-04-24T10:40:43.709Z</time>
      </trkpt>
      <trkpt lat="41.82326" lon="20.95902">
        <ele>538.302784</ele>
        <time>2022-04-24T10:40:45.711Z</time>
      </trkpt>
      <trkpt lat="41.82318" lon="20.95895">
        <ele>538.378795</ele>
        <time>2022-04-24T10:40:47.728Z</time>
      </trkpt>
      <trkpt lat="41.82307" lon="20.95885">
        <ele>538.482867</ele>
        <time>2022-04-24T10:40:50.714Z</time>
      </trkpt>
      <trkpt lat="41.82296" lon="20.95876">
        <ele>538.584215</ele>
        <time>2022-04-24T10:40:53.727Z</time>
      </trkpt>
      <trkpt lat="41.82285" lon="20.95866">
        <ele>538.686871</ele>
        <time>2022-04-24T10:40:56.721Z</time>
      </trkpt>
      <trkpt lat="41.82273" lon="20.95857">
        <ele>538.795921</ele>
        <time>2022-04-24T10:40:59.707Z</time>
      </trkpt>
      <trkpt lat="41.82265" lon="20.95852">
        <ele>538.868169</ele>
        <time>2022-04-24T10:41:01.707Z</time>
      </trkpt>
      <trkpt lat="41.82256" lon="20.95847">
        <ele>538.941264</ele>
        <time>2022-04-24T10:41:03.729Z</time>
      </trkpt>
      <trkpt lat="41.82244" lon="20.95838">
        <ele>539.050867</ele>
        <time>2022-04-24T10:41:06.715Z</time>
      </trkpt>
      <trkpt lat="41.82235" lon="20.95831">
        <ele>539.131199</ele>
        <time>2022-04-24T10:41:08.740Z</time>
      </trkpt>
      <trkpt lat="41.82226" lon="20.95824">
        <ele>539.210261</ele>
        <time>2022-04-24T10:41:10.729Z</time>
      </trkpt>
      <trkpt lat="41.82218" lon="20.95818">
        <ele>539.286637</ele>
        <time>2022-04-24T10:41:12.704Z</time>
      </trkpt>
      <trkpt lat="41.82209" lon="20.95812">
        <ele>539.361359</ele>
        <time>2022-04-24T10:41:14.710Z</time>
      </trkpt>
      <trkpt lat="41.82201" lon="20.95806">
        <ele>539.432222</ele>
        <time>2022-04-24T10:41:16.715Z</time>
      </trkpt>
      <trkpt lat="41.82194" lon="20.95799">
        <ele>539.503446</ele>
        <time>2022-04-24T10:41:18.714Z</time>
      </trkpt>
      <trkpt lat="41.82184" lon="20.95786">
        <ele>539.61267</ele>
        <time>2022-04-24T10:41:21.733Z</time>
      </trkpt>
      <trkpt lat="41.82177" lon="20.95777">
        <ele>539.693569</ele>
        <time>2022-04-24T10:41:23.708Z</time>
      </trkpt>
      <trkpt lat="41.82168" lon="20.95764">
        <ele>539.806079</ele>
        <time>2022-04-24T10:41:26.706Z</time>
      </trkpt>
      <trkpt lat="41.8216" lon="20.95751">
        <ele>539.914459</ele>
        <time>2022-04-24T10:41:29.704Z</time>
      </trkpt>
      <trkpt lat="41.82152" lon="20.95739">
        <ele>540.016333</ele>
        <time>2022-04-24T10:41:32.723Z</time>
      </trkpt>
      <trkpt lat="41.82145" lon="20.95727">
        <ele>540.114518</ele>
        <time>2022-04-24T10:41:35.712Z</time>
      </trkpt>
      <trkpt lat="41.82137" lon="20.95715">
        <ele>540.21308</ele>
        <time>2022-04-24T10:41:38.697Z</time>
      </trkpt>
      <trkpt lat="41.8213" lon="20.95702">
        <ele>540.31471</ele>
        <time>2022-04-24T10:41:41.728Z</time>
      </trkpt>
      <trkpt lat="41.82122" lon="20.9569">
        <ele>540.418428</ele>
        <time>2022-04-24T10:41:44.721Z</time>
      </trkpt>
      <trkpt lat="41.82115" lon="20.95678">
        <ele>540.517231</ele>
        <time>2022-04-24T10:41:47.721Z</time>
      </trkpt>
      <trkpt lat="41.82107" lon="20.95666">
        <ele>540.614447</ele>
        <time>2022-04-24T10:41:50.724Z</time>
      </trkpt>
      <trkpt lat="41.82098" lon="20.95655">
        <ele>540.717508</ele>
        <time>2022-04-24T10:41:53.718Z</time>
      </trkpt>
      <trkpt lat="41.82088" lon="20.95645">
        <ele>540.830194</ele>
        <time>2022-04-24T10:41:56.716Z</time>
      </trkpt>
      <trkpt lat="41.82077" lon="20.95636">
        <ele>540.933993</ele>
        <time>2022-04-24T10:41:59.715Z</time>
      </trkpt>
      <trkpt lat="41.82067" lon="20.95627">
        <ele>541.040288</ele>
        <time>2022-04-24T10:42:02.708Z</time>
      </trkpt>
      <trkpt lat="41.82055" lon="20.95619">
        <ele>541.043183</ele>
        <time>2022-04-24T10:42:05.714Z</time>
      </trkpt>
      <trkpt lat="41.82045" lon="20.9561">
        <ele>540.837149</ele>
        <time>2022-04-24T10:42:08.718Z</time>
      </trkpt>
      <trkpt lat="41.82035" lon="20.95602">
        <ele>540.627404</ele>
        <time>2022-04-24T10:42:11.813Z</time>
      </trkpt>
      <trkpt lat="41.82024" lon="20.95593">
        <ele>540.412572</ele>
        <time>2022-04-24T10:42:14.703Z</time>
      </trkpt>
      <trkpt lat="41.82013" lon="20.95584">
        <ele>540.19641</ele>
        <time>2022-04-24T10:42:17.709Z</time>
      </trkpt>
      <trkpt lat="41.82002" lon="20.95577">
        <ele>539.979652</ele>
        <time>2022-04-24T10:42:20.707Z</time>
      </trkpt>
      <trkpt lat="41.81995" lon="20.9557">
        <ele>539.825782</ele>
        <time>2022-04-24T10:42:22.714Z</time>
      </trkpt>
      <trkpt lat="41.81983" lon="20.95563">
        <ele>539.598643</ele>
        <time>2022-04-24T10:42:25.697Z</time>
      </trkpt>
      <trkpt lat="41.81971" lon="20.95553">
        <ele>539.368962</ele>
        <time>2022-04-24T10:42:28.714Z</time>
      </trkpt>
      <trkpt lat="41.81961" lon="20.95544">
        <ele>539.151329</ele>
        <time>2022-04-24T10:42:31.773Z</time>
      </trkpt>
      <trkpt lat="41.8195" lon="20.95534">
        <ele>538.928055</ele>
        <time>2022-04-24T10:42:34.715Z</time>
      </trkpt>
      <trkpt lat="41.8194" lon="20.95522">
        <ele>538.694294</ele>
        <time>2022-04-24T10:42:37.712Z</time>
      </trkpt>
      <trkpt lat="41.81933" lon="20.95513">
        <ele>538.530091</ele>
        <time>2022-04-24T10:42:39.723Z</time>
      </trkpt>
      <trkpt lat="41.81925" lon="20.95499">
        <ele>538.30674</ele>
        <time>2022-04-24T10:42:42.677Z</time>
      </trkpt>
      <trkpt lat="41.81921" lon="20.95482">
        <ele>538.073989</ele>
        <time>2022-04-24T10:42:45.668Z</time>
      </trkpt>
      <trkpt lat="41.81918" lon="20.95468">
        <ele>537.90228</ele>
        <time>2022-04-24T10:42:47.745Z</time>
      </trkpt>
      <trkpt lat="41.81916" lon="20.95456">
        <ele>537.759345</ele>
        <time>2022-04-24T10:42:49.685Z</time>
      </trkpt>
      <trkpt lat="41.81913" lon="20.95439">
        <ele>537.557635</ele>
        <time>2022-04-24T10:42:52.680Z</time>
      </trkpt>
      <trkpt lat="41.81911" lon="20.95423">
        <ele>537.365691</ele>
        <time>2022-04-24T10:42:55.683Z</time>
      </trkpt>
      <trkpt lat="41.81908" lon="20.95407">
        <ele>537.169644</ele>
        <time>2022-04-24T10:42:58.686Z</time>
      </trkpt>
      <trkpt lat="41.81906" lon="20.95391">
        <ele>536.980725</ele>
        <time>2022-04-24T10:43:01.682Z</time>
      </trkpt>
      <trkpt lat="41.81904" lon="20.95374">
        <ele>536.783312</ele>
        <time>2022-04-24T10:43:04.681Z</time>
      </trkpt>
      <trkpt lat="41.81903" lon="20.95358">
        <ele>536.595747</ele>
        <time>2022-04-24T10:43:07.688Z</time>
      </trkpt>
      <trkpt lat="41.81901" lon="20.95342">
        <ele>536.408449</ele>
        <time>2022-04-24T10:43:10.701Z</time>
      </trkpt>
      <trkpt lat="41.81899" lon="20.95326">
        <ele>536.22264</ele>
        <time>2022-04-24T10:43:13.686Z</time>
      </trkpt>
      <trkpt lat="41.81897" lon="20.9531">
        <ele>536.031112</ele>
        <time>2022-04-24T10:43:16.691Z</time>
      </trkpt>
      <trkpt lat="41.81895" lon="20.95294">
        <ele>535.839285</ele>
        <time>2022-04-24T10:43:19.687Z</time>
      </trkpt>
      <trkpt lat="41.81893" lon="20.95278">
        <ele>535.653135</ele>
        <time>2022-04-24T10:43:22.683Z</time>
      </trkpt>
      <trkpt lat="41.81893" lon="20.95258">
        <ele>535.419093</ele>
        <time>2022-04-24T10:43:26.678Z</time>
      </trkpt>
      <trkpt lat="41.81893" lon="20.95245">
        <ele>535.268848</ele>
        <time>2022-04-24T10:43:29.682Z</time>
      </trkpt>
      <trkpt lat="41.81894" lon="20.95232">
        <ele>535.152098</ele>
        <time>2022-04-24T10:43:32.684Z</time>
      </trkpt>
      <trkpt lat="41.81896" lon="20.95219">
        <ele>535.051346</ele>
        <time>2022-04-24T10:43:35.678Z</time>
      </trkpt>
      <trkpt lat="41.81897" lon="20.95206">
        <ele>534.950308</ele>
        <time>2022-04-24T10:43:38.688Z</time>
      </trkpt>
      <trkpt lat="41.819" lon="20.95192">
        <ele>534.841361</ele>
        <time>2022-04-24T10:43:41.693Z</time>
      </trkpt>
      <trkpt lat="41.81903" lon="20.95174">
        <ele>534.702962</ele>
        <time>2022-04-24T10:43:44.678Z</time>
      </trkpt>
      <trkpt lat="41.81906" lon="20.9516">
        <ele>534.586173</ele>
        <time>2022-04-24T10:43:46.686Z</time>
      </trkpt>
      <trkpt lat="41.81909" lon="20.95144">
        <ele>534.468429</ele>
        <time>2022-04-24T10:43:48.686Z</time>
      </trkpt>
      <trkpt lat="41.8191" lon="20.9513">
        <ele>534.358409</ele>
        <time>2022-04-24T10:43:50.699Z</time>
      </trkpt>
      <trkpt lat="41.8191" lon="20.95116">
        <ele>534.250839</ele>
        <time>2022-04-24T10:43:52.691Z</time>
      </trkpt>
      <trkpt lat="41.8191" lon="20.95102">
        <ele>534.144141</ele>
        <time>2022-04-24T10:43:54.688Z</time>
      </trkpt>
      <trkpt lat="41.81911" lon="20.95088">
        <ele>534.039226</ele>
        <time>2022-04-24T10:43:56.687Z</time>
      </trkpt>
      <trkpt lat="41.81912" lon="20.95074">
        <ele>533.93675</ele>
        <time>2022-04-24T10:43:58.698Z</time>
      </trkpt>
      <trkpt lat="41.81913" lon="20.95062">
        <ele>533.841213</ele>
        <time>2022-04-24T10:44:00.702Z</time>
      </trkpt>
      <trkpt lat="41.81914" lon="20.95049">
        <ele>533.747115</ele>
        <time>2022-04-24T10:44:02.679Z</time>
      </trkpt>
      <trkpt lat="41.81914" lon="20.95037">
        <ele>533.653771</ele>
        <time>2022-04-24T10:44:04.683Z</time>
      </trkpt>
      <trkpt lat="41.81915" lon="20.95025">
        <ele>533.559098</ele>
        <time>2022-04-24T10:44:06.679Z</time>
      </trkpt>
      <trkpt lat="41.81915" lon="20.95012">
        <ele>533.466781</ele>
        <time>2022-04-24T10:44:08.683Z</time>
      </trkpt>
      <trkpt lat="41.81914" lon="20.95">
        <ele>533.3836</ele>
        <time>2022-04-24T10:44:10.681Z</time>
      </trkpt>
      <trkpt lat="41.81914" lon="20.94988">
        <ele>533.384056</ele>
        <time>2022-04-24T10:44:12.692Z</time>
      </trkpt>
      <trkpt lat="41.81914" lon="20.9497">
        <ele>533.384701</ele>
        <time>2022-04-24T10:44:15.680Z</time>
      </trkpt>
      <trkpt lat="41.81914" lon="20.94953">
        <ele>533.385325</ele>
        <time>2022-04-24T10:44:18.702Z</time>
      </trkpt>
      <trkpt lat="41.81915" lon="20.94935">
        <ele>533.385978</ele>
        <time>2022-04-24T10:44:21.679Z</time>
      </trkpt>
      <trkpt lat="41.81916" lon="20.94922">
        <ele>533.386438</ele>
        <time>2022-04-24T10:44:23.682Z</time>
      </trkpt>
      <trkpt lat="41.81916" lon="20.9491">
        <ele>533.386887</ele>
        <time>2022-04-24T10:44:25.710Z</time>
      </trkpt>
      <trkpt lat="41.81917" lon="20.94897">
        <ele>533.387354</ele>
        <time>2022-04-24T10:44:27.684Z</time>
      </trkpt>
      <trkpt lat="41.81917" lon="20.94884">
        <ele>533.387832</ele>
        <time>2022-04-24T10:44:29.685Z</time>
      </trkpt>
      <trkpt lat="41.81917" lon="20.94872">
        <ele>533.388291</ele>
        <time>2022-04-24T10:44:31.702Z</time>
      </trkpt>
      <trkpt lat="41.81917" lon="20.9486">
        <ele>533.388732</ele>
        <time>2022-04-24T10:44:33.696Z</time>
      </trkpt>
      <trkpt lat="41.81915" lon="20.94842">
        <ele>533.389383</ele>
        <time>2022-04-24T10:44:36.694Z</time>
      </trkpt>
      <trkpt lat="41.81914" lon="20.9483">
        <ele>533.389825</ele>
        <time>2022-04-24T10:44:38.681Z</time>
      </trkpt>
      <trkpt lat="41.81912" lon="20.94818">
        <ele>533.390271</ele>
        <time>2022-04-24T10:44:40.679Z</time>
      </trkpt>
      <trkpt lat="41.8191" lon="20.94802">
        <ele>533.390866</ele>
        <time>2022-04-24T10:44:43.696Z</time>
      </trkpt>
      <trkpt lat="41.81907" lon="20.94784">
        <ele>533.391507</ele>
        <time>2022-04-24T10:44:46.686Z</time>
      </trkpt>
      <trkpt lat="41.81906" lon="20.94771">
        <ele>533.392</ele>
        <time>2022-04-24T10:44:48.686Z</time>
      </trkpt>
      <trkpt lat="41.81904" lon="20.94758">
        <ele>533.358614</ele>
        <time>2022-04-24T10:44:50.682Z</time>
      </trkpt>
      <trkpt lat="41.81902" lon="20.94746">
        <ele>533.225432</ele>
        <time>2022-04-24T10:44:52.698Z</time>
      </trkpt>
      <trkpt lat="41.819" lon="20.94735">
        <ele>533.096018</ele>
        <time>2022-04-24T10:44:54.688Z</time>
      </trkpt>
      <trkpt lat="41.81898" lon="20.94722">
        <ele>532.959806</ele>
        <time>2022-04-24T10:44:56.690Z</time>
      </trkpt>
      <trkpt lat="41.81897" lon="20.9471">
        <ele>532.82781</ele>
        <time>2022-04-24T10:44:58.683Z</time>
      </trkpt>
      <trkpt lat="41.81894" lon="20.94692">
        <ele>532.634148</ele>
        <time>2022-04-24T10:45:01.687Z</time>
      </trkpt>
      <trkpt lat="41.81892" lon="20.94676">
        <ele>532.452008</ele>
        <time>2022-04-24T10:45:04.686Z</time>
      </trkpt>
      <trkpt lat="41.81891" lon="20.94664">
        <ele>532.322567</ele>
        <time>2022-04-24T10:45:06.693Z</time>
      </trkpt>
      <trkpt lat="41.8189" lon="20.94651">
        <ele>532.185665</ele>
        <time>2022-04-24T10:45:08.685Z</time>
      </trkpt>
      <trkpt lat="41.81888" lon="20.94638">
        <ele>532.050368</ele>
        <time>2022-04-24T10:45:10.695Z</time>
      </trkpt>
      <trkpt lat="41.81886" lon="20.94626">
        <ele>531.913315</ele>
        <time>2022-04-24T10:45:12.699Z</time>
      </trkpt>
      <trkpt lat="41.81884" lon="20.94614">
        <ele>531.781804</ele>
        <time>2022-04-24T10:45:14.693Z</time>
      </trkpt>
      <trkpt lat="41.81882" lon="20.94597">
        <ele>531.59843</ele>
        <time>2022-04-24T10:45:17.677Z</time>
      </trkpt>
      <trkpt lat="41.81879" lon="20.9458">
        <ele>531.407902</ele>
        <time>2022-04-24T10:45:20.695Z</time>
      </trkpt>
      <trkpt lat="41.81877" lon="20.94563">
        <ele>531.225013</ele>
        <time>2022-04-24T10:45:23.706Z</time>
      </trkpt>
      <trkpt lat="41.81874" lon="20.94546">
        <ele>531.037685</ele>
        <time>2022-04-24T10:45:26.706Z</time>
      </trkpt>
      <trkpt lat="41.81872" lon="20.94528">
        <ele>530.841403</ele>
        <time>2022-04-24T10:45:29.686Z</time>
      </trkpt>
      <trkpt lat="41.8187" lon="20.94515">
        <ele>530.90468</ele>
        <time>2022-04-24T10:45:31.692Z</time>
      </trkpt>
      <trkpt lat="41.81868" lon="20.94502">
        <ele>531.04168</ele>
        <time>2022-04-24T10:45:33.683Z</time>
      </trkpt>
      <trkpt lat="41.81867" lon="20.9449">
        <ele>531.171171</ele>
        <time>2022-04-24T10:45:35.686Z</time>
      </trkpt>
      <trkpt lat="41.81865" lon="20.94478">
        <ele>531.299881</ele>
        <time>2022-04-24T10:45:37.694Z</time>
      </trkpt>
      <trkpt lat="41.81864" lon="20.94466">
        <ele>531.429132</ele>
        <time>2022-04-24T10:45:39.681Z</time>
      </trkpt>
      <trkpt lat="41.81861" lon="20.94454">
        <ele>531.560713</ele>
        <time>2022-04-24T10:45:41.677Z</time>
      </trkpt>
      <trkpt lat="41.81858" lon="20.94442">
        <ele>531.692087</ele>
        <time>2022-04-24T10:45:43.702Z</time>
      </trkpt>
      <trkpt lat="41.81855" lon="20.94431">
        <ele>531.819479</ele>
        <time>2022-04-24T10:45:45.685Z</time>
      </trkpt>
      <trkpt lat="41.8185" lon="20.94414">
        <ele>532.010903</ele>
        <time>2022-04-24T10:45:48.683Z</time>
      </trkpt>
      <trkpt lat="41.81843" lon="20.94398">
        <ele>532.200393</ele>
        <time>2022-04-24T10:45:51.687Z</time>
      </trkpt>
      <trkpt lat="41.81836" lon="20.94384">
        <ele>532.386289</ele>
        <time>2022-04-24T10:45:54.681Z</time>
      </trkpt>
      <trkpt lat="41.81826" lon="20.94372">
        <ele>532.574149</ele>
        <time>2022-04-24T10:45:57.680Z</time>
      </trkpt>
      <trkpt lat="41.81815" lon="20.94362">
        <ele>532.756781</ele>
        <time>2022-04-24T10:46:00.702Z</time>
      </trkpt>
      <trkpt lat="41.81803" lon="20.94355">
        <ele>532.943972</ele>
        <time>2022-04-24T10:46:03.700Z</time>
      </trkpt>
      <trkpt lat="41.81794" lon="20.94351">
        <ele>533.07534</ele>
        <time>2022-04-24T10:46:05.690Z</time>
      </trkpt>
      <trkpt lat="41.81785" lon="20.94347">
        <ele>533.212404</ele>
        <time>2022-04-24T10:46:07.688Z</time>
      </trkpt>
      <trkpt lat="41.81776" lon="20.94343">
        <ele>533.346126</ele>
        <time>2022-04-24T10:46:09.680Z</time>
      </trkpt>
      <trkpt lat="41.81764" lon="20.94338">
        <ele>533.546074</ele>
        <time>2022-04-24T10:46:12.686Z</time>
      </trkpt>
      <trkpt lat="41.81752" lon="20.94332">
        <ele>533.742941</ele>
        <time>2022-04-24T10:46:15.701Z</time>
      </trkpt>
      <trkpt lat="41.8174" lon="20.94327">
        <ele>533.929196</ele>
        <time>2022-04-24T10:46:18.693Z</time>
      </trkpt>
      <trkpt lat="41.8173" lon="20.94322">
        <ele>534.104421</ele>
        <time>2022-04-24T10:46:21.683Z</time>
      </trkpt>
      <trkpt lat="41.81719" lon="20.94318">
        <ele>534.277494</ele>
        <time>2022-04-24T10:46:24.679Z</time>
      </trkpt>
      <trkpt lat="41.81708" lon="20.94314">
        <ele>534.455009</ele>
        <time>2022-04-24T10:46:27.693Z</time>
      </trkpt>
      <trkpt lat="41.81697" lon="20.94309">
        <ele>534.629858</ele>
        <time>2022-04-24T10:46:30.691Z</time>
      </trkpt>
      <trkpt lat="41.81687" lon="20.94304">
        <ele>534.805806</ele>
        <time>2022-04-24T10:46:33.697Z</time>
      </trkpt>
      <trkpt lat="41.81676" lon="20.94299">
        <ele>534.980697</ele>
        <time>2022-04-24T10:46:36.683Z</time>
      </trkpt>
      <trkpt lat="41.81666" lon="20.94294">
        <ele>535.151136</ele>
        <time>2022-04-24T10:46:39.683Z</time>
      </trkpt>
      <trkpt lat="41.81656" lon="20.94287">
        <ele>535.322098</ele>
        <time>2022-04-24T10:46:42.689Z</time>
      </trkpt>
      <trkpt lat="41.81647" lon="20.94278">
        <ele>535.494123</ele>
        <time>2022-04-24T10:46:45.709Z</time>
      </trkpt>
      <trkpt lat="41.81641" lon="20.94266">
        <ele>535.664249</ele>
        <time>2022-04-24T10:46:48.695Z</time>
      </trkpt>
      <trkpt lat="41.81635" lon="20.94253">
        <ele>535.837066</ele>
        <time>2022-04-24T10:46:51.690Z</time>
      </trkpt>
      <trkpt lat="41.8163" lon="20.94239">
        <ele>536.012219</ele>
        <time>2022-04-24T10:46:54.676Z</time>
      </trkpt>
      <trkpt lat="41.81625" lon="20.94226">
        <ele>536.150534</ele>
        <time>2022-04-24T10:46:57.681Z</time>
      </trkpt>
      <trkpt lat="41.8162" lon="20.94213">
        <ele>536.220736</ele>
        <time>2022-04-24T10:47:00.705Z</time>
      </trkpt>
      <trkpt lat="41.81615" lon="20.942">
        <ele>536.287671</ele>
        <time>2022-04-24T10:47:03.687Z</time>
      </trkpt>
      <trkpt lat="41.81611" lon="20.94187">
        <ele>536.354835</ele>
        <time>2022-04-24T10:47:06.697Z</time>
      </trkpt>
      <trkpt lat="41.81607" lon="20.94175">
        <ele>536.418657</ele>
        <time>2022-04-24T10:47:09.688Z</time>
      </trkpt>
      <trkpt lat="41.81603" lon="20.94161">
        <ele>536.486443</ele>
        <time>2022-04-24T10:47:12.686Z</time>
      </trkpt>
      <trkpt lat="41.81598" lon="20.94148">
        <ele>536.556889</ele>
        <time>2022-04-24T10:47:15.677Z</time>
      </trkpt>
      <trkpt lat="41.81594" lon="20.94134">
        <ele>536.62654</ele>
        <time>2022-04-24T10:47:18.695Z</time>
      </trkpt>
      <trkpt lat="41.81589" lon="20.94121">
        <ele>536.696621</ele>
        <time>2022-04-24T10:47:21.686Z</time>
      </trkpt>
      <trkpt lat="41.81585" lon="20.94107">
        <ele>536.766533</ele>
        <time>2022-04-24T10:47:24.682Z</time>
      </trkpt>
      <trkpt lat="41.8158" lon="20.94093">
        <ele>536.838421</ele>
        <time>2022-04-24T10:47:27.678Z</time>
      </trkpt>
      <trkpt lat="41.81576" lon="20.9408">
        <ele>536.908432</ele>
        <time>2022-04-24T10:47:30.696Z</time>
      </trkpt>
      <trkpt lat="41.81571" lon="20.94067">
        <ele>536.977183</ele>
        <time>2022-04-24T10:47:33.686Z</time>
      </trkpt>
      <trkpt lat="41.81566" lon="20.94053">
        <ele>537.046405</ele>
        <time>2022-04-24T10:47:36.701Z</time>
      </trkpt>
      <trkpt lat="41.81562" lon="20.94041">
        <ele>537.109793</ele>
        <time>2022-04-24T10:47:39.691Z</time>
      </trkpt>
      <trkpt lat="41.81558" lon="20.94027">
        <ele>537.180674</ele>
        <time>2022-04-24T10:47:42.681Z</time>
      </trkpt>
      <trkpt lat="41.81553" lon="20.94013">
        <ele>537.254801</ele>
        <time>2022-04-24T10:47:45.691Z</time>
      </trkpt>
      <trkpt lat="41.81549" lon="20.93999">
        <ele>537.430877</ele>
        <time>2022-04-24T10:47:48.700Z</time>
      </trkpt>
      <trkpt lat="41.81544" lon="20.93986">
        <ele>537.616591</ele>
        <time>2022-04-24T10:47:51.685Z</time>
      </trkpt>
      <trkpt lat="41.81539" lon="20.93973">
        <ele>537.80297</ele>
        <time>2022-04-24T10:47:54.691Z</time>
      </trkpt>
      <trkpt lat="41.81534" lon="20.93961">
        <ele>537.985776</ele>
        <time>2022-04-24T10:47:57.680Z</time>
      </trkpt>
      <trkpt lat="41.81529" lon="20.93948">
        <ele>538.174104</ele>
        <time>2022-04-24T10:48:00.697Z</time>
      </trkpt>
      <trkpt lat="41.81525" lon="20.93934">
        <ele>538.364927</ele>
        <time>2022-04-24T10:48:03.684Z</time>
      </trkpt>
      <trkpt lat="41.81521" lon="20.93921">
        <ele>538.556956</ele>
        <time>2022-04-24T10:48:06.688Z</time>
      </trkpt>
      <trkpt lat="41.81517" lon="20.93908">
        <ele>538.741096</ele>
        <time>2022-04-24T10:48:09.705Z</time>
      </trkpt>
      <trkpt lat="41.81513" lon="20.93894">
        <ele>538.927784</ele>
        <time>2022-04-24T10:48:12.699Z</time>
      </trkpt>
      <trkpt lat="41.81508" lon="20.93881">
        <ele>539.122341</ele>
        <time>2022-04-24T10:48:15.685Z</time>
      </trkpt>
      <trkpt lat="41.81503" lon="20.93868">
        <ele>539.305244</ele>
        <time>2022-04-24T10:48:18.682Z</time>
      </trkpt>
      <trkpt lat="41.81498" lon="20.93857">
        <ele>539.484447</ele>
        <time>2022-04-24T10:48:21.695Z</time>
      </trkpt>
      <trkpt lat="41.81492" lon="20.93844">
        <ele>539.678671</ele>
        <time>2022-04-24T10:48:24.684Z</time>
      </trkpt>
      <trkpt lat="41.81485" lon="20.93833">
        <ele>539.868685</ele>
        <time>2022-04-24T10:48:27.678Z</time>
      </trkpt>
      <trkpt lat="41.81478" lon="20.93822">
        <ele>540.052729</ele>
        <time>2022-04-24T10:48:30.698Z</time>
      </trkpt>
      <trkpt lat="41.8147" lon="20.93811">
        <ele>540.244988</ele>
        <time>2022-04-24T10:48:33.710Z</time>
      </trkpt>
      <trkpt lat="41.81463" lon="20.93801">
        <ele>540.421472</ele>
        <time>2022-04-24T10:48:36.695Z</time>
      </trkpt>
      <trkpt lat="41.81455" lon="20.93791">
        <ele>540.522043</ele>
        <time>2022-04-24T10:48:39.684Z</time>
      </trkpt>
      <trkpt lat="41.81447" lon="20.93783">
        <ele>540.61996</ele>
        <time>2022-04-24T10:48:42.680Z</time>
      </trkpt>
      <trkpt lat="41.81438" lon="20.93777">
        <ele>540.715865</ele>
        <time>2022-04-24T10:48:45.682Z</time>
      </trkpt>
      <trkpt lat="41.81427" lon="20.93772">
        <ele>540.829552</ele>
        <time>2022-04-24T10:48:48.677Z</time>
      </trkpt>
      <trkpt lat="41.81414" lon="20.93765">
        <ele>540.952633</ele>
        <time>2022-04-24T10:48:51.682Z</time>
      </trkpt>
      <trkpt lat="41.81402" lon="20.9376">
        <ele>541.074745</ele>
        <time>2022-04-24T10:48:54.685Z</time>
      </trkpt>
      <trkpt lat="41.81391" lon="20.93755">
        <ele>541.191203</ele>
        <time>2022-04-24T10:48:57.691Z</time>
      </trkpt>
      <trkpt lat="41.81379" lon="20.9375">
        <ele>541.307295</ele>
        <time>2022-04-24T10:49:00.676Z</time>
      </trkpt>
      <trkpt lat="41.81367" lon="20.93745">
        <ele>541.422677</ele>
        <time>2022-04-24T10:49:03.679Z</time>
      </trkpt>
      <trkpt lat="41.81357" lon="20.93739">
        <ele>541.533447</ele>
        <time>2022-04-24T10:49:06.705Z</time>
      </trkpt>
      <trkpt lat="41.81346" lon="20.93734">
        <ele>541.640437</ele>
        <time>2022-04-24T10:49:09.679Z</time>
      </trkpt>
      <trkpt lat="41.81335" lon="20.93729">
        <ele>541.754864</ele>
        <time>2022-04-24T10:49:12.686Z</time>
      </trkpt>
      <trkpt lat="41.81323" lon="20.93724">
        <ele>541.871356</ele>
        <time>2022-04-24T10:49:15.682Z</time>
      </trkpt>
      <trkpt lat="41.81312" lon="20.93719">
        <ele>541.985108</ele>
        <time>2022-04-24T10:49:18.683Z</time>
      </trkpt>
      <trkpt lat="41.813" lon="20.93713">
        <ele>542.103374</ele>
        <time>2022-04-24T10:49:21.692Z</time>
      </trkpt>
      <trkpt lat="41.81288" lon="20.93708">
        <ele>542.424377</ele>
        <time>2022-04-24T10:49:24.690Z</time>
      </trkpt>
      <trkpt lat="41.81277" lon="20.93703">
        <ele>542.763096</ele>
        <time>2022-04-24T10:49:27.680Z</time>
      </trkpt>
      <trkpt lat="41.81265" lon="20.93699">
        <ele>543.097454</ele>
        <time>2022-04-24T10:49:30.688Z</time>
      </trkpt>
      <trkpt lat="41.81255" lon="20.93694">
        <ele>543.420813</ele>
        <time>2022-04-24T10:49:33.689Z</time>
      </trkpt>
      <trkpt lat="41.81244" lon="20.93689">
        <ele>543.736149</ele>
        <time>2022-04-24T10:49:36.690Z</time>
      </trkpt>
      <trkpt lat="41.81233" lon="20.93684">
        <ele>544.062227</ele>
        <time>2022-04-24T10:49:39.685Z</time>
      </trkpt>
      <trkpt lat="41.81222" lon="20.93679">
        <ele>544.392261</ele>
        <time>2022-04-24T10:49:42.681Z</time>
      </trkpt>
      <trkpt lat="41.81211" lon="20.93674">
        <ele>544.711626</ele>
        <time>2022-04-24T10:49:45.686Z</time>
      </trkpt>
      <trkpt lat="41.81202" lon="20.93669">
        <ele>545.001137</ele>
        <time>2022-04-24T10:49:48.689Z</time>
      </trkpt>
      <trkpt lat="41.81192" lon="20.93665">
        <ele>545.276104</ele>
        <time>2022-04-24T10:49:51.691Z</time>
      </trkpt>
      <trkpt lat="41.81182" lon="20.93661">
        <ele>545.577466</ele>
        <time>2022-04-24T10:49:54.715Z</time>
      </trkpt>
      <trkpt lat="41.81172" lon="20.93656">
        <ele>545.871525</ele>
        <time>2022-04-24T10:49:57.694Z</time>
      </trkpt>
      <trkpt lat="41.81161" lon="20.93651">
        <ele>546.207287</ele>
        <time>2022-04-24T10:50:00.679Z</time>
      </trkpt>
      <trkpt lat="41.8115" lon="20.93645">
        <ele>546.541344</ele>
        <time>2022-04-24T10:50:03.717Z</time>
      </trkpt>
      <trkpt lat="41.81139" lon="20.9364">
        <ele>546.876727</ele>
        <time>2022-04-24T10:50:06.690Z</time>
      </trkpt>
      <trkpt lat="41.81127" lon="20.93635">
        <ele>547.184894</ele>
        <time>2022-04-24T10:50:09.690Z</time>
      </trkpt>
      <trkpt lat="41.81116" lon="20.9363">
        <ele>547.146743</ele>
        <time>2022-04-24T10:50:12.681Z</time>
      </trkpt>
      <trkpt lat="41.81105" lon="20.93626">
        <ele>547.108592</ele>
        <time>2022-04-24T10:50:15.678Z</time>
      </trkpt>
      <trkpt lat="41.81094" lon="20.93621">
        <ele>547.068095</ele>
        <time>2022-04-24T10:50:18.686Z</time>
      </trkpt>
      <trkpt lat="41.81082" lon="20.93616">
        <ele>547.029203</ele>
        <time>2022-04-24T10:50:21.678Z</time>
      </trkpt>
      <trkpt lat="41.81071" lon="20.93611">
        <ele>546.990433</ele>
        <time>2022-04-24T10:50:24.685Z</time>
      </trkpt>
      <trkpt lat="41.8106" lon="20.93607">
        <ele>546.95087</ele>
        <time>2022-04-24T10:50:27.689Z</time>
      </trkpt>
      <trkpt lat="41.81049" lon="20.93602">
        <ele>546.911381</ele>
        <time>2022-04-24T10:50:30.689Z</time>
      </trkpt>
      <trkpt lat="41.81037" lon="20.93597">
        <ele>546.872138</ele>
        <time>2022-04-24T10:50:33.677Z</time>
      </trkpt>
      <trkpt lat="41.81026" lon="20.93591">
        <ele>546.832813</ele>
        <time>2022-04-24T10:50:36.689Z</time>
      </trkpt>
      <trkpt lat="41.81015" lon="20.93587">
        <ele>546.794588</ele>
        <time>2022-04-24T10:50:39.687Z</time>
      </trkpt>
      <trkpt lat="41.81004" lon="20.93581">
        <ele>546.756821</ele>
        <time>2022-04-24T10:50:42.692Z</time>
      </trkpt>
      <trkpt lat="41.80993" lon="20.93576">
        <ele>546.717951</ele>
        <time>2022-04-24T10:50:45.682Z</time>
      </trkpt>
      <trkpt lat="41.80983" lon="20.93571">
        <ele>546.680041</ele>
        <time>2022-04-24T10:50:48.709Z</time>
      </trkpt>
      <trkpt lat="41.80971" lon="20.93567">
        <ele>546.641467</ele>
        <time>2022-04-24T10:50:51.682Z</time>
      </trkpt>
      <trkpt lat="41.8096" lon="20.93562">
        <ele>546.603324</ele>
        <time>2022-04-24T10:50:54.692Z</time>
      </trkpt>
      <trkpt lat="41.80949" lon="20.93557">
        <ele>546.984307</ele>
        <time>2022-04-24T10:50:57.689Z</time>
      </trkpt>
      <trkpt lat="41.80938" lon="20.93553">
        <ele>547.536079</ele>
        <time>2022-04-24T10:51:00.691Z</time>
      </trkpt>
      <trkpt lat="41.80927" lon="20.93549">
        <ele>548.056293</ele>
        <time>2022-04-24T10:51:03.683Z</time>
      </trkpt>
      <trkpt lat="41.80918" lon="20.93545">
        <ele>548.527258</ele>
        <time>2022-04-24T10:51:06.700Z</time>
      </trkpt>
      <trkpt lat="41.80907" lon="20.9354">
        <ele>549.048637</ele>
        <time>2022-04-24T10:51:09.702Z</time>
      </trkpt>
      <trkpt lat="41.80897" lon="20.93535">
        <ele>549.582063</ele>
        <time>2022-04-24T10:51:12.679Z</time>
      </trkpt>
      <trkpt lat="41.80887" lon="20.93532">
        <ele>550.048161</ele>
        <time>2022-04-24T10:51:15.685Z</time>
      </trkpt>
      <trkpt lat="41.80877" lon="20.93527">
        <ele>550.531461</ele>
        <time>2022-04-24T10:51:18.683Z</time>
      </trkpt>
      <trkpt lat="41.80869" lon="20.93521">
        <ele>550.986818</ele>
        <time>2022-04-24T10:51:21.692Z</time>
      </trkpt>
      <trkpt lat="41.80859" lon="20.93514">
        <ele>551.527421</ele>
        <time>2022-04-24T10:51:25.682Z</time>
      </trkpt>
      <trkpt lat="41.8085" lon="20.93507">
        <ele>552.00513</ele>
        <time>2022-04-24T10:51:28.687Z</time>
      </trkpt>
      <trkpt lat="41.80839" lon="20.93501">
        <ele>552.569824</ele>
        <time>2022-04-24T10:51:31.682Z</time>
      </trkpt>
      <trkpt lat="41.8083" lon="20.93495">
        <ele>553.008677</ele>
        <time>2022-04-24T10:51:33.697Z</time>
      </trkpt>
      <trkpt lat="41.80819" lon="20.93488">
        <ele>553.597846</ele>
        <time>2022-04-24T10:51:36.688Z</time>
      </trkpt>
      <trkpt lat="41.80808" lon="20.9348">
        <ele>554.166827</ele>
        <time>2022-04-24T10:51:39.682Z</time>
      </trkpt>
      <trkpt lat="41.80798" lon="20.93473">
        <ele>554.698319</ele>
        <time>2022-04-24T10:51:42.692Z</time>
      </trkpt>
      <trkpt lat="41.80788" lon="20.93466">
        <ele>555.135897</ele>
        <time>2022-04-24T10:51:45.691Z</time>
      </trkpt>
      <trkpt lat="41.80778" lon="20.93459">
        <ele>555.352001</ele>
        <time>2022-04-24T10:51:48.699Z</time>
      </trkpt>
      <trkpt lat="41.80768" lon="20.93453">
        <ele>555.561325</ele>
        <time>2022-04-24T10:51:51.683Z</time>
      </trkpt>
      <trkpt lat="41.80759" lon="20.93447">
        <ele>555.758604</ele>
        <time>2022-04-24T10:51:54.678Z</time>
      </trkpt>
      <trkpt lat="41.80749" lon="20.93438">
        <ele>555.994463</ele>
        <time>2022-04-24T10:51:57.684Z</time>
      </trkpt>
      <trkpt lat="41.80738" lon="20.93429">
        <ele>556.246067</ele>
        <time>2022-04-24T10:52:00.688Z</time>
      </trkpt>
      <trkpt lat="41.80728" lon="20.93422">
        <ele>556.476029</ele>
        <time>2022-04-24T10:52:03.696Z</time>
      </trkpt>
      <trkpt lat="41.80718" lon="20.93414">
        <ele>556.70599</ele>
        <time>2022-04-24T10:52:06.677Z</time>
      </trkpt>
      <trkpt lat="41.80708" lon="20.93405">
        <ele>556.926405</ele>
        <time>2022-04-24T10:52:09.683Z</time>
      </trkpt>
      <trkpt lat="41.80699" lon="20.93395">
        <ele>557.159851</ele>
        <time>2022-04-24T10:52:12.702Z</time>
      </trkpt>
      <trkpt lat="41.8069" lon="20.93384">
        <ele>557.398862</ele>
        <time>2022-04-24T10:52:15.682Z</time>
      </trkpt>
      <trkpt lat="41.80682" lon="20.93374">
        <ele>557.613032</ele>
        <time>2022-04-24T10:52:18.686Z</time>
      </trkpt>
      <trkpt lat="41.80673" lon="20.93365">
        <ele>557.826034</ele>
        <time>2022-04-24T10:52:21.684Z</time>
      </trkpt>
      <trkpt lat="41.80664" lon="20.93357">
        <ele>558.046446</ele>
        <time>2022-04-24T10:52:24.691Z</time>
      </trkpt>
      <trkpt lat="41.80656" lon="20.93348">
        <ele>558.256099</ele>
        <time>2022-04-24T10:52:27.701Z</time>
      </trkpt>
      <trkpt lat="41.80648" lon="20.93338">
        <ele>558.459033</ele>
        <time>2022-04-24T10:52:30.677Z</time>
      </trkpt>
      <trkpt lat="41.8064" lon="20.9333">
        <ele>558.565641</ele>
        <time>2022-04-24T10:52:33.693Z</time>
      </trkpt>
      <trkpt lat="41.80631" lon="20.93321">
        <ele>558.567774</ele>
        <time>2022-04-24T10:52:36.689Z</time>
      </trkpt>
      <trkpt lat="41.80622" lon="20.93313">
        <ele>558.569881</ele>
        <time>2022-04-24T10:52:39.681Z</time>
      </trkpt>
      <trkpt lat="41.80614" lon="20.93303">
        <ele>558.57212</ele>
        <time>2022-04-24T10:52:42.685Z</time>
      </trkpt>
      <trkpt lat="41.80605" lon="20.93293">
        <ele>558.574248</ele>
        <time>2022-04-24T10:52:45.678Z</time>
      </trkpt>
      <trkpt lat="41.80596" lon="20.93283">
        <ele>558.576534</ele>
        <time>2022-04-24T10:52:48.682Z</time>
      </trkpt>
      <trkpt lat="41.80586" lon="20.93275">
        <ele>558.578761</ele>
        <time>2022-04-24T10:52:51.704Z</time>
      </trkpt>
      <trkpt lat="41.80575" lon="20.93266">
        <ele>558.581268</ele>
        <time>2022-04-24T10:52:54.683Z</time>
      </trkpt>
      <trkpt lat="41.80566" lon="20.93258">
        <ele>558.583399</ele>
        <time>2022-04-24T10:52:57.692Z</time>
      </trkpt>
      <trkpt lat="41.80556" lon="20.93249">
        <ele>558.585739</ele>
        <time>2022-04-24T10:53:00.684Z</time>
      </trkpt>
      <trkpt lat="41.80546" lon="20.93241">
        <ele>558.587995</ele>
        <time>2022-04-24T10:53:03.698Z</time>
      </trkpt>
      <trkpt lat="41.80535" lon="20.93233">
        <ele>558.590262</ele>
        <time>2022-04-24T10:53:06.691Z</time>
      </trkpt>
      <trkpt lat="41.80526" lon="20.93225">
        <ele>558.592297</ele>
        <time>2022-04-24T10:53:09.694Z</time>
      </trkpt>
      <trkpt lat="41.80517" lon="20.93219">
        <ele>558.594324</ele>
        <time>2022-04-24T10:53:12.682Z</time>
      </trkpt>
      <trkpt lat="41.80507" lon="20.93213">
        <ele>558.596451</ele>
        <time>2022-04-24T10:53:15.694Z</time>
      </trkpt>
      <trkpt lat="41.80498" lon="20.93206">
        <ele>558.598535</ele>
        <time>2022-04-24T10:53:18.701Z</time>
      </trkpt>
      <trkpt lat="41.80489" lon="20.93198">
        <ele>558.608868</ele>
        <time>2022-04-24T10:53:21.703Z</time>
      </trkpt>
      <trkpt lat="41.80479" lon="20.93191">
        <ele>558.625647</ele>
        <time>2022-04-24T10:53:24.685Z</time>
      </trkpt>
      <trkpt lat="41.80471" lon="20.93184">
        <ele>558.641534</ele>
        <time>2022-04-24T10:53:27.683Z</time>
      </trkpt>
      <trkpt lat="41.80462" lon="20.93174">
        <ele>558.659887</ele>
        <time>2022-04-24T10:53:30.681Z</time>
      </trkpt>
      <trkpt lat="41.80452" lon="20.93163">
        <ele>558.680042</ele>
        <time>2022-04-24T10:53:33.683Z</time>
      </trkpt>
      <trkpt lat="41.80442" lon="20.93152">
        <ele>558.700585</ele>
        <time>2022-04-24T10:53:36.677Z</time>
      </trkpt>
      <trkpt lat="41.80434" lon="20.93141">
        <ele>558.718425</ele>
        <time>2022-04-24T10:53:39.680Z</time>
      </trkpt>
      <trkpt lat="41.80426" lon="20.93131">
        <ele>558.735254</ele>
        <time>2022-04-24T10:53:42.680Z</time>
      </trkpt>
      <trkpt lat="41.80419" lon="20.93122">
        <ele>558.751274</ele>
        <time>2022-04-24T10:53:45.682Z</time>
      </trkpt>
      <trkpt lat="41.80412" lon="20.93112">
        <ele>558.768186</ele>
        <time>2022-04-24T10:53:48.676Z</time>
      </trkpt>
      <trkpt lat="41.80405" lon="20.931">
        <ele>558.785577</ele>
        <time>2022-04-24T10:53:51.706Z</time>
      </trkpt>
      <trkpt lat="41.80399" lon="20.93091">
        <ele>558.800579</ele>
        <time>2022-04-24T10:53:54.701Z</time>
      </trkpt>
      <trkpt lat="41.80391" lon="20.9308">
        <ele>558.817632</ele>
        <time>2022-04-24T10:53:57.678Z</time>
      </trkpt>
      <trkpt lat="41.80385" lon="20.93067">
        <ele>558.835367</ele>
        <time>2022-04-24T10:54:00.679Z</time>
      </trkpt>
      <trkpt lat="41.80378" lon="20.93055">
        <ele>558.853697</ele>
        <time>2022-04-24T10:54:03.688Z</time>
      </trkpt>
      <trkpt lat="41.80372" lon="20.93043">
        <ele>558.870798</ele>
        <time>2022-04-24T10:54:06.686Z</time>
      </trkpt>
      <trkpt lat="41.80366" lon="20.93031">
        <ele>558.8971</ele>
        <time>2022-04-24T10:54:09.693Z</time>
      </trkpt>
      <trkpt lat="41.8036" lon="20.9302">
        <ele>558.951129</ele>
        <time>2022-04-24T10:54:12.685Z</time>
      </trkpt>
      <trkpt lat="41.80353" lon="20.93008">
        <ele>559.005472</ele>
        <time>2022-04-24T10:54:15.681Z</time>
      </trkpt>
      <trkpt lat="41.80347" lon="20.92997">
        <ele>559.058281</ele>
        <time>2022-04-24T10:54:18.697Z</time>
      </trkpt>
      <trkpt lat="41.80341" lon="20.92986">
        <ele>559.110781</ele>
        <time>2022-04-24T10:54:21.715Z</time>
      </trkpt>
      <trkpt lat="41.80335" lon="20.92974">
        <ele>559.165706</ele>
        <time>2022-04-24T10:54:24.677Z</time>
      </trkpt>
      <trkpt lat="41.80328" lon="20.92962">
        <ele>559.221869</ele>
        <time>2022-04-24T10:54:27.687Z</time>
      </trkpt>
      <trkpt lat="41.80321" lon="20.9295">
        <ele>559.27712</ele>
        <time>2022-04-24T10:54:30.678Z</time>
      </trkpt>
      <trkpt lat="41.80316" lon="20.92936">
        <ele>559.338818</ele>
        <time>2022-04-24T10:54:33.682Z</time>
      </trkpt>
      <trkpt lat="41.8031" lon="20.92923">
        <ele>559.395888</ele>
        <time>2022-04-24T10:54:36.693Z</time>
      </trkpt>
      <trkpt lat="41.80305" lon="20.92909">
        <ele>559.454293</ele>
        <time>2022-04-24T10:54:39.702Z</time>
      </trkpt>
      <trkpt lat="41.80301" lon="20.92895">
        <ele>559.510464</ele>
        <time>2022-04-24T10:54:42.679Z</time>
      </trkpt>
      <trkpt lat="41.80296" lon="20.92882">
        <ele>559.567191</ele>
        <time>2022-04-24T10:54:45.698Z</time>
      </trkpt>
      <trkpt lat="41.80291" lon="20.92867">
        <ele>559.627521</ele>
        <time>2022-04-24T10:54:48.678Z</time>
      </trkpt>
      <trkpt lat="41.80287" lon="20.92853">
        <ele>559.685215</ele>
        <time>2022-04-24T10:54:51.699Z</time>
      </trkpt>
      <trkpt lat="41.80282" lon="20.9284">
        <ele>559.740013</ele>
        <time>2022-04-24T10:54:54.687Z</time>
      </trkpt>
      <trkpt lat="41.80278" lon="20.92826">
        <ele>559.793022</ele>
        <time>2022-04-24T10:54:57.709Z</time>
      </trkpt>
      <trkpt lat="41.80273" lon="20.92812">
        <ele>559.580591</ele>
        <time>2022-04-24T10:55:00.691Z</time>
      </trkpt>
      <trkpt lat="41.8027" lon="20.92801">
        <ele>559.40257</ele>
        <time>2022-04-24T10:55:03.686Z</time>
      </trkpt>
      <trkpt lat="41.80267" lon="20.92788">
        <ele>559.214976</ele>
        <time>2022-04-24T10:55:06.679Z</time>
      </trkpt>
      <trkpt lat="41.80264" lon="20.92774">
        <ele>558.99762</ele>
        <time>2022-04-24T10:55:09.699Z</time>
      </trkpt>
      <trkpt lat="41.8026" lon="20.92759">
        <ele>558.767325</ele>
        <time>2022-04-24T10:55:12.685Z</time>
      </trkpt>
      <trkpt lat="41.80257" lon="20.92745">
        <ele>558.560475</ele>
        <time>2022-04-24T10:55:15.679Z</time>
      </trkpt>
      <trkpt lat="41.80253" lon="20.92732">
        <ele>558.364266</ele>
        <time>2022-04-24T10:55:18.690Z</time>
      </trkpt>
      <trkpt lat="41.8025" lon="20.92719">
        <ele>558.166715</ele>
        <time>2022-04-24T10:55:21.682Z</time>
      </trkpt>
      <trkpt lat="41.80247" lon="20.92706">
        <ele>557.967946</ele>
        <time>2022-04-24T10:55:24.678Z</time>
      </trkpt>
      <trkpt lat="41.80243" lon="20.92692">
        <ele>557.746134</ele>
        <time>2022-04-24T10:55:27.683Z</time>
      </trkpt>
      <trkpt lat="41.80239" lon="20.92678">
        <ele>557.536456</ele>
        <time>2022-04-24T10:55:30.683Z</time>
      </trkpt>
      <trkpt lat="41.80236" lon="20.92665">
        <ele>557.332847</ele>
        <time>2022-04-24T10:55:33.682Z</time>
      </trkpt>
      <trkpt lat="41.80232" lon="20.92651">
        <ele>557.115062</ele>
        <time>2022-04-24T10:55:36.718Z</time>
      </trkpt>
      <trkpt lat="41.80228" lon="20.92637">
        <ele>556.903341</ele>
        <time>2022-04-24T10:55:39.679Z</time>
      </trkpt>
      <trkpt lat="41.80224" lon="20.92623">
        <ele>556.690908</ele>
        <time>2022-04-24T10:55:42.682Z</time>
      </trkpt>
      <trkpt lat="41.80219" lon="20.92611">
        <ele>556.497536</ele>
        <time>2022-04-24T10:55:45.699Z</time>
      </trkpt>
      <trkpt lat="41.80216" lon="20.92597">
        <ele>556.39466</ele>
        <time>2022-04-24T10:55:48.686Z</time>
      </trkpt>
      <trkpt lat="41.80213" lon="20.92583">
        <ele>556.815255</ele>
        <time>2022-04-24T10:55:51.687Z</time>
      </trkpt>
      <trkpt lat="41.80209" lon="20.92568">
        <ele>557.239556</ele>
        <time>2022-04-24T10:55:54.677Z</time>
      </trkpt>
      <trkpt lat="41.80207" lon="20.92554">
        <ele>557.621977</ele>
        <time>2022-04-24T10:55:57.690Z</time>
      </trkpt>
      <trkpt lat="41.80206" lon="20.92542">
        <ele>557.976797</ele>
        <time>2022-04-24T10:56:00.696Z</time>
      </trkpt>
      <trkpt lat="41.80204" lon="20.92529">
        <ele>558.332089</ele>
        <time>2022-04-24T10:56:03.683Z</time>
      </trkpt>
      <trkpt lat="41.80201" lon="20.92516">
        <ele>558.719502</ele>
        <time>2022-04-24T10:56:06.677Z</time>
      </trkpt>
      <trkpt lat="41.80198" lon="20.92503">
        <ele>559.104294</ele>
        <time>2022-04-24T10:56:09.693Z</time>
      </trkpt>
      <trkpt lat="41.80195" lon="20.92489">
        <ele>559.497692</ele>
        <time>2022-04-24T10:56:14.687Z</time>
      </trkpt>
      <trkpt lat="41.80191" lon="20.92476">
        <ele>559.883569</ele>
        <time>2022-04-24T10:56:19.681Z</time>
      </trkpt>
      <trkpt lat="41.80189" lon="20.92462">
        <ele>560.260097</ele>
        <time>2022-04-24T10:56:23.690Z</time>
      </trkpt>
      <trkpt lat="41.80187" lon="20.92451">
        <ele>560.59719</ele>
        <time>2022-04-24T10:56:26.686Z</time>
      </trkpt>
      <trkpt lat="41.80184" lon="20.92436">
        <ele>561.013846</ele>
        <time>2022-04-24T10:56:30.679Z</time>
      </trkpt>
      <trkpt lat="41.80181" lon="20.92424">
        <ele>561.374156</ele>
        <time>2022-04-24T10:56:33.686Z</time>
      </trkpt>
      <trkpt lat="41.80178" lon="20.92411">
        <ele>561.733009</ele>
        <time>2022-04-24T10:56:36.683Z</time>
      </trkpt>
      <trkpt lat="41.80176" lon="20.92399">
        <ele>562.072778</ele>
        <time>2022-04-24T10:56:39.691Z</time>
      </trkpt>
      <trkpt lat="41.80174" lon="20.92385">
        <ele>562.484503</ele>
        <time>2022-04-24T10:56:43.691Z</time>
      </trkpt>
      <trkpt lat="41.80172" lon="20.9237">
        <ele>562.886625</ele>
        <time>2022-04-24T10:56:47.683Z</time>
      </trkpt>
      <trkpt lat="41.80169" lon="20.92358">
        <ele>563.038263</ele>
        <time>2022-04-24T10:56:50.690Z</time>
      </trkpt>
      <trkpt lat="41.80165" lon="20.92343">
        <ele>563.11885</ele>
        <time>2022-04-24T10:56:54.684Z</time>
      </trkpt>
      <trkpt lat="41.80162" lon="20.92331">
        <ele>563.183676</ele>
        <time>2022-04-24T10:56:57.682Z</time>
      </trkpt>
      <trkpt lat="41.8016" lon="20.92319">
        <ele>563.249346</ele>
        <time>2022-04-24T10:57:00.676Z</time>
      </trkpt>
      <trkpt lat="41.80159" lon="20.92305">
        <ele>563.320453</ele>
        <time>2022-04-24T10:57:03.694Z</time>
      </trkpt>
      <trkpt lat="41.8016" lon="20.92291">
        <ele>563.389076</ele>
        <time>2022-04-24T10:57:06.680Z</time>
      </trkpt>
      <trkpt lat="41.80162" lon="20.92276">
        <ele>563.470556</ele>
        <time>2022-04-24T10:57:09.686Z</time>
      </trkpt>
      <trkpt lat="41.80165" lon="20.92264">
        <ele>563.533513</ele>
        <time>2022-04-24T10:57:11.723Z</time>
      </trkpt>
      <trkpt lat="41.80169" lon="20.92251">
        <ele>563.602627</ele>
        <time>2022-04-24T10:57:13.683Z</time>
      </trkpt>
      <trkpt lat="41.80173" lon="20.92239">
        <ele>563.671451</ele>
        <time>2022-04-24T10:57:15.682Z</time>
      </trkpt>
      <trkpt lat="41.80178" lon="20.92228">
        <ele>563.736009</ele>
        <time>2022-04-24T10:57:17.686Z</time>
      </trkpt>
      <trkpt lat="41.80182" lon="20.92217">
        <ele>563.802345</ele>
        <time>2022-04-24T10:57:19.679Z</time>
      </trkpt>
      <trkpt lat="41.80187" lon="20.92205">
        <ele>563.868878</ele>
        <time>2022-04-24T10:57:21.688Z</time>
      </trkpt>
      <trkpt lat="41.80191" lon="20.92193">
        <ele>563.936206</ele>
        <time>2022-04-24T10:57:23.684Z</time>
      </trkpt>
      <trkpt lat="41.80195" lon="20.92181">
        <ele>564.001575</ele>
        <time>2022-04-24T10:57:25.678Z</time>
      </trkpt>
      <trkpt lat="41.80199" lon="20.9217">
        <ele>564.068414</ele>
        <time>2022-04-24T10:57:27.680Z</time>
      </trkpt>
      <trkpt lat="41.80206" lon="20.92155">
        <ele>564.159838</ele>
        <time>2022-04-24T10:57:30.678Z</time>
      </trkpt>
      <trkpt lat="41.80212" lon="20.92138">
        <ele>564.165614</ele>
        <time>2022-04-24T10:57:33.708Z</time>
      </trkpt>
      <trkpt lat="41.80218" lon="20.92122">
        <ele>563.967149</ele>
        <time>2022-04-24T10:57:36.680Z</time>
      </trkpt>
      <trkpt lat="41.80223" lon="20.92106">
        <ele>563.770447</ele>
        <time>2022-04-24T10:57:39.685Z</time>
      </trkpt>
      <trkpt lat="41.80227" lon="20.92094">
        <ele>563.634015</ele>
        <time>2022-04-24T10:57:41.685Z</time>
      </trkpt>
      <trkpt lat="41.80231" lon="20.92077">
        <ele>563.441718</ele>
        <time>2022-04-24T10:57:44.686Z</time>
      </trkpt>
      <trkpt lat="41.80233" lon="20.9206">
        <ele>563.247827</ele>
        <time>2022-04-24T10:57:47.681Z</time>
      </trkpt>
      <trkpt lat="41.80234" lon="20.92043">
        <ele>563.070106</ele>
        <time>2022-04-24T10:57:50.678Z</time>
      </trkpt>
      <trkpt lat="41.80234" lon="20.92029">
        <ele>562.907294</ele>
        <time>2022-04-24T10:57:53.689Z</time>
      </trkpt>
      <trkpt lat="41.80234" lon="20.92012">
        <ele>562.724749</ele>
        <time>2022-04-24T10:57:56.689Z</time>
      </trkpt>
      <trkpt lat="41.80234" lon="20.91995">
        <ele>562.53572</ele>
        <time>2022-04-24T10:57:59.676Z</time>
      </trkpt>
      <trkpt lat="41.80234" lon="20.91977">
        <ele>562.345621</ele>
        <time>2022-04-24T10:58:02.688Z</time>
      </trkpt>
      <trkpt lat="41.80233" lon="20.91961">
        <ele>562.168988</ele>
        <time>2022-04-24T10:58:05.686Z</time>
      </trkpt>
      <trkpt lat="41.80233" lon="20.91946">
        <ele>562.006176</ele>
        <time>2022-04-24T10:58:08.689Z</time>
      </trkpt>
      <trkpt lat="41.80232" lon="20.91932">
        <ele>561.851435</ele>
        <time>2022-04-24T10:58:11.677Z</time>
      </trkpt>
      <trkpt lat="41.80231" lon="20.91916">
        <ele>561.677224</ele>
        <time>2022-04-24T10:58:14.686Z</time>
      </trkpt>
      <trkpt lat="41.8023" lon="20.919">
        <ele>561.8669</ele>
        <time>2022-04-24T10:58:17.681Z</time>
      </trkpt>
      <trkpt lat="41.80229" lon="20.91885">
        <ele>562.365818</ele>
        <time>2022-04-24T10:58:20.712Z</time>
      </trkpt>
      <trkpt lat="41.80227" lon="20.9187">
        <ele>562.873784</ele>
        <time>2022-04-24T10:58:23.746Z</time>
      </trkpt>
      <trkpt lat="41.80226" lon="20.91856">
        <ele>563.373783</ele>
        <time>2022-04-24T10:58:26.693Z</time>
      </trkpt>
      <trkpt lat="41.80224" lon="20.91841">
        <ele>563.868306</ele>
        <time>2022-04-24T10:58:29.695Z</time>
      </trkpt>
      <trkpt lat="41.80224" lon="20.91828">
        <ele>564.340993</ele>
        <time>2022-04-24T10:58:32.695Z</time>
      </trkpt>
      <trkpt lat="41.80222" lon="20.91814">
        <ele>564.802691</ele>
        <time>2022-04-24T10:58:35.706Z</time>
      </trkpt>
      <trkpt lat="41.80221" lon="20.918">
        <ele>565.268592</ele>
        <time>2022-04-24T10:58:38.688Z</time>
      </trkpt>
      <trkpt lat="41.8022" lon="20.91788">
        <ele>565.684362</ele>
        <time>2022-04-24T10:58:41.704Z</time>
      </trkpt>
      <trkpt lat="41.80218" lon="20.91776">
        <ele>566.101775</ele>
        <time>2022-04-24T10:58:44.691Z</time>
      </trkpt>
      <trkpt lat="41.80217" lon="20.91761">
        <ele>566.641227</ele>
        <time>2022-04-24T10:58:48.691Z</time>
      </trkpt>
      <trkpt lat="41.80216" lon="20.91748">
        <ele>567.08563</ele>
        <time>2022-04-24T10:58:51.687Z</time>
      </trkpt>
      <trkpt lat="41.80214" lon="20.91734">
        <ele>567.535144</ele>
        <time>2022-04-24T10:58:54.681Z</time>
      </trkpt>
      <trkpt lat="41.80212" lon="20.91722">
        <ele>567.960441</ele>
        <time>2022-04-24T10:58:57.682Z</time>
      </trkpt>
      <trkpt lat="41.80211" lon="20.91708">
        <ele>568.459361</ele>
        <time>2022-04-24T10:59:00.675Z</time>
      </trkpt>
      <trkpt lat="41.8021" lon="20.91692">
        <ele>568.9976</ele>
        <time>2022-04-24T10:59:04.738Z</time>
      </trkpt>
      <trkpt lat="41.80209" lon="20.9168">
        <ele>569.419009</ele>
        <time>2022-04-24T10:59:07.684Z</time>
      </trkpt>
      <trkpt lat="41.80208" lon="20.91667">
        <ele>569.733773</ele>
        <time>2022-04-24T10:59:10.682Z</time>
      </trkpt>
      <trkpt lat="41.802" lon="20.91658">
        <ele>569.384533</ele>
        <time>2022-04-24T10:59:14.679Z</time>
      </trkpt>
      <trkpt lat="41.8019" lon="20.91659">
        <ele>569.051855</ele>
        <time>2022-04-24T10:59:17.705Z</time>
      </trkpt>
      <trkpt lat="41.8018" lon="20.91659">
        <ele>568.685533</ele>
        <time>2022-04-24T10:59:20.723Z</time>
      </trkpt>
      <trkpt lat="41.8017" lon="20.91659">
        <ele>568.349809</ele>
        <time>2022-04-24T10:59:23.724Z</time>
      </trkpt>
      <trkpt lat="41.80158" lon="20.91659">
        <ele>567.952972</ele>
        <time>2022-04-24T10:59:27.687Z</time>
      </trkpt>
      <trkpt lat="41.80147" lon="20.91659">
        <ele>567.586729</ele>
        <time>2022-04-24T10:59:30.682Z</time>
      </trkpt>
      <trkpt lat="41.80136" lon="20.9166">
        <ele>567.203229</ele>
        <time>2022-04-24T10:59:33.734Z</time>
      </trkpt>
      <trkpt lat="41.80124" lon="20.91664">
        <ele>566.795113</ele>
        <time>2022-04-24T10:59:36.735Z</time>
      </trkpt>
      <trkpt lat="41.80113" lon="20.91664">
        <ele>566.408514</ele>
        <time>2022-04-24T10:59:39.692Z</time>
      </trkpt>
      <trkpt lat="41.80101" lon="20.91664">
        <ele>566.001074</ele>
        <time>2022-04-24T10:59:42.686Z</time>
      </trkpt>
      <trkpt lat="41.80089" lon="20.91664">
        <ele>565.597243</ele>
        <time>2022-04-24T10:59:45.724Z</time>
      </trkpt>
      <trkpt lat="41.80078" lon="20.91665">
        <ele>565.227184</ele>
        <time>2022-04-24T10:59:48.689Z</time>
      </trkpt>
      <trkpt lat="41.80067" lon="20.91664">
        <ele>564.852927</ele>
        <time>2022-04-24T10:59:51.693Z</time>
      </trkpt>
      <trkpt lat="41.80056" lon="20.91664">
        <ele>564.459546</ele>
        <time>2022-04-24T10:59:54.686Z</time>
      </trkpt>
      <trkpt lat="41.80044" lon="20.91664">
        <ele>564.069163</ele>
        <time>2022-04-24T10:59:57.692Z</time>
      </trkpt>
      <trkpt lat="41.80033" lon="20.91665">
        <ele>563.689959</ele>
        <time>2022-04-24T11:00:00.693Z</time>
      </trkpt>
      <trkpt lat="41.80021" lon="20.91666">
        <ele>564.132044</ele>
        <time>2022-04-24T11:00:03.705Z</time>
      </trkpt>
      <trkpt lat="41.80012" lon="20.91666">
        <ele>564.521924</ele>
        <time>2022-04-24T11:00:06.696Z</time>
      </trkpt>
      <trkpt lat="41.80002" lon="20.91667">
        <ele>564.903859</ele>
        <time>2022-04-24T11:00:09.699Z</time>
      </trkpt>
      <trkpt lat="41.79991" lon="20.91666">
        <ele>565.357539</ele>
        <time>2022-04-24T11:00:13.743Z</time>
      </trkpt>
      <trkpt lat="41.79981" lon="20.91666">
        <ele>565.735222</ele>
        <time>2022-04-24T11:00:16.702Z</time>
      </trkpt>
      <trkpt lat="41.79971" lon="20.91666">
        <ele>566.133169</ele>
        <time>2022-04-24T11:00:19.705Z</time>
      </trkpt>
      <trkpt lat="41.79961" lon="20.91667">
        <ele>566.523173</ele>
        <time>2022-04-24T11:00:22.699Z</time>
      </trkpt>
      <trkpt lat="41.7995" lon="20.91666">
        <ele>566.968674</ele>
        <time>2022-04-24T11:00:26.713Z</time>
      </trkpt>
      <trkpt lat="41.79939" lon="20.91665">
        <ele>567.401704</ele>
        <time>2022-04-24T11:00:30.708Z</time>
      </trkpt>
      <trkpt lat="41.79929" lon="20.91666">
        <ele>567.813586</ele>
        <time>2022-04-24T11:00:34.730Z</time>
      </trkpt>
      <trkpt lat="41.79919" lon="20.91666">
        <ele>568.195336</ele>
        <time>2022-04-24T11:00:37.687Z</time>
      </trkpt>
      <trkpt lat="41.7991" lon="20.91666">
        <ele>568.588955</ele>
        <time>2022-04-24T11:00:40.684Z</time>
      </trkpt>
      <trkpt lat="41.79902" lon="20.91658">
        <ele>568.968056</ele>
        <time>2022-04-24T11:00:44.713Z</time>
      </trkpt>
      <trkpt lat="41.79898" lon="20.91647">
        <ele>569.325708</ele>
        <time>2022-04-24T11:00:47.701Z</time>
      </trkpt>
      <trkpt lat="41.79897" lon="20.91635">
        <ele>569.691384</ele>
        <time>2022-04-24T11:00:53.706Z</time>
      </trkpt>
      <trkpt lat="41.79895" lon="20.91623">
        <ele>570.059966</ele>
        <time>2022-04-24T11:00:59.701Z</time>
      </trkpt>
      <trkpt lat="41.79892" lon="20.9161">
        <ele>570.454988</ele>
        <time>2022-04-24T11:01:05.692Z</time>
      </trkpt>
      <trkpt lat="41.79882" lon="20.91606">
        <ele>570.852188</ele>
        <time>2022-04-24T11:01:11.715Z</time>
      </trkpt>
      <trkpt lat="41.79871" lon="20.91605">
        <ele>571.008901</ele>
        <time>2022-04-24T11:01:15.716Z</time>
      </trkpt>
      <trkpt lat="41.7986" lon="20.91606">
        <ele>571.174262</ele>
        <time>2022-04-24T11:01:20.726Z</time>
      </trkpt>
      <trkpt lat="41.79848" lon="20.91607">
        <ele>571.339402</ele>
        <time>2022-04-24T11:01:23.727Z</time>
      </trkpt>
      <trkpt lat="41.79838" lon="20.91607">
        <ele>571.492687</ele>
        <time>2022-04-24T11:01:26.708Z</time>
      </trkpt>
      <trkpt lat="41.79828" lon="20.91609">
        <ele>571.641459</ele>
        <time>2022-04-24T11:01:29.700Z</time>
      </trkpt>
      <trkpt lat="41.79818" lon="20.91608">
        <ele>571.784768</ele>
        <time>2022-04-24T11:01:32.704Z</time>
      </trkpt>
      <trkpt lat="41.79808" lon="20.91609">
        <ele>571.924299</ele>
        <time>2022-04-24T11:01:35.706Z</time>
      </trkpt>
      <trkpt lat="41.79798" lon="20.91609">
        <ele>572.064569</ele>
        <time>2022-04-24T11:01:38.723Z</time>
      </trkpt>
      <trkpt lat="41.79789" lon="20.9161">
        <ele>572.20237</ele>
        <time>2022-04-24T11:01:41.747Z</time>
      </trkpt>
      <trkpt lat="41.79779" lon="20.9161">
        <ele>572.338371</ele>
        <time>2022-04-24T11:01:44.731Z</time>
      </trkpt>
      <trkpt lat="41.79768" lon="20.91609">
        <ele>572.503398</ele>
        <time>2022-04-24T11:01:48.720Z</time>
      </trkpt>
      <trkpt lat="41.79759" lon="20.91604">
        <ele>572.639434</ele>
        <time>2022-04-24T11:01:53.703Z</time>
      </trkpt>
      <trkpt lat="41.79757" lon="20.91591">
        <ele>572.792885</ele>
        <time>2022-04-24T11:01:57.703Z</time>
      </trkpt>
      <trkpt lat="41.79754" lon="20.91576">
        <ele>572.958542</ele>
        <time>2022-04-24T11:02:01.706Z</time>
      </trkpt>
      <trkpt lat="41.79753" lon="20.91563">
        <ele>573.099946</ele>
        <time>2022-04-24T11:02:04.699Z</time>
      </trkpt>
      <trkpt lat="41.7975" lon="20.9155">
        <ele>573.242722</ele>
        <time>2022-04-24T11:02:07.718Z</time>
      </trkpt>
      <trkpt lat="41.79744" lon="20.9154">
        <ele>573.378463</ele>
        <time>2022-04-24T11:02:11.736Z</time>
      </trkpt>
      <trkpt lat="41.79732" lon="20.91538">
        <ele>573.699253</ele>
        <time>2022-04-24T11:02:15.692Z</time>
      </trkpt>
      <trkpt lat="41.79723" lon="20.91537">
        <ele>574.00317</ele>
        <time>2022-04-24T11:02:18.699Z</time>
      </trkpt>
      <trkpt lat="41.79713" lon="20.91534">
        <ele>574.350221</ele>
        <time>2022-04-24T11:02:22.691Z</time>
      </trkpt>
      <trkpt lat="41.79704" lon="20.91532">
        <ele>574.649024</ele>
        <time>2022-04-24T11:02:26.684Z</time>
      </trkpt>
      <trkpt lat="41.79693" lon="20.91532">
        <ele>574.98275</ele>
        <time>2022-04-24T11:02:30.698Z</time>
      </trkpt>
      <trkpt lat="41.79683" lon="20.91533">
        <ele>575.316228</ele>
        <time>2022-04-24T11:02:35.705Z</time>
      </trkpt>
      <trkpt lat="41.79672" lon="20.91538">
        <ele>575.701066</ele>
        <time>2022-04-24T11:02:39.682Z</time>
      </trkpt>
      <trkpt lat="41.79662" lon="20.91538">
        <ele>576.021242</ele>
        <time>2022-04-24T11:02:43.709Z</time>
      </trkpt>
      <trkpt lat="41.79654" lon="20.91528">
        <ele>576.398668</ele>
        <time>2022-04-24T11:02:46.693Z</time>
      </trkpt>
      <trkpt lat="41.79648" lon="20.91516">
        <ele>576.735477</ele>
        <time>2022-04-24T11:02:49.702Z</time>
      </trkpt>
      <trkpt lat="41.7965" lon="20.91501">
        <ele>577.093921</ele>
        <time>2022-04-24T11:02:54.696Z</time>
      </trkpt>
      <trkpt lat="41.79653" lon="20.91488">
        <ele>577.433241</ele>
        <time>2022-04-24T11:02:58.712Z</time>
      </trkpt>
      <trkpt lat="41.7965" lon="20.91475">
        <ele>577.759358</ele>
        <time>2022-04-24T11:03:01.698Z</time>
      </trkpt>
      <trkpt lat="41.79647" lon="20.91462">
        <ele>578.094033</ele>
        <time>2022-04-24T11:03:04.698Z</time>
      </trkpt>
      <trkpt lat="41.79647" lon="20.9145">
        <ele>578.39118</ele>
        <time>2022-04-24T11:03:07.728Z</time>
      </trkpt>
      <trkpt lat="41.79648" lon="20.91436">
        <ele>578.73472</ele>
        <time>2022-04-24T11:03:11.692Z</time>
      </trkpt>
      <trkpt lat="41.79645" lon="20.91424">
        <ele>579.040499</ele>
        <time>2022-04-24T11:03:14.689Z</time>
      </trkpt>
      <trkpt lat="41.79641" lon="20.91408">
        <ele>579.258211</ele>
        <time>2022-04-24T11:03:17.694Z</time>
      </trkpt>
      <trkpt lat="41.79639" lon="20.91391">
        <ele>579.09979</ele>
        <time>2022-04-24T11:03:20.700Z</time>
      </trkpt>
      <trkpt lat="41.79637" lon="20.91378">
        <ele>578.981936</ele>
        <time>2022-04-24T11:03:23.698Z</time>
      </trkpt>
      <trkpt lat="41.79626" lon="20.91375">
        <ele>578.839535</ele>
        <time>2022-04-24T11:03:27.713Z</time>
      </trkpt>
      <trkpt lat="41.79617" lon="20.91376">
        <ele>578.728629</ele>
        <time>2022-04-24T11:03:31.687Z</time>
      </trkpt>
      <trkpt lat="41.79604" lon="20.91392">
        <ele>578.517717</ele>
        <time>2022-04-24T11:07:20.695Z</time>
      </trkpt>
      <trkpt lat="41.79613" lon="20.91389">
        <ele>578.404671</ele>
        <time>2022-04-24T11:07:36.709Z</time>
      </trkpt>
      <trkpt lat="41.79604" lon="20.91382">
        <ele>578.287942</ele>
        <time>2022-04-24T11:07:51.698Z</time>
      </trkpt>
      <trkpt lat="41.79593" lon="20.91387">
        <ele>578.147021</ele>
        <time>2022-04-24T11:07:56.699Z</time>
      </trkpt>
      <trkpt lat="41.79584" lon="20.91391">
        <ele>578.032777</ele>
        <time>2022-04-24T11:08:00.735Z</time>
      </trkpt>
      <trkpt lat="41.79574" lon="20.91391">
        <ele>577.911682</ele>
        <time>2022-04-24T11:08:05.732Z</time>
      </trkpt>
      <trkpt lat="41.79565" lon="20.91394">
        <ele>577.796838</ele>
        <time>2022-04-24T11:08:11.695Z</time>
      </trkpt>
      <trkpt lat="41.79576" lon="20.91392">
        <ele>577.663374</ele>
        <time>2022-04-24T11:08:19.700Z</time>
      </trkpt>
      <trkpt lat="41.79587" lon="20.91389">
        <ele>577.532734</ele>
        <time>2022-04-24T11:08:23.693Z</time>
      </trkpt>
      <trkpt lat="41.79596" lon="20.91387">
        <ele>577.413304</ele>
        <time>2022-04-24T11:08:26.692Z</time>
      </trkpt>
      <trkpt lat="41.79607" lon="20.91384">
        <ele>577.276548</ele>
        <time>2022-04-24T11:08:30.696Z</time>
      </trkpt>
      <trkpt lat="41.79617" lon="20.91383">
        <ele>577.161167</ele>
        <time>2022-04-24T11:08:33.701Z</time>
      </trkpt>
      <trkpt lat="41.79626" lon="20.91382">
        <ele>577.267271</ele>
        <time>2022-04-24T11:08:36.696Z</time>
      </trkpt>
      <trkpt lat="41.79635" lon="20.91383">
        <ele>577.444279</ele>
        <time>2022-04-24T11:08:39.692Z</time>
      </trkpt>
      <trkpt lat="41.79643" lon="20.91373">
        <ele>577.658678</ele>
        <time>2022-04-24T11:08:43.696Z</time>
      </trkpt>
      <trkpt lat="41.79641" lon="20.91358">
        <ele>577.880824</ele>
        <time>2022-04-24T11:08:47.683Z</time>
      </trkpt>
      <trkpt lat="41.7964" lon="20.91345">
        <ele>578.065397</ele>
        <time>2022-04-24T11:08:50.693Z</time>
      </trkpt>
      <trkpt lat="41.7964" lon="20.91332">
        <ele>578.256334</ele>
        <time>2022-04-24T11:08:53.696Z</time>
      </trkpt>
      <trkpt lat="41.7964" lon="20.91318">
        <ele>578.458907</ele>
        <time>2022-04-24T11:08:56.695Z</time>
      </trkpt>
      <trkpt lat="41.7964" lon="20.91306">
        <ele>578.6425</ele>
        <time>2022-04-24T11:08:59.686Z</time>
      </trkpt>
      <trkpt lat="41.7964" lon="20.91291">
        <ele>578.859303</ele>
        <time>2022-04-24T11:09:03.719Z</time>
      </trkpt>
      <trkpt lat="41.79636" lon="20.91278">
        <ele>579.066457</ele>
        <time>2022-04-24T11:09:07.705Z</time>
      </trkpt>
      <trkpt lat="41.7963" lon="20.91265">
        <ele>579.288286</ele>
        <time>2022-04-24T11:09:11.690Z</time>
      </trkpt>
      <trkpt lat="41.79626" lon="20.91252">
        <ele>579.479383</ele>
        <time>2022-04-24T11:09:14.703Z</time>
      </trkpt>
      <trkpt lat="41.79619" lon="20.91242">
        <ele>579.681118</ele>
        <time>2022-04-24T11:09:18.695Z</time>
      </trkpt>
      <trkpt lat="41.79613" lon="20.91232">
        <ele>579.858873</ele>
        <time>2022-04-24T11:09:22.705Z</time>
      </trkpt>
      <trkpt lat="41.79605" lon="20.91226">
        <ele>580.045197</ele>
        <time>2022-04-24T11:09:25.711Z</time>
      </trkpt>
      <trkpt lat="41.79596" lon="20.91219">
        <ele>580.241876</ele>
        <time>2022-04-24T11:09:28.713Z</time>
      </trkpt>
      <trkpt lat="41.79586" lon="20.91211">
        <ele>580.464462</ele>
        <time>2022-04-24T11:09:31.699Z</time>
      </trkpt>
      <trkpt lat="41.79578" lon="20.91205">
        <ele>580.674768</ele>
        <time>2022-04-24T11:09:34.691Z</time>
      </trkpt>
      <trkpt lat="41.79569" lon="20.912">
        <ele>580.97081</ele>
        <time>2022-04-24T11:09:37.718Z</time>
      </trkpt>
      <trkpt lat="41.79561" lon="20.91193">
        <ele>581.27159</ele>
        <time>2022-04-24T11:09:41.697Z</time>
      </trkpt>
      <trkpt lat="41.79553" lon="20.91185">
        <ele>581.561355</ele>
        <time>2022-04-24T11:09:44.691Z</time>
      </trkpt>
      <trkpt lat="41.79546" lon="20.91175">
        <ele>581.877705</ele>
        <time>2022-04-24T11:09:48.699Z</time>
      </trkpt>
      <trkpt lat="41.79537" lon="20.91166">
        <ele>582.232877</ele>
        <time>2022-04-24T11:09:52.711Z</time>
      </trkpt>
      <trkpt lat="41.79529" lon="20.91158">
        <ele>582.52507</ele>
        <time>2022-04-24T11:09:55.700Z</time>
      </trkpt>
      <trkpt lat="41.79521" lon="20.9115">
        <ele>582.845431</ele>
        <time>2022-04-24T11:09:58.714Z</time>
      </trkpt>
      <trkpt lat="41.79514" lon="20.91142">
        <ele>583.124614</ele>
        <time>2022-04-24T11:10:01.697Z</time>
      </trkpt>
      <trkpt lat="41.79507" lon="20.91134">
        <ele>583.402101</ele>
        <time>2022-04-24T11:10:04.718Z</time>
      </trkpt>
      <trkpt lat="41.795" lon="20.91124">
        <ele>583.715166</ele>
        <time>2022-04-24T11:10:07.721Z</time>
      </trkpt>
      <trkpt lat="41.79493" lon="20.91115">
        <ele>584.016435</ele>
        <time>2022-04-24T11:10:10.695Z</time>
      </trkpt>
      <trkpt lat="41.79486" lon="20.91106">
        <ele>584.293833</ele>
        <time>2022-04-24T11:10:13.718Z</time>
      </trkpt>
      <trkpt lat="41.79478" lon="20.91096">
        <ele>584.641622</ele>
        <time>2022-04-24T11:10:17.704Z</time>
      </trkpt>
      <trkpt lat="41.79467" lon="20.91093">
        <ele>584.986548</ele>
        <time>2022-04-24T11:10:21.700Z</time>
      </trkpt>
      <trkpt lat="41.79443" lon="20.91091">
        <ele>585.708938</ele>
        <time>2022-04-24T11:12:19.693Z</time>
      </trkpt>
      <trkpt lat="41.79434" lon="20.9109">
        <ele>586.004948</ele>
        <time>2022-04-24T11:12:23.713Z</time>
      </trkpt>
      <trkpt lat="41.79423" lon="20.91089">
        <ele>586.040392</ele>
        <time>2022-04-24T11:12:27.690Z</time>
      </trkpt>
      <trkpt lat="41.79412" lon="20.91088">
        <ele>585.873521</ele>
        <time>2022-04-24T11:12:31.693Z</time>
      </trkpt>
      <trkpt lat="41.79402" lon="20.91085">
        <ele>585.723716</ele>
        <time>2022-04-24T11:12:35.704Z</time>
      </trkpt>
      <trkpt lat="41.79392" lon="20.91081">
        <ele>585.565914</ele>
        <time>2022-04-24T11:12:38.698Z</time>
      </trkpt>
      <trkpt lat="41.7938" lon="20.91075">
        <ele>585.371012</ele>
        <time>2022-04-24T11:12:41.696Z</time>
      </trkpt>
      <trkpt lat="41.79367" lon="20.91069">
        <ele>585.177044</ele>
        <time>2022-04-24T11:12:44.688Z</time>
      </trkpt>
      <trkpt lat="41.79354" lon="20.91066">
        <ele>584.979504</ele>
        <time>2022-04-24T11:12:47.699Z</time>
      </trkpt>
      <trkpt lat="41.79342" lon="20.91063">
        <ele>584.800607</ele>
        <time>2022-04-24T11:12:50.747Z</time>
      </trkpt>
      <trkpt lat="41.79332" lon="20.91062">
        <ele>584.640655</ele>
        <time>2022-04-24T11:12:53.692Z</time>
      </trkpt>
      <trkpt lat="41.79323" lon="20.9106">
        <ele>584.505272</ele>
        <time>2022-04-24T11:12:56.700Z</time>
      </trkpt>
      <trkpt lat="41.79315" lon="20.91053">
        <ele>584.362542</ele>
        <time>2022-04-24T11:13:02.690Z</time>
      </trkpt>
      <trkpt lat="41.79316" lon="20.91038">
        <ele>584.196864</ele>
        <time>2022-04-24T11:13:07.679Z</time>
      </trkpt>
      <trkpt lat="41.79316" lon="20.91024">
        <ele>584.04705</ele>
        <time>2022-04-24T11:13:11.679Z</time>
      </trkpt>
      <trkpt lat="41.79317" lon="20.91012">
        <ele>583.903186</ele>
        <time>2022-04-24T11:13:15.715Z</time>
      </trkpt>
      <trkpt lat="41.79321" lon="20.91001">
        <ele>583.765693</ele>
        <time>2022-04-24T11:13:21.682Z</time>
      </trkpt>
      <trkpt lat="41.79329" lon="20.91019">
        <ele>583.528009</ele>
        <time>2022-04-24T11:19:31.700Z</time>
      </trkpt>
      <trkpt lat="41.79332" lon="20.91031">
        <ele>583.400187</ele>
        <time>2022-04-24T11:19:43.712Z</time>
      </trkpt>
      <trkpt lat="41.79332" lon="20.91044">
        <ele>583.271179</ele>
        <time>2022-04-24T11:19:52.703Z</time>
      </trkpt>
      <trkpt lat="41.79334" lon="20.91056">
        <ele>583.145245</ele>
        <time>2022-04-24T11:20:10.706Z</time>
      </trkpt>
      <trkpt lat="41.79342" lon="20.91063">
        <ele>583.02155</ele>
        <time>2022-04-24T11:20:28.724Z</time>
      </trkpt>
      <trkpt lat="41.79355" lon="20.91072">
        <ele>582.820214</ele>
        <time>2022-04-24T11:20:49.758Z</time>
      </trkpt>
      <trkpt lat="41.79364" lon="20.91078">
        <ele>582.68774</ele>
        <time>2022-04-24T11:20:58.736Z</time>
      </trkpt>
      <trkpt lat="41.79384" lon="20.91089">
        <ele>582.405867</ele>
        <time>2022-04-24T11:24:01.692Z</time>
      </trkpt>
      <trkpt lat="41.79374" lon="20.9109">
        <ele>582.272399</ele>
        <time>2022-04-24T12:10:52.705Z</time>
      </trkpt>
      <trkpt lat="41.79354" lon="20.91084">
        <ele>581.997106</ele>
        <time>2022-04-24T12:11:34.778Z</time>
      </trkpt>
      <trkpt lat="41.79344" lon="20.91084">
        <ele>581.872914</ele>
        <time>2022-04-24T12:11:46.694Z</time>
      </trkpt>
      <trkpt lat="41.79335" lon="20.91084">
        <ele>581.750134</ele>
        <time>2022-04-24T12:12:04.711Z</time>
      </trkpt>
      <trkpt lat="41.79326" lon="20.91079">
        <ele>581.620863</ele>
        <time>2022-04-24T12:12:14.692Z</time>
      </trkpt>
      <trkpt lat="41.79319" lon="20.91066">
        <ele>581.471019</ele>
        <time>2022-04-24T12:12:21.692Z</time>
      </trkpt>
      <trkpt lat="41.79316" lon="20.91053">
        <ele>581.337178</ele>
        <time>2022-04-24T12:12:28.706Z</time>
      </trkpt>
      <trkpt lat="41.79314" lon="20.91041">
        <ele>581.216272</ele>
        <time>2022-04-24T12:12:36.704Z</time>
      </trkpt>
      <trkpt lat="41.79312" lon="20.91029">
        <ele>581.087093</ele>
        <time>2022-04-24T12:12:44.749Z</time>
      </trkpt>
      <trkpt lat="41.79315" lon="20.91016">
        <ele>580.958157</ele>
        <time>2022-04-24T12:12:54.701Z</time>
      </trkpt>
      <trkpt lat="41.79314" lon="20.91004">
        <ele>580.837064</ele>
        <time>2022-04-24T12:13:04.685Z</time>
      </trkpt>
      <trkpt lat="41.79306" lon="20.90997">
        <ele>580.717693</ele>
        <time>2022-04-24T12:13:13.705Z</time>
      </trkpt>
      <trkpt lat="41.79302" lon="20.90986">
        <ele>580.596445</ele>
        <time>2022-04-24T12:13:28.697Z</time>
      </trkpt>
      <trkpt lat="41.79294" lon="20.9098">
        <ele>580.466439</ele>
        <time>2022-04-24T12:13:39.700Z</time>
      </trkpt>
      <trkpt lat="41.79285" lon="20.90975">
        <ele>580.342425</ele>
        <time>2022-04-24T12:13:47.689Z</time>
      </trkpt>
      <trkpt lat="41.79277" lon="20.90969">
        <ele>580.222397</ele>
        <time>2022-04-24T12:13:56.692Z</time>
      </trkpt>
      <trkpt lat="41.79268" lon="20.90966">
        <ele>580.102038</ele>
        <time>2022-04-24T12:14:04.704Z</time>
      </trkpt>
      <trkpt lat="41.79262" lon="20.90956">
        <ele>579.979876</ele>
        <time>2022-04-24T12:14:13.707Z</time>
      </trkpt>
      <trkpt lat="41.79259" lon="20.90944">
        <ele>579.850196</ele>
        <time>2022-04-24T12:14:25.691Z</time>
      </trkpt>
      <trkpt lat="41.79254" lon="20.90934">
        <ele>579.731188</ele>
        <time>2022-04-24T12:14:34.698Z</time>
      </trkpt>
      <trkpt lat="41.79246" lon="20.90928">
        <ele>579.610417</ele>
        <time>2022-04-24T12:14:44.699Z</time>
      </trkpt>
      <trkpt lat="41.79239" lon="20.9092">
        <ele>579.488986</ele>
        <time>2022-04-24T12:14:54.720Z</time>
      </trkpt>
      <trkpt lat="41.79232" lon="20.90911">
        <ele>579.365007</ele>
        <time>2022-04-24T12:15:06.697Z</time>
      </trkpt>
      <trkpt lat="41.79223" lon="20.90905">
        <ele>579.237522</ele>
        <time>2022-04-24T12:15:18.716Z</time>
      </trkpt>
      <trkpt lat="41.79215" lon="20.90897">
        <ele>579.112992</ele>
        <time>2022-04-24T12:15:30.689Z</time>
      </trkpt>
      <trkpt lat="41.79206" lon="20.90894">
        <ele>578.986932</ele>
        <time>2022-04-24T12:15:40.683Z</time>
      </trkpt>
      <trkpt lat="41.79197" lon="20.90892">
        <ele>578.866013</ele>
        <time>2022-04-24T12:15:49.689Z</time>
      </trkpt>
      <trkpt lat="41.79188" lon="20.90888">
        <ele>578.744558</ele>
        <time>2022-04-24T12:15:57.703Z</time>
      </trkpt>
      <trkpt lat="41.79179" lon="20.90884">
        <ele>578.523391</ele>
        <time>2022-04-24T12:16:06.689Z</time>
      </trkpt>
      <trkpt lat="41.7917" lon="20.9088">
        <ele>578.316082</ele>
        <time>2022-04-24T12:16:19.731Z</time>
      </trkpt>
      <trkpt lat="41.79161" lon="20.90876">
        <ele>578.10817</ele>
        <time>2022-04-24T12:16:31.701Z</time>
      </trkpt>
      <trkpt lat="41.79153" lon="20.9087">
        <ele>577.886715</ele>
        <time>2022-04-24T12:16:41.698Z</time>
      </trkpt>
      <trkpt lat="41.79144" lon="20.90865">
        <ele>577.665235</ele>
        <time>2022-04-24T12:16:47.722Z</time>
      </trkpt>
      <trkpt lat="41.79135" lon="20.90864">
        <ele>577.456428</ele>
        <time>2022-04-24T12:16:52.688Z</time>
      </trkpt>
      <trkpt lat="41.79125" lon="20.90864">
        <ele>577.227968</ele>
        <time>2022-04-24T12:17:00.704Z</time>
      </trkpt>
      <trkpt lat="41.79116" lon="20.90871">
        <ele>577.002138</ele>
        <time>2022-04-24T12:17:10.703Z</time>
      </trkpt>
      <trkpt lat="41.79092" lon="20.90864">
        <ele>576.421517</ele>
        <time>2022-04-24T12:24:11.715Z</time>
      </trkpt>
      <trkpt lat="41.79065" lon="20.90855">
        <ele>575.796888</ele>
        <time>2022-04-24T12:24:52.705Z</time>
      </trkpt>
      <trkpt lat="41.79057" lon="20.90851">
        <ele>575.588463</ele>
        <time>2022-04-24T12:25:07.690Z</time>
      </trkpt>
      <trkpt lat="41.79047" lon="20.90846">
        <ele>575.367566</ele>
        <time>2022-04-24T12:25:19.686Z</time>
      </trkpt>
      <trkpt lat="41.79038" lon="20.90844">
        <ele>575.147679</ele>
        <time>2022-04-24T12:25:30.694Z</time>
      </trkpt>
      <trkpt lat="41.79028" lon="20.90841">
        <ele>574.922584</ele>
        <time>2022-04-24T12:25:37.694Z</time>
      </trkpt>
      <trkpt lat="41.79022" lon="20.9083">
        <ele>574.689348</ele>
        <time>2022-04-24T12:25:44.708Z</time>
      </trkpt>
      <trkpt lat="41.79021" lon="20.90818">
        <ele>574.665377</ele>
        <time>2022-04-24T12:25:52.697Z</time>
      </trkpt>
      <trkpt lat="41.79026" lon="20.90807">
        <ele>574.722927</ele>
        <time>2022-04-24T12:26:01.693Z</time>
      </trkpt>
      <trkpt lat="41.79032" lon="20.90796">
        <ele>574.781843</ele>
        <time>2022-04-24T12:26:09.694Z</time>
      </trkpt>
      <trkpt lat="41.79036" lon="20.90785">
        <ele>574.838402</ele>
        <time>2022-04-24T12:26:17.700Z</time>
      </trkpt>
      <trkpt lat="41.7904" lon="20.90774">
        <ele>574.893821</ele>
        <time>2022-04-24T12:26:26.721Z</time>
      </trkpt>
      <trkpt lat="41.79043" lon="20.90762">
        <ele>574.949009</ele>
        <time>2022-04-24T12:26:36.732Z</time>
      </trkpt>
      <trkpt lat="41.79034" lon="20.90757">
        <ele>575.009164</ele>
        <time>2022-04-24T12:26:46.729Z</time>
      </trkpt>
      <trkpt lat="41.79025" lon="20.90756">
        <ele>575.065998</ele>
        <time>2022-04-24T12:26:55.701Z</time>
      </trkpt>
      <trkpt lat="41.79015" lon="20.90754">
        <ele>575.12164</ele>
        <time>2022-04-24T12:27:06.694Z</time>
      </trkpt>
      <trkpt lat="41.79006" lon="20.90753">
        <ele>575.179182</ele>
        <time>2022-04-24T12:27:17.681Z</time>
      </trkpt>
      <trkpt lat="41.78997" lon="20.90752">
        <ele>575.235732</ele>
        <time>2022-04-24T12:27:26.685Z</time>
      </trkpt>
      <trkpt lat="41.78999" lon="20.90725">
        <ele>575.35509</ele>
        <time>2022-04-24T12:28:32.717Z</time>
      </trkpt>
      <trkpt lat="41.78999" lon="20.90713">
        <ele>575.411573</ele>
        <time>2022-04-24T12:28:39.703Z</time>
      </trkpt>
      <trkpt lat="41.78993" lon="20.90703">
        <ele>575.469362</ele>
        <time>2022-04-24T12:28:48.698Z</time>
      </trkpt>
      <trkpt lat="41.78991" lon="20.9069">
        <ele>575.526855</ele>
        <time>2022-04-24T12:28:55.753Z</time>
      </trkpt>
      <trkpt lat="41.78994" lon="20.90679">
        <ele>575.581383</ele>
        <time>2022-04-24T12:29:06.687Z</time>
      </trkpt>
      <trkpt lat="41.78999" lon="20.90668">
        <ele>575.638051</ele>
        <time>2022-04-24T12:29:16.685Z</time>
      </trkpt>
      <trkpt lat="41.79001" lon="20.90656">
        <ele>575.69209</ele>
        <time>2022-04-24T12:29:28.695Z</time>
      </trkpt>
      <trkpt lat="41.79003" lon="20.90644">
        <ele>575.812669</ele>
        <time>2022-04-24T12:29:42.697Z</time>
      </trkpt>
      <trkpt lat="41.79003" lon="20.90632">
        <ele>575.961354</ele>
        <time>2022-04-24T12:30:11.688Z</time>
      </trkpt>
      <trkpt lat="41.79006" lon="20.90618">
        <ele>576.121648</ele>
        <time>2022-04-24T12:30:19.702Z</time>
      </trkpt>
      <trkpt lat="41.7901" lon="20.90607">
        <ele>576.268178</ele>
        <time>2022-04-24T12:30:26.696Z</time>
      </trkpt>
      <trkpt lat="41.79024" lon="20.90584">
        <ele>576.617396</ele>
        <time>2022-04-24T12:44:00.722Z</time>
      </trkpt>
      <trkpt lat="41.7902" lon="20.90595">
        <ele>576.760801</ele>
        <time>2022-04-24T12:44:26.704Z</time>
      </trkpt>
      <trkpt lat="41.79033" lon="20.90609">
        <ele>577.030036</ele>
        <time>2022-04-24T12:45:49.737Z</time>
      </trkpt>
      <trkpt lat="41.7902" lon="20.90614">
        <ele>577.244358</ele>
        <time>2022-04-24T12:46:22.691Z</time>
      </trkpt>
      <trkpt lat="41.79007" lon="20.9059">
        <ele>577.599088</ele>
        <time>2022-04-24T12:47:50.734Z</time>
      </trkpt>
      <trkpt lat="41.79016" lon="20.90598">
        <ele>577.773876</ele>
        <time>2022-04-24T12:50:14.734Z</time>
      </trkpt>
      <trkpt lat="41.79029" lon="20.90598">
        <ele>577.974919</ele>
        <time>2022-04-24T12:51:55.706Z</time>
      </trkpt>
      <trkpt lat="41.79018" lon="20.90599">
        <ele>578.146851</ele>
        <time>2022-04-24T12:53:54.724Z</time>
      </trkpt>
      <trkpt lat="41.79038" lon="20.90596">
        <ele>578.474857</ele>
        <time>2022-04-24T13:09:01.698Z</time>
      </trkpt>
      <trkpt lat="41.79036" lon="20.90619">
        <ele>578.050433</ele>
        <time>2022-04-24T13:11:45.691Z</time>
      </trkpt>
      <trkpt lat="41.79006" lon="20.9062">
        <ele>576.831511</ele>
        <time>2022-04-24T13:13:53.683Z</time>
      </trkpt>
      <trkpt lat="41.79019" lon="20.90617">
        <ele>576.26654</ele>
        <time>2022-04-24T13:14:32.714Z</time>
      </trkpt>
      <trkpt lat="41.79032" lon="20.906">
        <ele>575.55108</ele>
        <time>2022-04-24T13:16:56.677Z</time>
      </trkpt>
      <trkpt lat="41.79028" lon="20.90589">
        <ele>575.17258</ele>
        <time>2022-04-24T13:17:03.683Z</time>
      </trkpt>
      <trkpt lat="41.7903" lon="20.90602">
        <ele>574.770309</ele>
        <time>2022-04-24T13:17:44.675Z</time>
      </trkpt>
      <trkpt lat="41.79033" lon="20.90614">
        <ele>574.395792</ele>
        <time>2022-04-24T13:17:52.671Z</time>
      </trkpt>
      <trkpt lat="41.79037" lon="20.90625">
        <ele>574.021263</ele>
        <time>2022-04-24T13:17:59.677Z</time>
      </trkpt>
      <trkpt lat="41.7904" lon="20.90636">
        <ele>573.64987</ele>
        <time>2022-04-24T13:18:05.674Z</time>
      </trkpt>
      <trkpt lat="41.79046" lon="20.90646">
        <ele>573.273446</ele>
        <time>2022-04-24T13:18:12.674Z</time>
      </trkpt>
      <trkpt lat="41.79044" lon="20.90659">
        <ele>572.886298</ele>
        <time>2022-04-24T13:18:23.697Z</time>
      </trkpt>
      <trkpt lat="41.79038" lon="20.90668">
        <ele>572.50833</ele>
        <time>2022-04-24T13:18:32.685Z</time>
      </trkpt>
      <trkpt lat="41.79028" lon="20.90683">
        <ele>571.865039</ele>
        <time>2022-04-24T13:21:07.681Z</time>
      </trkpt>
      <trkpt lat="41.79019" lon="20.90689">
        <ele>571.48685</ele>
        <time>2022-04-24T13:21:19.677Z</time>
      </trkpt>
      <trkpt lat="41.79012" lon="20.90697">
        <ele>571.25889</ele>
        <time>2022-04-24T13:21:29.684Z</time>
      </trkpt>
      <trkpt lat="41.79003" lon="20.90697">
        <ele>571.458885</ele>
        <time>2022-04-24T13:21:39.678Z</time>
      </trkpt>
      <trkpt lat="41.78998" lon="20.90708">
        <ele>571.674893</ele>
        <time>2022-04-24T13:21:47.688Z</time>
      </trkpt>
      <trkpt lat="41.7899" lon="20.90715">
        <ele>571.887362</ele>
        <time>2022-04-24T13:22:01.685Z</time>
      </trkpt>
      <trkpt lat="41.78985" lon="20.90725">
        <ele>572.086973</ele>
        <time>2022-04-24T13:22:10.674Z</time>
      </trkpt>
      <trkpt lat="41.78979" lon="20.90735">
        <ele>572.304952</ele>
        <time>2022-04-24T13:22:20.678Z</time>
      </trkpt>
      <trkpt lat="41.78977" lon="20.90748">
        <ele>572.517871</ele>
        <time>2022-04-24T13:22:28.673Z</time>
      </trkpt>
      <trkpt lat="41.78975" lon="20.90761">
        <ele>572.727187</ele>
        <time>2022-04-24T13:22:37.682Z</time>
      </trkpt>
      <trkpt lat="41.78972" lon="20.90773">
        <ele>572.935876</ele>
        <time>2022-04-24T13:22:46.671Z</time>
      </trkpt>
      <trkpt lat="41.78969" lon="20.90784">
        <ele>573.140082</ele>
        <time>2022-04-24T13:22:55.678Z</time>
      </trkpt>
      <trkpt lat="41.78967" lon="20.90797">
        <ele>573.354664</ele>
        <time>2022-04-24T13:23:05.676Z</time>
      </trkpt>
      <trkpt lat="41.78963" lon="20.90809">
        <ele>573.555856</ele>
        <time>2022-04-24T13:23:13.674Z</time>
      </trkpt>
      <trkpt lat="41.7894" lon="20.90805">
        <ele>574.0707</ele>
        <time>2022-04-24T13:25:04.673Z</time>
      </trkpt>
      <trkpt lat="41.7893" lon="20.90806">
        <ele>574.28898</ele>
        <time>2022-04-24T13:25:13.669Z</time>
      </trkpt>
      <trkpt lat="41.7892" lon="20.90807">
        <ele>574.499844</ele>
        <time>2022-04-24T13:25:22.675Z</time>
      </trkpt>
      <trkpt lat="41.78925" lon="20.90826">
        <ele>574.832952</ele>
        <time>2022-04-24T13:33:23.672Z</time>
      </trkpt>
      <trkpt lat="41.78924" lon="20.90863">
        <ele>575.149017</ele>
        <time>2022-04-24T13:37:06.695Z</time>
      </trkpt>
      <trkpt lat="41.78928" lon="20.90852">
        <ele>575.149017</ele>
        <time>2022-04-24T13:37:14.698Z</time>
      </trkpt>
      <trkpt lat="41.78929" lon="20.90839">
        <ele>575.149017</ele>
        <time>2022-04-24T13:37:38.696Z</time>
      </trkpt>
      <trkpt lat="41.78922" lon="20.90833">
        <ele>575.149017</ele>
        <time>2022-04-24T13:38:24.703Z</time>
      </trkpt>
      <trkpt lat="41.78915" lon="20.90824">
        <ele>575.149017</ele>
        <time>2022-04-24T13:38:54.703Z</time>
      </trkpt>
      <trkpt lat="41.78896" lon="20.90808">
        <ele>575.149017</ele>
        <time>2022-04-24T13:39:14.703Z</time>
      </trkpt>
      <trkpt lat="41.78887" lon="20.90812">
        <ele>575.149017</ele>
        <time>2022-04-24T13:39:35.686Z</time>
      </trkpt>
      <trkpt lat="41.78887" lon="20.90824">
        <ele>575.149017</ele>
        <time>2022-04-24T13:40:41.686Z</time>
      </trkpt>
      <trkpt lat="41.78896" lon="20.90824">
        <ele>575.149017</ele>
        <time>2022-04-24T13:49:34.720Z</time>
      </trkpt>
    </trkseg>
  </trk>
</gpx>